GFSCGP_250_rhum_015.txt.gz
RH
17 16 20 18 16 16 20 28 46 44 43 46 53 55 41 47 29 28 26 19 17 17 20 20 20 18 15 15 17 19 21 19 19 22 25 20 21 28 34 44 45 42 42 38
14 14 19 24 37 49 65 73 52 48 37 35 30 28 23 24 22 20 19 18 18 15 18 19 17 16 19 18 20 18 18 20 21 22 18 19 26 36 46 49 45 43 42 39
69 60 63 61 64 72 62 47 38 20 19 18 16 14 20 21 16 21 22 23 15 19 19 18 17 18 17 18 20 20 21 21 18 19 26 40 50 53 49 43 43 42 40 38
30 24 20 18 17 16 15 15 15 15 15 15 16 14 18 20 17 14 24 24 23 22 20 19 18 18 18 19 19 20 19 20 20 39 51 45 39 39 39 39 41 41 38 38
18 18 17 17 17 17 16 16 17 16 15 15 17 15 15 17 18 29 22 16 16 17 18 19 19 19 20 21 20 18 18 20 47 59 51 40 43 47 47 46 45 48 57 64
26 25 25 24 23 22 21 21 20 20 19 19 19 20 18 18 18 20 21 23 22 19 18 16 16 18 18 18 18 21 37 53 57 60 51 49 51 57 67 66 63 65 67 64
26 26 26 23 21 21 20 20 24 29 38 38 37 32 25 28 26 20 18 19 19 18 18 16 15 17 24 40 58 70 78 65 50 42 41 42 44 51 52 50 48 45 50 71
19 19 21 25 28 28 26 26 25 25 27 27 24 27 29 31 27 24 22 17 17 20 21 19 30 36 37 40 43 42 42 42 47 53 54 54 52 56 54 66 76 86 91 83
36 53 60 62 60 61 62 63 57 60 60 59 44 48 60 59 51 41 31 26 24 34 28 39 40 44 48 49 45 44 47 49 56 61 64 67 57 58 76 92 87 76 76 70
66 61 54 47 45 46 50 53 55 56 51 52 49 46 50 51 52 55 51 60 66 53 50 46 50 49 51 51 48 46 48 50 48 54 58 68 80 84 90 83 75 69 62 56
56 53 51 47 42 40 38 43 46 43 41 41 48 36 31 30 30 33 38 44 54 53 55 49 38 37 43 48 54 55 53 53 54 58 68 78 84 81 80 82 69 63 55 54
55 53 54 47 40 37 38 33 35 39 42 48 53 56 39 37 30 28 29 33 42 49 47 41 49 66 68 62 52 43 47 61 78 83 78 81 96 94 75 65 58 54 45 31
59 58 55 49 40 32 38 57 64 77 83 60 56 53 42 58 63 55 56 57 61 63 63 67 66 52 45 45 55 67 78 83 83 98 100 92 74 59 50 43 36 28 17 16
59 54 50 52 56 60 57 55 54 55 60 67 64 57 51 42 42 46 48 44 44 44 43 46 44 45 49 57 69 80 92 100 99 89 83 64 55 44 45 42 28 15 10 9
58 51 51 57 55 56 55 55 54 53 49 48 48 47 52 55 43 42 55 56 48 40 40 45 50 51 61 73 81 88 87 86 76 68 61 56 51 46 38 24 16 11 9 8
60 59 59 60 59 61 60 59 58 56 58 58 53 55 47 50 45 49 53 48 46 49 50 50 55 63 74 73 79 75 65 73 73 60 60 55 54 43 24 12 9 9 7 5
60 57 63 66 66 65 66 68 61 55 48 56 51 59 61 50 45 47 53 54 54 51 52 60 72 71 65 67 68 66 67 64 66 74 65 56 43 25 11 9 8 7 5 4
53 56 62 69 79 77 60 51 50 58 56 71 63 57 58 47 41 45 49 51 55 55 59 69 70 67 68 62 57 62 72 76 75 62 53 42 26 10 9 8 6 5 4 4
68 84 99 88 68 54 44 58 60 62 67 61 54 49 45 39 37 44 52 55 56 60 67 70 69 64 66 72 69 73 76 72 63 51 38 27 12 9 9 6 5 5 4 4
100 94 59 50 50 49 49 60 68 73 77 60 58 52 43 45 50 53 61 66 71 74 73 78 78 76 78 76 74 77 72 66 50 43 35 14 9 8 6 5 4 4 4 4
53 52 51 49 56 59 55 65 71 72 64 58 54 52 57 59 62 62 62 72 71 68 70 74 79 75 73 75 78 74 70 49 36 34 18 9 8 7 5 4 4 4 4 4
68 61 61 62 55 61 52 56 82 78 60 51 50 53 59 64 64 65 68 69 67 63 72 78 73 76 80 80 71 67 48 37 29 20 10 8 7 5 4 4 4 4 5 5
74 78 71 75 71 63 47 55 64 69 70 56 50 59 67 66 65 63 71 70 66 79 85 74 80 75 83 80 70 50 39 31 20 11 8 8 6 5 4 4 5 5 5 6
100 91 82 71 83 71 70 67 66 61 58 58 61 66 67 64 63 72 76 73 92 88 81 78 69 84 78 67 54 39 34 23 12 9 8 7 5 5 5 5 5 5 6 6
100 100 90 75 62 54 55 53 64 58 54 58 61 71 69 73 85 86 80 88 85 86 78 78 87 76 69 57 41 40 32 15 10 8 7 6 5 5 5 6 6 6 6 6
100 100 98 85 83 84 67 87 75 66 62 68 76 74 79 86 91 85 86 85 82 81 78 78 82 74 65 49 40 32 16 10 9 8 6 5 5 5 5 6 6 7 7 6

GFSCGP_250_rhum_021.txt.gz
RH
22 17 12 8 10 12 23 46 63 68 70 69 61 58 58 63 71 58 35 31 38 48 51 47 44 44 56 47 75 100 100 100 100 87 69 31 19 17 18 17 17 17 18 19
6 6 7 10 22 40 53 66 70 64 53 44 41 42 36 28 37 48 49 46 44 37 31 28 33 33 40 73 53 74 74 74 59 24 20 20 20 19 17 17 17 19 34 50
11 16 21 22 24 26 27 27 24 26 28 28 24 44 60 50 43 34 29 24 18 18 22 23 26 31 30 31 32 31 28 24 20 19 18 17 18 18 19 23 39 46 41 34
13 13 16 15 15 23 27 29 29 35 49 52 56 39 26 22 19 17 16 16 19 19 20 24 24 22 21 22 22 18 18 17 16 15 15 16 17 24 34 37 33 33 38 41
34 44 41 42 42 41 41 44 41 37 28 20 16 16 17 18 18 17 18 19 18 18 19 20 20 22 20 17 15 17 17 17 16 17 21 28 35 37 35 40 45 44 43 42
40 41 37 31 30 27 24 23 21 18 17 18 19 20 27 27 30 32 31 30 30 31 31 29 26 26 25 28 36 27 24 27 36 41 46 50 50 55 60 66 59 47 47 52
23 21 20 21 20 20 20 20 20 18 20 23 24 25 30 37 47 52 57 57 56 60 58 59 46 44 40 41 43 48 49 48 48 51 54 52 55 56 51 45 54 59 60 66
24 25 27 29 25 20 20 25 35 45 51 46 45 46 46 44 45 45 42 39 39 37 36 38 41 39 41 50 58 55 58 65 65 64 62 60 62 67 66 65 69 71 57 58
25 25 26 31 49 58 58 49 44 41 40 42 43 40 35 34 36 39 40 39 40 45 48 52 56 58 56 56 61 65 60 59 60 61 66 74 73 68 59 53 50 52 56 49
48 60 67 60 48 44 43 40 40 40 47 53 49 48 43 41 41 41 43 42 40 40 41 40 40 40 42 45 48 51 52 54 56 58 60 55 48 46 47 51 59 57 57 52
64 56 50 49 47 45 44 44 47 50 50 51 46 40 42 44 44 44 41 36 32 31 33 37 39 40 40 39 39 40 41 43 46 47 51 49 48 54 64 62 51 47 45 42
58 54 54 60 57 54 53 54 55 54 55 45 43 46 46 42 39 38 38 37 36 38 41 44 44 44 44 39 33 35 40 47 51 49 48 54 64 64 53 53 53 52 52 51
57 58 64 65 61 57 53 57 59 61 54 46 46 44 44 42 40 38 38 39 42 43 38 38 39 39 39 37 44 55 58 58 61 67 66 68 65 64 65 68 61 50 44 34
64 66 70 67 61 56 60 64 64 59 55 55 50 46 45 43 44 46 45 47 50 50 54 55 53 52 54 62 70 69 73 74 69 68 69 68 64 64 63 54 52 41 27 19
78 80 75 65 57 51 52 59 62 58 59 49 46 47 46 52 60 54 51 49 53 56 60 70 71 72 72 70 66 65 65 64 66 67 64 62 70 71 67 55 42 25 18 13
84 75 63 58 55 52 55 54 54 59 52 43 46 55 61 61 68 61 62 66 65 65 73 71 68 65 58 56 57 61 64 67 64 68 73 84 78 68 55 41 28 20 14 11
67 67 62 60 52 61 78 57 62 54 50 44 48 57 63 66 70 77 80 76 70 69 69 64 60 57 57 59 64 68 67 67 69 76 80 85 69 62 46 33 22 17 10 9
68 66 59 61 63 81 93 81 57 64 63 54 50 58 64 65 71 89 97 89 78 68 63 64 62 64 64 68 68 70 71 75 75 80 84 68 62 48 37 24 18 10 9 8
80 72 68 74 94 72 80 78 72 50 65 46 58 70 97 82 73 84 83 71 62 70 72 66 65 67 76 74 76 83 83 94 100 91 72 59 53 41 28 21 12 10 9 7
79 71 65 68 54 68 100 89 60 56 74 80 74 94 100 86 75 85 79 69 72 73 66 69 76 81 82 87 92 91 98 100 93 70 60 51 37 29 20 13 10 9 7 6
60 47 61 82 100 100 100 96 81 85 88 90 95 100 100 99 88 87 67 66 66 61 73 86 90 92 95 93 98 96 100 90 76 63 48 31 30 22 14 10 9 8 7 6
79 85 100 100 100 99 98 73 86 99 93 87 95 99 100 90 79 67 68 77 70 87 100 99 97 92 95 96 95 100 94 78 71 57 40 32 22 15 10 9 8 7 6 6
100 100 100 100 100 100 84 77 97 98 91 93 99 100 93 89 82 81 100 93 97 98 94 91 92 99 92 94 95 82 71 69 61 48 38 22 16 11 9 8 7 6 6 5
100 100 98 87 98 85 85 100 96 84 91 96 100 99 97 89 84 93 85 83 86 90 86 95 97 95 96 92 82 75 70 60 51 38 22 16 11 9 8 7 6 6 5 5
100 82 86 95 100 87 97 89 86 92 89 97 100 93 78 80 82 80 77 85 91 87 94 93 99 98 96 83 74 68 64 52 41 25 16 12 10 9 6 6 6 5 5 5
99 86 76 79 79 79 89 90 90 95 93 82 64 66 73 76 80 77 89 94 91 91 94 98 100 93 85 73 70 55 44 38 22 16 13 10 8 7 5 5 5 5 5 5

GFSCGP_250_rhum_024.txt.gz
RH
60 73 90 100 100 100 76 78 88 94 94 98 99 96 90 88 88 84 81 67 62 65 69 72 55 48 47 44 40 87 100 100 100 100 100 100 100 100 100 88 56 20 19 18
43 33 45 55 64 66 70 64 54 57 50 56 65 69 70 68 57 51 46 38 36 45 48 42 33 26 29 59 80 85 82 77 85 96 96 86 74 43 33 32 20 22 20 22
27 17 19 19 16 11 6 10 26 42 61 68 57 47 37 32 30 33 50 57 46 26 22 22 22 25 28 32 42 37 36 34 29 28 29 27 23 22 22 25 26 31 44 53
11 8 8 8 12 18 29 33 34 30 25 23 26 34 41 46 47 42 34 23 16 17 16 17 17 18 18 18 19 21 22 25 31 28 23 24 26 28 29 37 48 52 49 44
7 11 15 16 14 14 15 23 29 36 44 46 32 23 21 21 19 17 17 17 17 17 19 24 24 24 28 32 33 38 45 43 35 34 43 42 41 43 44 44 39 35 37 38
24 26 22 26 31 33 37 44 42 32 22 20 20 19 19 18 19 22 24 24 32 42 44 40 38 34 34 35 36 37 36 32 31 31 30 31 35 37 39 40 41 42 45 44
41 43 47 45 38 32 29 25 20 20 22 20 21 24 24 27 38 41 43 42 39 36 37 41 43 42 42 41 38 37 35 37 36 37 40 41 41 42 43 45 48 51 54 58
34 29 25 21 19 19 22 24 24 30 31 33 35 43 42 40 39 37 38 45 51 53 51 47 42 41 39 38 38 42 44 45 45 44 42 39 38 40 48 54 61 72 81 78
23 24 24 25 25 24 28 43 50 42 34 30 32 35 39 45 50 52 50 47 44 43 40 39 43 43 46 43 37 38 41 42 43 41 42 50 59 68 79 87 94 84 68 61
27 26 23 28 40 47 43 40 37 38 38 41 44 48 49 49 45 42 42 40 37 35 35 34 36 37 36 41 46 46 47 52 55 54 54 60 68 73 80 78 65 55 48 49
24 33 54 52 44 41 40 43 43 45 50 53 53 52 50 47 42 39 36 36 34 33 33 33 37 50 63 63 61 56 52 52 54 57 61 67 68 63 56 49 50 56 60 50
59 56 48 46 48 49 50 51 51 54 55 55 56 50 45 39 36 37 41 43 40 42 38 40 46 49 51 57 54 54 53 48 50 55 57 54 50 50 48 55 63 61 54 49
53 52 54 58 57 59 60 57 53 55 57 55 53 46 40 37 41 51 53 51 55 50 52 51 54 54 54 52 47 48 48 50 53 52 48 47 54 54 61 70 66 64 60 45
55 53 56 63 68 68 63 58 56 59 59 55 50 45 43 40 45 48 52 54 67 62 59 63 62 63 63 60 61 59 58 56 51 47 52 59 59 67 76 79 77 61 58 43
60 65 70 76 77 72 68 67 64 61 56 57 52 50 43 43 46 59 57 56 64 68 67 71 72 75 71 68 67 63 59 52 54 58 63 64 78 82 86 85 88 71 52 38
82 90 87 86 76 75 82 72 65 65 64 62 55 66 57 46 61 70 72 60 65 66 69 70 78 62 55 58 58 61 60 62 63 76 76 79 95 90 94 87 82 59 36 23
91 90 85 89 68 66 87 60 64 64 64 57 70 58 58 55 84 95 86 76 74 74 72 76 74 63 62 59 63 61 70 82 79 83 86 96 94 100 90 79 60 37 20 16
91 84 70 74 69 64 80 83 74 56 72 80 66 54 49 64 100 100 81 82 77 90 86 89 78 71 63 59 64 75 89 87 86 94 98 98 100 96 85 67 36 20 16 12
76 66 64 70 79 68 96 100 91 88 98 97 53 61 52 85 100 94 88 90 93 91 93 87 72 60 59 70 81 92 93 94 88 100 100 100 97 88 68 44 23 17 12 11
69 72 75 71 65 75 100 100 100 90 92 80 84 59 84 100 100 100 84 83 84 88 80 71 69 73 77 84 92 98 93 89 100 100 96 100 94 66 43 23 16 13 11 11
84 83 75 70 57 66 100 100 100 97 73 75 77 87 100 100 100 96 83 87 85 77 73 74 76 76 90 96 96 90 91 99 100 99 96 85 76 51 25 17 14 11 11 9
80 58 58 51 56 70 100 99 89 68 78 90 88 97 100 99 96 93 94 90 81 77 74 84 90 90 92 91 87 88 98 100 93 94 74 63 54 31 22 14 10 10 9 7
87 87 79 96 97 94 100 100 88 89 82 97 100 99 100 98 93 93 86 87 78 79 81 77 78 91 82 79 86 100 100 100 88 69 44 36 27 21 16 10 10 10 7 6
98 86 87 100 100 100 100 98 81 77 88 92 90 91 92 89 86 95 92 87 80 72 71 79 90 82 81 94 100 100 98 87 65 52 33 22 20 15 11 10 9 7 6 5
100 100 100 98 100 92 92 84 70 81 92 86 76 73 79 94 97 85 79 68 71 76 86 89 83 83 92 100 100 94 86 65 49 34 24 17 15 12 10 10 7 6 5 5
100 90 74 76 76 66 72 78 88 96 92 84 91 98 99 86 77 70 61 69 84 90 88 82 85 95 98 94 85 79 63 44 30 23 17 16 13 10 10 9 6 6 5 6

GFSCGP_250_rhum_027.txt.gz
RH
88 87 100 99 92 100 100 100 100 100 96 92 94 97 100 100 100 99 97 94 88 87 84 82 65 69 61 55 50 42 47 64 92 100 100 100 100 100 100 100 100 100 76 68
85 97 97 100 100 98 96 100 100 100 100 99 100 91 81 82 85 79 78 76 77 70 42 43 46 48 44 37 30 30 34 40 77 86 92 94 75 93 100 100 60 26 25 29
95 92 82 84 81 85 81 84 95 93 89 87 76 65 53 60 73 78 70 53 39 38 44 46 38 30 21 16 17 18 21 24 28 55 58 26 26 28 36 43 46 51 54 54
62 57 56 38 30 33 31 23 16 10 10 16 30 49 58 54 39 34 33 44 46 46 26 18 18 20 23 30 32 33 38 44 44 40 40 48 50 48 46 44 43 45 50 52
57 48 20 16 14 9 7 8 10 22 39 41 35 30 27 32 35 37 31 20 18 20 26 30 38 40 40 40 38 38 36 36 39 39 40 40 36 37 40 42 42 39 38 37
19 14 11 11 14 18 27 26 22 23 29 34 36 40 40 26 18 20 24 30 38 48 49 44 42 42 42 41 38 37 36 35 34 35 36 36 36 37 39 40 38 35 31 31
11 8 12 15 15 22 23 27 39 41 36 29 20 18 20 25 33 41 46 46 46 47 49 49 46 44 41 38 37 34 31 30 28 29 30 30 31 32 32 32 31 32 42 49
28 32 33 35 39 37 36 32 22 19 20 22 34 48 50 46 43 44 48 50 49 49 46 41 37 34 32 30 30 30 33 35 38 40 37 35 34 36 39 41 48 56 65 69
42 42 36 29 21 19 20 21 22 32 50 56 49 44 48 52 55 55 52 48 44 40 35 32 32 34 34 33 35 44 53 52 49 45 44 48 54 58 61 65 66 64 58 52
25 21 20 22 28 26 26 40 45 41 40 40 41 43 50 53 52 49 44 37 34 36 40 40 40 43 45 47 50 48 48 52 54 55 57 63 65 64 59 52 51 52 54 68
30 28 30 28 30 46 43 42 43 43 42 46 50 54 55 52 46 39 36 41 42 43 45 52 57 58 58 63 71 75 74 72 72 63 62 64 58 52 50 50 54 61 75 73
25 28 40 48 45 44 48 52 53 52 54 57 59 59 56 49 42 41 39 41 51 52 56 62 66 68 72 74 83 75 70 62 56 58 55 52 54 48 50 60 67 80 70 75
47 57 49 48 52 54 60 60 59 57 56 59 62 61 58 53 48 46 43 45 63 62 61 60 62 61 62 75 72 65 64 59 52 48 50 51 54 55 63 70 78 68 70 67
53 52 51 56 59 67 71 69 64 60 57 56 54 56 63 56 52 58 50 44 49 56 70 68 69 68 71 66 65 58 60 52 48 50 51 52 61 71 78 84 64 74 90 86
64 59 58 64 72 78 80 75 72 74 71 62 56 64 56 56 64 65 54 52 46 56 76 78 82 88 84 75 73 66 69 67 58 53 52 62 72 81 88 78 86 99 91 60
73 68 70 77 84 90 91 87 76 83 71 64 66 73 59 78 78 58 59 56 60 73 70 87 83 87 81 84 77 74 70 64 58 54 61 75 81 88 92 92 99 94 70 62
76 79 87 97 96 100 100 86 83 72 70 64 76 75 82 94 82 72 63 60 76 69 92 94 94 89 86 84 77 77 70 60 56 59 76 86 95 99 98 100 97 88 55 36
95 98 100 100 85 90 98 99 90 68 64 62 70 82 100 94 83 72 66 78 76 85 91 99 98 92 97 88 81 69 55 58 67 83 95 100 100 100 100 91 87 60 32 18
89 84 82 80 74 73 97 100 94 66 61 65 79 100 90 74 66 66 71 91 91 84 92 97 96 98 92 88 77 60 66 76 93 100 100 100 100 94 64 55 48 30 17 14
87 80 73 79 67 76 100 100 83 68 77 94 100 100 79 76 63 70 82 86 82 82 80 87 100 95 88 79 67 80 91 100 100 100 100 100 97 61 34 26 21 17 14 12
63 66 68 70 67 81 93 80 77 82 85 100 100 100 91 75 70 68 70 79 84 84 95 100 94 90 81 75 88 95 99 98 99 100 100 99 86 55 31 27 18 15 13 11
66 68 76 77 86 85 77 72 76 85 94 90 82 78 76 79 71 62 72 90 93 93 100 91 85 81 76 87 94 98 100 100 100 96 90 88 56 32 25 25 15 13 11 10
83 85 80 89 89 68 63 73 91 94 84 75 75 77 78 66 62 66 87 100 95 99 95 82 80 83 94 96 100 95 100 100 98 86 85 46 26 20 18 16 13 12 10 10
94 87 89 78 84 85 100 100 92 78 84 85 79 70 63 61 69 79 90 98 99 86 76 75 79 86 91 92 93 100 100 94 75 74 50 35 23 19 15 14 13 11 10 10
100 99 91 100 100 100 99 94 81 77 81 76 67 65 63 63 70 76 86 86 76 73 75 80 86 97 98 97 100 97 88 74 66 48 32 35 27 17 16 14 12 10 10 9
100 100 100 100 97 84 76 74 81 81 72 65 58 57 62 70 77 80 76 65 70 76 83 97 96 100 94 97 96 86 73 60 49 34 30 31 31 17 14 12 10 10 10 7

GFSCGP_250_rhum_033.txt.gz
RH
85 89 100 100 100 100 100 100 96 90 93 90 93 100 100 100 100 100 100 100 100 100 100 100 100 100 100 100 92 87 76 67 62 57 55 55 51 44 40 47 59 54 82 100
85 97 100 100 100 100 100 100 100 99 98 100 100 100 100 100 100 100 100 100 100 100 100 100 98 100 97 82 70 68 58 49 41 28 22 21 24 28 32 33 65 65 76 56
97 100 100 100 100 100 100 100 97 99 100 97 100 95 94 100 100 100 100 100 100 100 100 100 86 72 62 64 58 49 61 29 33 34 33 33 34 34 35 35 35 36 36 37
99 100 100 100 92 99 100 100 98 100 96 100 100 100 100 100 100 100 89 87 88 84 75 63 68 55 38 29 28 27 31 32 33 33 32 32 32 31 32 34 38 38 40 37
98 89 94 99 100 100 100 100 100 100 100 100 95 97 84 62 69 73 52 34 38 54 56 32 31 23 28 34 36 34 34 34 32 31 33 34 36 40 44 46 42 44 38 40
98 100 100 100 100 100 96 100 96 99 100 95 83 84 68 40 27 39 43 35 33 29 22 28 35 37 37 36 35 33 32 34 34 35 38 39 42 52 61 78 86 83 74 62
100 100 100 100 97 90 81 76 76 78 60 34 20 13 15 44 36 31 28 24 29 37 33 36 40 40 37 34 35 38 46 53 56 57 63 68 72 76 74 80 72 64 60 53
90 98 95 92 87 87 60 28 22 20 16 22 35 38 34 31 28 33 42 38 33 34 39 42 38 35 34 35 37 42 47 51 55 65 79 81 82 78 76 70 67 60 57 58
87 85 82 79 74 51 38 30 30 40 38 37 36 30 29 40 43 39 37 39 43 45 46 39 39 40 40 34 32 37 44 53 50 62 69 76 76 87 80 76 75 72 70 58
56 49 37 34 50 49 49 49 41 40 38 31 36 58 52 41 36 42 47 50 51 50 43 40 41 41 38 36 37 42 47 46 56 67 74 73 73 81 80 81 80 75 65 56
34 25 25 41 40 45 46 45 40 33 33 63 63 47 40 39 46 54 60 61 57 51 45 46 49 52 39 37 39 43 48 57 57 64 66 80 86 91 91 92 79 69 63 65
38 44 42 38 41 41 34 31 30 52 70 60 47 48 50 56 62 66 67 67 64 63 55 55 52 52 36 37 39 46 53 52 58 60 77 83 96 91 84 84 71 63 64 68
33 30 29 26 25 27 32 43 62 63 54 49 54 57 61 64 62 61 62 64 62 62 64 56 58 54 42 41 47 53 58 59 63 68 77 93 100 96 93 78 67 70 76 78
36 37 36 34 35 50 65 60 58 55 57 61 61 60 63 63 62 60 62 66 64 64 65 65 68 67 49 48 50 59 64 61 64 72 91 99 94 86 78 74 76 78 74 67
41 33 36 40 64 64 53 54 61 65 65 72 64 67 56 69 83 86 86 76 71 70 67 75 91 72 62 53 55 67 62 64 70 90 96 92 85 84 80 83 79 77 70 78
28 34 51 70 60 56 65 69 70 68 70 71 72 77 52 74 73 84 74 78 79 70 75 100 97 81 73 60 69 65 64 72 91 92 84 81 83 79 84 87 78 75 84 86
44 68 64 59 66 73 77 78 70 74 80 75 80 97 88 90 78 74 72 71 76 70 74 86 86 82 69 66 59 59 67 82 84 76 81 81 84 91 89 77 78 84 90 89
70 67 62 65 72 81 83 73 75 77 80 72 85 84 79 80 74 69 68 80 67 68 63 64 62 61 59 53 57 70 76 76 80 81 79 84 83 82 80 88 94 99 89 73
74 71 74 75 76 84 84 83 81 85 79 64 82 75 71 62 62 66 73 74 64 53 51 59 59 56 56 60 73 77 76 83 83 84 80 78 82 82 80 92 100 81 63 44
81 88 93 88 82 84 89 84 87 83 68 88 81 64 61 63 67 66 66 75 70 68 64 56 59 55 61 71 75 80 87 79 77 82 91 88 77 86 100 85 62 55 55 54
91 89 91 86 83 87 91 84 83 87 95 76 70 68 71 74 78 98 99 87 77 68 62 57 53 60 67 68 74 86 82 82 81 80 83 90 97 85 75 70 52 53 55 42
84 86 87 87 84 82 82 80 94 82 73 68 70 71 78 77 96 100 92 70 67 60 52 55 62 69 68 72 84 81 76 77 82 80 89 89 95 95 72 57 57 46 38 28
79 78 84 81 74 66 62 65 60 68 80 87 86 83 78 100 98 81 61 55 48 48 52 62 65 65 77 85 84 82 78 74 80 90 90 90 76 63 66 56 39 32 24 17
72 65 67 74 72 56 56 57 74 82 80 81 78 77 88 83 70 56 52 48 50 59 66 65 72 83 83 85 82 73 76 81 86 90 82 66 58 55 37 20 22 23 18 15
72 60 58 66 71 79 81 85 86 68 66 69 75 74 77 62 58 59 54 60 72 71 72 78 79 84 88 83 77 82 87 82 75 74 62 49 35 35 40 33 16 14 13 11
71 78 83 89 100 94 83 74 73 77 85 86 75 72 64 56 57 67 74 74 74 75 84 84 82 83 77 75 76 78 74 66 64 48 40 38 44 41 40 25 18 12 11 9

GFSCGP_250_rhum_036.txt.gz
RH
100 100 100 89 100 100 100 90 97 96 99 95 96 92 94 100 100 100 100 100 87 98 100 100 89 73 78 100 100 100 87 100 100 100 100 86 63 51 49 38 26 24 32 39
100 99 100 96 100 100 100 100 100 100 100 96 90 94 100 100 100 100 95 100 100 100 100 86 100 100 100 99 100 100 98 80 84 87 64 58 52 32 31 34 33 32 30 28
100 90 96 100 100 100 100 99 100 93 85 100 100 100 100 94 83 82 100 100 100 100 100 100 100 100 100 100 100 98 88 75 53 52 46 32 29 28 26 26 28 30 33 36
93 100 99 100 100 100 100 82 96 85 89 100 100 98 84 86 84 70 100 100 100 100 100 100 100 100 100 96 74 61 50 36 31 30 28 26 24 27 29 33 42 45 46 46
76 82 98 100 100 100 88 89 89 96 93 100 99 80 100 100 99 97 100 95 95 84 72 67 58 57 53 54 37 32 28 34 56 25 27 34 37 44 42 44 53 54 64 69
75 88 91 83 94 100 93 84 94 100 100 100 97 80 93 67 79 99 80 72 56 36 36 39 37 33 29 28 31 32 70 31 32 39 38 34 32 33 41 44 54 58 67 66
68 84 100 96 93 96 100 100 100 100 100 100 100 100 90 90 100 96 95 40 38 32 30 24 29 39 37 34 30 28 29 31 33 34 32 33 37 43 45 49 57 65 82 84
86 99 95 100 100 100 97 97 100 100 81 76 93 96 73 36 25 32 43 31 27 30 39 39 38 40 34 32 31 33 34 33 38 39 37 37 40 42 49 56 63 78 84 71
100 100 96 100 100 91 97 95 89 82 58 34 35 32 55 44 39 31 31 35 43 38 36 40 40 37 34 35 37 36 38 39 42 37 37 35 41 48 53 60 71 86 82 77
99 100 92 88 92 99 93 91 66 53 36 40 53 49 38 33 33 42 43 42 36 35 39 39 44 40 40 41 47 49 46 42 40 39 43 36 44 55 56 68 77 90 84 79
82 82 81 94 91 84 81 68 67 57 50 42 40 32 35 44 47 47 42 40 38 44 49 52 52 55 52 51 53 54 55 43 40 44 43 40 52 57 62 74 91 88 85 82
62 73 78 63 78 80 84 50 53 51 41 34 29 52 50 56 48 43 41 41 47 57 62 65 64 57 61 65 65 61 60 53 49 53 44 53 63 60 74 89 81 80 81 75
55 54 58 66 52 64 64 52 46 39 30 33 56 60 56 47 48 51 52 56 60 58 54 50 54 62 63 63 62 62 70 74 65 65 69 62 58 74 87 74 74 76 69 70
53 44 50 57 46 49 41 31 29 32 48 55 68 46 63 52 60 63 63 60 58 65 70 56 57 60 67 66 68 70 70 82 78 72 61 57 73 82 72 72 73 69 73 84
33 32 33 31 28 26 27 32 37 62 59 58 50 57 56 55 68 69 71 72 81 72 56 70 68 62 56 59 56 56 60 64 62 58 56 67 73 67 74 80 73 73 82 80
34 34 38 41 37 40 38 45 62 59 49 58 63 64 57 66 74 71 84 80 73 73 71 70 84 78 69 58 54 55 54 57 53 56 60 71 64 70 76 77 82 79 70 73
48 45 34 36 34 37 64 58 55 53 61 66 69 74 77 69 74 100 68 52 66 72 67 68 77 80 69 54 51 59 51 48 53 60 69 68 72 80 89 88 78 69 79 74
45 32 28 34 37 74 61 55 60 66 64 64 79 90 93 81 86 70 58 66 68 64 75 73 69 65 65 69 58 52 46 52 61 70 70 78 84 89 91 83 76 76 68 77
42 33 33 49 68 64 58 65 63 70 60 75 90 84 78 70 75 56 62 65 66 66 63 66 88 87 70 50 48 48 56 66 71 71 83 87 90 91 85 79 66 65 74 68
44 40 56 66 64 61 62 67 65 68 57 77 77 78 80 77 61 61 60 56 61 69 70 97 82 65 52 50 52 60 74 73 74 85 87 85 82 75 61 57 78 78 69 56
55 48 66 70 68 72 76 76 82 77 77 76 89 90 81 81 69 66 75 71 74 75 75 86 77 66 62 69 79 82 82 86 93 93 89 86 68 68 80 77 71 69 58 46
63 67 70 82 82 86 90 89 92 85 92 93 85 83 72 74 91 81 79 98 91 70 72 77 72 66 68 82 79 78 83 92 90 85 77 70 72 72 77 70 60 44 31 30
69 79 87 94 84 83 90 92 84 99 92 82 76 72 82 100 96 96 93 86 73 66 71 71 63 65 74 79 80 82 82 81 81 73 68 67 70 68 66 60 53 44 34 22
61 79 84 97 78 75 86 70 82 84 72 78 95 100 100 95 86 79 73 71 77 80 73 68 72 75 77 74 74 83 85 80 71 65 64 69 68 62 55 46 36 25 24 22
54 76 71 95 83 82 65 71 78 65 88 100 96 89 81 82 95 83 71 77 71 66 76 75 75 73 72 77 77 78 74 67 64 69 70 64 51 36 32 25 21 19 16 11
74 66 69 62 90 85 59 59 78 100 100 97 74 75 82 96 93 79 79 69 67 75 80 78 66 69 73 74 79 69 66 69 64 61 46 32 29 27 23 18 15 12 10 10

GFSCGP_250_rhum_039.txt.gz
RH
68 100 100 100 92 95 99 99 98 93 100 99 84 97 100 100 94 85 88 99 96 99 100 100 100 100 100 100 100 100 93 95 96 74 46 45 61 98 100 85 70 72 58 41
60 98 100 95 100 96 100 90 96 100 100 100 90 90 86 99 100 100 100 100 100 100 92 89 97 100 100 100 100 100 75 64 90 100 100 100 98 90 78 64 45 32 25 23
59 87 99 100 92 92 80 86 100 100 92 94 98 96 83 100 100 100 100 100 100 100 100 100 98 100 97 92 71 98 100 100 100 90 97 88 74 57 38 29 25 23 25 31
67 71 88 93 93 78 99 85 98 100 100 100 81 96 99 88 100 91 94 100 97 100 100 100 100 100 100 100 100 100 100 94 88 73 63 53 38 31 26 26 26 26 31 37
59 73 88 94 87 89 93 99 97 99 100 87 94 100 89 98 91 81 95 88 92 97 99 79 74 82 73 80 64 56 50 46 45 38 37 33 38 29 30 28 27 30 37 39
53 81 83 83 80 98 92 86 100 100 100 100 86 89 96 85 86 94 86 78 79 79 72 58 53 46 37 36 41 41 34 34 31 44 72 37 28 27 25 25 30 32 31 36
60 70 66 72 78 80 92 99 98 100 100 100 95 70 53 72 98 86 96 76 48 68 44 44 39 45 34 33 31 33 35 33 30 30 30 30 29 27 24 25 27 27 33 40
66 72 80 85 85 99 95 76 91 100 100 100 100 88 100 100 93 100 92 45 26 37 49 34 29 29 33 37 39 36 33 33 34 36 34 31 30 28 26 30 32 36 50 50
66 78 85 96 100 100 83 83 100 100 96 92 83 66 80 79 80 58 39 58 92 98 55 31 38 42 44 46 46 39 38 40 41 42 40 39 44 34 36 36 38 60 60 53
96 97 99 92 97 100 100 95 79 80 99 95 75 42 49 31 16 41 38 35 33 32 43 46 47 51 50 47 46 43 45 45 52 56 56 58 53 40 52 49 71 64 55 59
100 100 82 62 76 78 98 83 82 99 95 84 56 65 79 51 36 32 34 30 42 47 46 47 48 50 49 45 43 44 45 49 55 59 58 57 44 65 66 62 58 52 57 68
73 96 100 87 100 99 86 91 88 89 75 96 52 49 50 40 35 30 40 58 46 46 47 43 39 40 41 44 49 53 52 50 51 50 54 56 59 60 58 54 50 56 66 72
65 68 80 91 96 80 92 80 84 82 74 79 55 40 39 30 31 53 51 44 54 58 51 48 42 44 49 54 61 62 66 67 70 71 61 55 56 50 43 49 59 64 68 67
76 73 70 70 62 56 63 60 52 56 80 48 49 38 29 27 50 55 54 53 52 50 55 53 50 45 46 53 62 76 85 88 79 58 51 49 46 49 56 59 65 67 66 72
68 68 54 51 42 58 74 52 54 53 48 38 28 27 37 54 50 63 63 64 50 59 48 48 55 66 61 61 60 61 64 67 57 58 59 51 49 53 60 69 64 69 72 78
44 45 45 39 34 36 39 38 35 30 26 25 26 55 50 45 62 72 66 59 70 73 71 73 58 53 61 65 67 70 66 56 64 61 55 59 58 63 71 69 70 67 78 82
33 34 30 32 30 31 36 28 30 29 28 32 55 53 58 62 56 65 77 82 83 74 82 74 72 70 65 64 70 53 51 60 61 60 57 59 70 72 70 74 74 85 83 77
31 29 42 43 45 54 33 34 31 29 41 59 59 65 66 65 62 54 58 76 80 76 82 87 79 73 67 61 65 72 71 65 66 64 65 66 66 72 78 81 87 85 73 60
36 35 52 51 50 36 30 31 34 41 62 62 71 68 65 71 71 72 74 74 80 79 78 63 65 71 68 69 71 73 76 75 72 67 68 71 72 76 85 89 84 67 59 64
32 38 53 54 40 33 42 57 60 56 61 74 72 71 72 71 70 76 82 80 77 82 76 75 73 72 71 73 82 81 72 70 78 84 83 74 82 87 85 75 62 61 61 60
31 52 58 53 45 43 83 72 67 61 62 72 70 74 79 82 82 80 78 88 80 69 74 82 84 80 79 87 92 82 78 84 84 81 70 81 81 81 70 68 61 60 55 52
34 51 59 63 55 57 86 83 71 75 86 78 79 86 94 95 87 76 72 69 86 75 80 80 81 85 94 98 86 76 76 80 70 64 74 78 76 70 67 61 60 59 49 35
35 48 60 61 65 68 77 76 100 100 80 72 82 87 87 88 82 79 95 90 76 91 84 93 99 100 100 92 80 79 82 63 65 71 73 67 70 69 63 59 45 38 30 22
43 46 57 52 65 83 93 100 100 100 87 94 94 98 96 88 84 96 94 88 88 77 88 96 99 100 90 78 83 84 62 66 72 72 71 72 63 57 43 32 31 23 16 11
63 52 57 55 55 70 80 98 100 100 88 90 97 96 82 84 100 99 92 84 75 86 84 91 94 83 76 80 75 64 70 73 76 75 70 60 51 37 30 28 20 14 10 9
68 68 61 67 66 62 62 65 72 75 85 99 96 79 97 100 97 87 74 77 83 83 88 84 74 76 78 70 64 73 77 82 76 66 55 47 31 24 24 23 19 12 10 8

GFSCGP_250_rhum_042.txt.gz
RH
26 47 79 95 100 100 88 94 100 100 99 84 95 100 100 92 100 100 84 100 100 100 100 97 89 87 95 100 100 100 100 97 100 100 100 100 100 100 100 96 100 75 86 100
28 39 76 91 98 85 100 98 98 100 94 75 96 86 78 92 98 94 86 96 100 100 100 100 100 100 100 89 76 73 87 100 98 98 90 83 84 92 57 93 86 99 81 83
25 45 70 88 100 79 97 99 99 94 100 100 99 99 99 100 92 93 100 100 100 85 88 100 100 100 92 89 82 91 100 100 100 100 96 98 100 93 100 100 97 81 64 42
26 58 77 90 88 75 99 98 98 100 100 100 100 86 81 78 100 97 100 100 100 100 100 100 100 100 100 100 100 100 100 100 93 91 96 89 82 77 72 64 56 46 33 30
26 42 71 89 79 87 96 98 98 99 100 100 91 99 100 88 87 100 100 100 100 90 99 74 81 100 100 100 99 94 82 85 93 74 57 46 43 37 33 32 39 39 32 28
32 40 73 78 73 83 94 85 84 98 100 99 82 92 95 95 100 100 100 100 100 100 88 91 92 92 93 74 60 52 82 68 53 42 37 32 32 33 37 53 43 30 29 30
40 48 64 76 97 92 87 94 85 90 99 87 94 64 84 99 94 74 69 76 76 73 67 56 47 48 34 35 57 67 55 48 37 38 39 38 37 34 33 33 33 34 34 33
43 57 67 80 91 91 83 83 81 97 87 71 58 54 69 88 88 88 67 56 62 58 60 35 23 32 51 60 57 72 67 41 38 42 39 36 38 40 39 40 39 43 37 36
49 53 66 91 94 92 85 93 90 97 100 88 59 80 97 79 73 74 65 51 42 30 23 34 53 84 92 71 60 46 48 42 45 47 50 43 40 40 41 41 41 40 38 38
46 55 56 82 76 83 92 80 77 89 82 76 66 78 98 88 77 56 35 23 19 28 34 37 64 88 51 46 40 40 48 49 67 50 51 54 48 42 42 45 47 44 39 39
38 62 61 55 81 75 87 92 100 100 100 82 67 73 75 66 35 35 36 48 44 37 35 45 52 42 39 46 45 46 50 53 50 53 52 53 48 44 50 54 53 58 61 57
36 52 74 69 100 100 100 89 87 80 83 98 81 79 65 44 27 39 44 40 36 38 53 49 42 46 50 49 51 46 43 43 45 48 51 48 52 64 75 70 67 66 65 64
35 46 59 57 77 85 82 99 99 94 99 95 78 48 35 25 27 39 42 39 37 40 41 44 53 56 62 64 63 54 41 40 43 49 59 63 68 72 69 63 59 55 57 58
48 57 49 51 49 61 73 82 77 86 82 66 47 17 21 34 47 40 34 42 52 53 54 56 57 70 71 66 69 76 74 71 72 65 66 62 59 60 61 59 59 58 62 69
40 73 82 74 50 52 54 76 71 66 55 33 27 40 38 42 34 35 63 52 42 47 51 47 52 54 64 71 67 59 50 50 51 55 54 61 68 63 56 60 64 72 77 69
39 36 55 62 60 61 52 61 39 34 38 44 40 36 32 30 53 73 56 47 56 57 68 79 81 71 62 57 52 44 51 53 56 56 64 67 69 68 64 67 77 73 62 70
58 61 50 45 40 38 34 35 35 31 30 30 30 29 34 37 52 58 59 65 65 66 64 56 56 51 57 65 68 68 65 57 57 63 74 72 74 78 73 77 75 62 62 68
71 57 39 36 37 33 34 35 37 36 42 51 59 51 46 54 54 53 60 67 76 83 83 76 73 83 94 74 60 67 65 71 78 80 75 76 81 78 80 80 69 72 77 66
76 64 39 36 35 39 50 38 43 36 39 46 54 63 71 60 57 59 65 71 76 77 74 78 87 87 73 72 72 75 79 75 75 79 82 83 78 84 86 71 77 76 74 79
84 67 42 40 38 42 59 59 35 38 51 72 68 77 71 69 74 76 78 81 86 83 80 79 81 78 79 73 72 82 78 79 86 87 89 83 84 92 77 80 81 84 80 70
86 61 42 40 34 45 58 48 46 45 89 89 83 77 70 71 71 78 91 89 81 77 82 88 86 90 91 84 86 80 71 83 91 85 78 83 85 83 84 79 86 82 73 62
87 64 43 41 35 47 58 60 68 80 86 83 86 84 80 85 95 95 93 93 95 100 100 92 91 94 85 85 84 74 83 85 80 78 84 82 75 84 85 92 83 66 60 51
91 74 46 40 35 47 67 78 78 70 71 84 99 100 100 100 99 96 95 94 94 96 94 89 92 92 94 84 78 85 82 79 81 81 87 78 86 90 90 84 65 57 47 32
84 78 50 42 41 47 63 77 88 83 78 84 89 99 100 97 96 98 100 96 90 92 90 97 96 95 86 84 91 83 82 78 82 91 81 83 91 95 89 66 56 48 38 28
78 87 60 47 46 51 55 65 73 84 90 93 97 96 93 95 86 80 85 94 99 90 90 94 95 88 86 88 83 83 79 86 93 80 81 92 97 84 60 55 44 33 28 19
86 89 75 56 64 70 70 65 62 71 82 90 92 94 93 88 92 99 99 95 88 84 88 93 89 85 82 82 84 80 84 91 83 89 95 93 76 58 56 42 29 26 19 14

GFSCGP_250_rhum_045.txt.gz
RH
22 21 42 59 100 98 100 100 100 96 100 100 100 100 100 100 100 100 96 100 100 83 96 100 100 100 100 100 100 100 100 100 100 100 100 100 100 100 100 98 98 95 100 98
23 22 39 61 73 79 99 100 100 100 100 98 100 100 100 100 100 100 95 89 88 99 100 100 100 100 100 100 100 100 100 100 100 100 100 100 100 100 100 100 100 100 97 95
22 27 38 73 73 70 91 100 100 100 100 81 94 100 100 100 94 99 100 100 100 100 100 100 100 95 97 100 100 99 85 100 100 95 100 98 83 66 69 75 76 64 75 76
22 31 29 67 89 67 82 99 90 99 100 100 81 99 100 87 100 98 82 76 84 100 100 100 100 100 100 100 100 100 100 100 100 98 96 98 94 88 96 97 81 65 50 39
25 34 36 46 85 96 95 98 100 100 83 98 100 100 100 100 100 100 94 100 100 98 100 99 80 75 64 65 81 90 88 97 99 82 72 68 68 70 62 50 41 36 32 33
30 32 43 46 77 100 96 100 100 93 88 98 95 75 84 98 100 98 100 100 99 88 98 100 100 87 75 70 64 63 61 63 61 55 68 90 68 60 43 35 35 36 36 35
41 22 46 61 73 98 95 99 100 100 98 81 66 79 84 80 79 94 100 100 95 97 98 86 80 86 89 87 70 80 78 67 77 83 82 76 61 46 39 39 39 38 41 40
40 29 41 63 76 93 97 100 100 100 94 82 82 92 100 84 84 90 92 97 88 70 62 66 61 54 52 47 75 94 96 100 100 100 100 95 69 50 40 48 42 38 41 46
36 36 28 51 58 88 100 97 89 88 74 64 94 82 83 89 70 58 59 63 61 62 56 49 47 21 21 48 99 100 100 100 100 86 86 56 52 50 57 42 44 47 48 47
36 48 29 44 55 55 84 96 96 82 75 80 100 100 100 75 72 62 60 66 64 50 30 24 24 32 35 39 76 64 78 90 89 62 50 49 48 44 44 44 48 49 46 51
46 42 40 37 55 57 77 100 86 71 89 79 69 100 98 90 83 77 77 70 26 25 31 41 41 37 40 44 50 51 44 40 47 44 44 44 41 38 42 50 51 61 67 72
49 36 46 28 38 68 90 87 100 97 98 96 92 91 90 86 90 86 86 59 58 45 45 44 41 54 63 64 55 48 46 56 67 59 50 39 39 48 52 54 60 67 71 64
48 54 52 32 29 44 80 69 76 80 83 84 74 70 82 92 99 96 99 63 50 44 41 41 59 76 62 56 52 59 69 73 65 48 45 56 57 55 59 61 64 62 60 64
49 65 58 40 29 37 52 69 88 95 92 76 84 56 67 82 94 99 99 74 46 39 33 46 62 58 76 61 62 74 80 82 86 88 84 71 59 62 60 60 56 68 71 78
48 53 67 39 28 36 38 53 49 50 56 58 46 56 49 58 83 90 56 50 42 34 52 81 74 80 92 80 81 85 91 91 95 80 59 52 53 58 56 58 67 74 81 76
55 51 55 45 28 25 21 30 26 20 21 37 36 41 42 45 46 34 28 29 34 61 80 64 66 64 60 69 91 94 86 82 66 58 50 51 59 58 56 67 80 83 77 87
67 43 49 53 30 22 48 40 22 32 34 35 32 32 31 30 31 32 36 40 63 73 62 63 67 70 81 83 78 76 68 66 64 53 54 61 64 63 69 78 82 75 82 90
60 42 58 47 38 45 39 35 34 35 34 42 52 50 38 29 37 48 53 73 74 62 64 71 74 76 75 75 68 63 65 63 55 58 63 68 70 78 82 83 76 79 92 88
57 57 54 46 62 49 37 36 35 36 40 59 64 42 30 28 30 42 66 70 62 64 69 72 71 74 82 82 82 79 72 68 68 81 83 82 84 87 88 84 89 97 88 81
62 59 46 47 71 61 42 38 38 40 63 80 46 33 30 36 52 67 73 67 66 68 71 73 83 89 89 78 74 72 74 75 80 79 83 89 91 88 80 80 91 93 92 97
60 54 45 47 68 68 46 42 36 42 64 50 44 43 49 68 81 81 74 70 70 75 88 97 92 79 72 72 79 85 83 77 82 91 94 92 89 86 85 92 92 96 100 96
57 56 61 57 67 76 49 41 40 38 51 43 50 59 66 77 82 86 94 99 99 92 85 76 72 78 86 89 87 93 92 94 94 91 89 89 88 86 92 93 98 100 92 88
73 59 59 63 85 87 61 45 40 37 44 59 64 67 77 81 82 81 79 76 81 86 85 84 92 95 88 87 99 99 92 93 94 93 88 88 86 99 96 97 99 92 79 72
79 76 61 59 100 94 76 52 44 41 44 62 74 80 89 91 92 90 87 94 97 89 88 89 89 87 91 96 93 90 96 97 92 82 79 80 98 96 98 98 87 74 70 62
99 78 90 66 99 95 90 71 50 47 52 61 69 74 80 90 87 84 95 98 88 80 78 91 88 93 95 91 94 97 96 86 74 72 83 93 93 99 95 85 76 63 61 55
100 100 92 73 75 100 97 88 72 63 67 88 90 88 84 81 87 96 95 84 86 88 95 97 99 94 95 98 91 84 76 70 73 89 91 94 98 90 82 74 60 61 66 64

GFSCGP_250_rhum_051.txt.gz
RH
37 29 29 24 27 43 72 80 83 84 99 100 100 80 91 100 100 100 100 100 100 100 100 100 78 91 96 89 79 73 69 96 100 100 100 100 100 100 100 100 100 100 100 90
35 33 28 24 24 41 60 89 100 96 100 100 100 93 84 90 100 100 100 100 100 100 100 98 100 98 100 100 100 92 90 85 72 67 82 90 99 100 100 100 100 98 100 100
38 34 31 25 25 40 52 82 100 90 82 98 97 96 100 98 100 80 91 100 100 100 100 100 100 100 100 100 100 100 78 64 77 98 99 89 84 89 90 97 94 100 98 90
43 36 36 24 27 33 55 64 87 100 98 88 93 100 100 100 92 94 88 77 98 100 100 100 100 100 100 100 92 83 96 100 96 92 92 98 96 98 100 88 83 89 100 100
47 41 41 24 28 26 50 59 79 93 100 95 85 88 100 100 100 100 100 100 99 100 90 82 98 100 100 97 100 86 100 100 100 100 89 100 99 90 99 100 94 82 80 70
67 55 48 36 29 28 31 60 67 79 99 79 98 86 89 82 78 92 98 94 98 100 100 100 100 93 99 100 100 100 100 100 100 95 96 83 75 78 76 64 71 75 77 67
87 70 63 48 32 30 28 54 61 79 94 100 95 100 100 88 89 84 74 87 90 86 85 88 99 100 100 100 96 99 100 98 91 88 84 71 64 67 71 84 100 80 70 55
92 76 70 52 36 29 30 40 66 68 75 96 99 80 94 82 89 93 100 100 100 99 94 92 91 94 95 81 82 84 81 73 78 79 78 71 61 70 88 100 100 99 85 61
80 80 69 50 36 30 32 35 65 67 84 99 100 92 97 98 100 100 100 99 99 90 98 94 83 84 83 85 80 78 78 75 69 59 61 75 96 100 100 88 92 96 71 50
71 80 70 51 34 29 37 33 58 72 84 99 100 100 93 100 99 100 100 95 100 98 82 72 87 100 95 80 73 57 60 48 52 73 77 100 93 99 99 100 100 96 67 79
68 76 79 49 35 31 33 40 36 69 81 95 100 100 100 90 97 99 100 96 99 98 100 95 91 83 78 77 67 54 51 52 61 70 72 100 100 100 100 100 100 96 99 100
90 81 70 52 40 32 31 40 36 44 79 90 100 96 92 100 100 82 100 99 94 99 94 85 77 78 77 75 64 53 46 50 72 83 100 100 100 100 100 100 100 100 80 82
99 92 69 57 43 37 38 44 40 34 82 89 89 82 81 93 100 100 99 98 100 100 78 75 82 76 64 78 56 48 52 64 85 100 100 100 100 100 100 100 99 77 77 84
100 98 72 65 49 40 44 44 40 36 47 96 100 81 72 75 88 100 100 98 79 69 61 58 63 52 62 64 54 48 63 91 100 100 100 100 98 92 79 71 71 64 77 88
100 97 71 64 47 45 58 49 42 41 34 48 68 94 83 85 90 80 87 87 82 75 52 34 51 65 57 51 43 48 85 86 96 100 98 85 74 71 73 59 68 85 90 93
100 99 73 65 49 52 68 43 49 41 36 36 37 85 58 50 56 73 71 70 71 60 52 44 39 38 35 33 34 42 75 90 94 86 71 70 72 65 72 90 97 99 97 96
85 91 79 65 47 66 76 55 44 50 38 44 59 65 47 59 69 57 53 67 66 50 40 34 30 27 27 30 38 43 65 78 71 66 66 70 78 86 97 100 100 100 90 69
100 94 60 62 67 90 63 49 45 54 46 45 42 44 41 41 35 35 38 46 60 68 63 51 44 40 38 42 41 53 64 65 63 69 83 87 89 96 100 100 97 80 67 81
93 75 72 77 82 92 83 48 56 46 53 39 41 36 35 36 42 52 60 72 63 46 38 36 40 47 50 51 61 74 79 77 84 91 87 83 98 100 100 94 67 71 82 82
90 100 96 84 90 99 78 68 49 58 54 42 55 57 38 38 40 46 60 57 56 48 40 41 47 56 65 79 87 86 85 85 81 78 89 100 100 92 75 68 76 80 81 81
100 97 90 98 100 99 100 62 58 60 53 47 48 67 67 46 41 39 37 42 48 57 59 54 56 66 75 82 86 86 85 89 94 94 95 88 77 75 78 79 76 84 83 86
100 100 100 100 97 100 77 81 62 62 55 57 54 72 82 67 47 41 39 38 40 46 50 55 59 66 75 78 79 80 82 88 92 89 78 78 80 80 77 83 88 90 96 92
100 100 100 88 100 100 96 71 72 67 61 59 52 58 74 79 76 59 47 42 42 46 51 56 59 61 62 66 73 79 85 85 80 79 78 78 82 87 94 96 100 97 89 85
100 100 100 91 98 92 91 86 66 77 70 54 55 58 67 80 84 84 89 84 70 60 58 57 58 65 72 72 71 71 71 74 79 82 86 92 98 100 100 100 98 91 85 84
99 100 97 85 100 98 85 70 88 84 72 65 58 71 76 71 72 80 85 88 96 99 99 98 96 90 83 83 87 91 94 91 88 90 92 96 100 99 98 96 98 93 84 90
100 100 100 100 94 92 99 90 100 100 90 78 66 69 88 88 80 70 77 75 73 81 82 78 86 92 89 85 82 82 83 86 89 88 88 91 88 85 84 95 92 93 98 96

GFSCGP_250_rhum_054.txt.gz
RH
100 80 54 42 36 30 26 54 60 81 66 86 100 89 100 100 95 86 100 100 100 100 100 100 100 100 99 83 80 97 92 100 100 100 100 100 100 100 100 100 100 100 100 100
100 82 63 51 44 40 26 44 56 70 76 74 100 88 83 100 100 89 85 100 100 100 100 100 100 77 100 100 100 89 79 87 93 100 100 100 100 100 100 100 100 100 96 93
100 93 74 66 54 41 28 37 60 61 72 90 90 88 95 99 100 100 94 87 100 100 100 100 78 96 100 100 100 100 100 94 85 77 80 87 91 91 91 90 87 82 84 81
100 97 78 80 63 47 34 27 64 61 75 85 98 80 91 90 98 84 74 75 79 100 100 100 100 89 97 100 100 96 70 72 100 100 94 83 71 71 80 93 100 100 100 100
100 99 81 82 69 49 36 27 57 65 70 84 100 92 83 75 86 99 100 98 75 80 93 100 100 100 100 100 100 100 83 67 70 65 85 94 90 93 94 92 92 96 91 86
100 96 87 78 69 50 36 30 36 66 62 77 90 80 83 78 77 99 100 100 100 100 85 79 76 70 78 80 76 77 72 79 82 89 100 99 89 81 85 84 76 75 84 83
100 95 87 83 64 52 34 30 29 59 71 70 86 80 100 98 96 78 87 87 97 86 98 100 100 98 96 86 92 97 100 94 87 79 80 81 74 72 68 70 64 68 78 89
100 97 84 79 64 50 37 30 32 45 72 70 78 73 100 100 86 96 93 81 69 79 100 98 99 100 100 100 100 100 100 100 97 88 78 76 92 97 89 86 78 77 100 100
100 94 84 84 62 48 37 31 34 36 59 75 69 70 77 100 99 94 90 85 79 74 78 98 98 100 99 99 98 98 91 82 84 83 85 90 90 100 100 90 100 100 99 100
100 97 88 82 72 50 42 37 31 39 50 86 82 68 66 87 99 100 100 92 84 70 69 71 66 69 73 66 75 81 81 82 81 59 82 82 87 100 100 100 100 95 100 100
100 99 87 87 76 59 46 42 37 38 40 64 88 76 64 66 87 100 100 100 99 95 91 86 78 76 71 68 82 77 81 77 69 45 51 59 62 84 98 89 100 100 100 100
100 100 93 84 80 67 51 42 37 38 46 51 81 96 73 70 81 97 100 100 100 100 82 77 74 79 74 64 68 81 75 64 73 56 50 50 57 65 82 100 100 100 100 100
100 100 91 95 74 74 59 38 31 40 48 44 54 76 64 83 87 89 87 84 82 88 100 93 88 78 79 80 87 87 75 79 62 49 49 53 62 74 98 100 100 100 100 100
99 92 100 81 73 83 63 41 34 40 56 51 50 52 52 74 90 88 84 80 73 68 74 77 81 87 96 98 94 89 86 80 62 52 51 59 73 94 100 100 100 100 100 96
93 100 92 73 90 82 67 44 36 40 45 54 46 49 52 59 78 89 99 89 83 85 84 88 81 100 100 100 94 74 80 78 71 53 58 79 100 99 99 100 100 100 99 81
100 100 93 93 84 77 80 41 38 42 41 50 51 73 48 53 67 70 80 88 93 94 92 87 76 74 83 91 94 90 66 72 63 46 47 82 98 100 100 100 100 80 68 65
100 100 97 94 79 82 85 46 43 51 46 40 49 46 48 48 53 57 58 63 68 65 61 63 66 54 41 35 34 35 38 41 41 49 52 60 83 94 96 88 70 63 70 83
100 100 95 91 82 88 72 65 44 59 50 37 51 49 66 56 46 48 46 40 38 40 48 52 48 46 50 56 51 43 38 41 49 53 58 69 81 82 69 63 71 82 90 99
100 99 90 95 97 79 96 69 52 59 56 38 63 54 48 53 50 36 34 36 40 45 50 48 54 65 66 55 45 44 46 50 57 65 72 73 71 72 78 88 97 100 100 100
100 100 100 100 88 95 100 64 58 54 79 46 54 57 56 53 64 70 46 39 40 40 40 45 55 65 67 68 69 72 82 90 94 95 94 92 96 100 100 100 99 96 100 99
100 100 100 100 74 99 100 89 60 54 73 61 62 58 52 52 52 62 84 72 50 42 39 39 40 46 64 73 80 86 87 85 87 89 95 100 100 98 94 95 96 97 100 86
100 100 100 81 78 100 100 81 64 73 75 74 74 68 65 60 52 58 62 82 85 63 48 45 41 44 55 64 74 83 90 98 100 98 95 94 96 98 99 98 91 83 81 86
100 100 100 100 100 100 100 99 86 87 65 79 89 67 67 69 56 57 55 64 80 98 91 81 77 77 85 94 98 100 100 100 100 94 90 96 93 89 91 93 89 89 89 94
99 100 100 100 100 100 100 100 93 64 80 100 87 89 97 85 64 58 67 69 75 83 92 96 94 91 90 92 99 99 95 91 88 96 95 89 70 70 70 72 78 86 97 97
100 100 100 100 100 98 100 94 72 91 97 99 96 100 100 99 76 61 65 71 94 92 78 72 71 73 77 78 79 74 69 69 71 74 76 84 94 93 85 84 89 94 88 76
100 100 100 100 100 100 88 83 93 91 99 97 96 94 100 98 83 72 74 67 75 73 90 84 79 70 75 75 78 80 81 86 91 92 96 96 93 95 96 94 83 78 67 68

GFSCGP_250_rhum_057.txt.gz
RH
100 89 95 100 70 69 55 37 26 55 60 63 88 100 85 85 98 85 88 100 100 86 100 100 92 91 84 100 82 100 100 100 100 100 100 100 100 100 100 100 100 96 100 100
99 88 100 100 76 76 50 40 26 49 66 59 86 99 100 100 100 100 100 97 100 100 94 100 96 100 94 79 78 98 100 100 92 100 100 100 100 100 100 100 100 100 100 100
96 88 100 100 74 76 51 39 26 38 70 61 61 93 76 85 100 100 98 86 100 100 100 100 100 100 98 100 100 100 100 94 93 94 100 100 100 100 100 100 100 100 100 100
100 99 100 100 80 75 59 37 27 27 73 69 60 81 75 96 96 100 100 93 100 100 100 100 100 100 80 73 100 100 100 100 100 100 98 97 82 94 98 100 100 99 98 89
98 100 100 100 88 74 54 41 26 24 57 76 66 87 100 87 94 89 100 87 95 100 100 100 93 100 100 89 77 100 91 100 90 67 64 61 86 82 66 63 61 60 59 68
90 100 100 100 98 73 57 44 26 25 34 74 70 74 80 77 84 78 99 97 77 63 72 86 83 96 100 100 100 91 100 86 68 73 54 49 55 76 94 100 100 100 100 85
100 100 100 100 99 68 66 49 32 28 27 60 77 72 68 64 82 88 99 100 100 100 100 100 97 73 72 71 70 72 70 71 63 68 96 95 84 77 76 77 75 62 62 58
100 100 96 100 100 64 68 56 38 34 30 34 74 78 77 76 69 78 88 74 85 81 77 72 77 100 97 91 83 86 86 78 84 86 88 86 90 74 68 64 62 59 53 60
100 75 97 100 100 70 76 62 43 34 34 33 42 69 81 76 80 79 87 96 88 79 75 68 70 84 91 98 100 100 100 100 100 100 94 94 98 71 71 77 72 64 76 74
88 78 95 100 100 75 84 70 52 32 32 35 33 53 68 88 68 71 68 78 87 85 88 86 92 100 99 99 96 92 90 82 75 76 76 75 74 74 69 81 80 93 100 80
88 74 97 100 100 87 94 76 62 36 33 35 38 37 38 88 85 74 75 77 81 87 84 83 85 84 76 72 77 90 88 76 72 73 68 66 66 73 68 76 96 100 100 100
75 61 86 100 100 100 96 76 73 44 34 35 40 46 37 41 91 95 80 69 77 73 91 78 71 70 72 67 70 75 79 76 81 82 78 67 44 67 70 77 67 71 85 89
100 46 81 100 100 100 94 86 75 61 39 36 39 42 36 37 58 100 100 95 75 71 73 72 73 70 64 69 73 71 73 76 78 74 74 70 72 74 59 47 48 52 58 69
100 94 46 100 100 100 94 84 77 66 40 39 39 36 46 38 41 54 91 100 100 95 80 77 75 66 65 68 62 73 75 74 66 74 68 62 70 68 60 56 53 52 70 88
100 100 69 100 100 96 100 89 75 65 44 39 38 41 43 43 48 54 79 100 100 100 100 84 82 84 90 90 86 94 90 84 81 75 77 78 68 64 54 42 42 46 63 88
100 100 100 100 100 92 96 96 76 66 52 43 39 40 48 52 44 48 59 96 85 91 98 100 92 83 67 74 82 75 87 80 78 91 82 73 56 54 48 53 64 63 64 82
100 100 100 100 100 100 82 100 75 73 59 46 40 42 44 50 50 44 44 45 66 82 86 75 66 69 63 48 38 37 53 59 60 61 68 65 60 64 70 80 92 100 100 100
100 100 100 100 91 100 100 100 85 75 64 46 42 46 42 46 41 45 47 50 43 47 53 51 39 34 37 44 52 58 54 52 56 59 60 68 78 91 96 99 100 100 100 100
100 100 100 100 100 100 92 100 100 80 66 46 45 60 52 59 52 48 47 52 56 51 36 35 38 43 47 51 56 59 67 74 74 77 85 93 98 100 100 100 100 100 100 100
100 100 100 100 100 100 100 100 99 74 76 43 48 64 55 75 63 53 55 52 50 56 73 68 48 42 41 39 38 40 45 55 66 83 92 98 100 100 98 100 100 100 99 96
99 100 100 100 100 100 100 100 100 82 85 47 65 63 64 76 73 63 58 63 55 55 62 71 79 83 64 51 44 41 41 48 63 70 78 94 100 99 97 93 88 89 89 85
100 100 100 100 100 99 100 100 100 87 65 62 52 63 71 86 69 76 77 74 69 63 66 72 73 86 93 95 87 74 71 74 84 96 100 98 95 87 83 81 89 93 88 85
100 100 100 100 100 100 100 100 100 84 72 93 53 62 86 84 81 100 94 88 83 79 68 70 89 97 100 99 99 99 93 83 82 85 83 80 76 77 94 95 85 76 68 65
100 100 91 99 100 100 100 100 100 98 88 76 73 92 96 86 82 90 100 100 85 79 84 77 68 70 68 64 70 71 72 76 76 71 64 68 84 89 85 72 72 74 70 74
100 100 100 100 100 100 100 100 100 92 100 100 77 89 88 86 85 96 100 100 88 95 92 87 82 74 78 86 92 93 92 90 78 68 74 89 80 72 75 98 88 90 96 89
100 100 100 100 100 100 100 100 100 93 81 80 73 89 97 100 96 100 100 100 95 97 100 94 87 83 81 71 65 67 70 74 72 81 98 93 87 91 93 83 74 69 75 75

GFSCGP_250_rhum_060.txt.gz
RH
25 32 47 100 63 100 100 65 45 26 24 47 69 76 76 70 100 94 84 66 74 68 72 67 81 78 72 78 77 74 86 81 90 89 90 100 100 100 100 100 100 100 100 100
27 33 48 69 81 100 100 74 50 26 26 28 61 69 69 68 100 85 100 83 91 84 74 73 83 74 64 62 76 87 76 69 76 79 85 86 93 99 100 100 100 100 100 100
27 51 100 91 100 100 100 86 52 29 24 25 59 68 66 73 68 95 100 97 92 95 98 100 82 85 70 74 68 66 71 72 78 91 82 82 97 100 100 100 100 100 100 100
31 28 66 100 91 100 100 99 55 34 28 24 35 73 67 68 67 98 81 100 92 100 98 100 90 99 100 100 100 97 100 100 98 94 81 83 89 100 100 100 100 99 100 100
34 29 82 75 93 100 100 100 57 45 34 27 26 57 73 73 79 85 81 100 70 100 100 100 100 100 100 100 100 93 100 100 100 100 100 98 100 100 100 99 99 99 97 99
39 33 100 80 100 100 100 100 71 55 38 29 27 39 69 78 61 68 75 83 99 79 100 99 98 100 100 100 92 93 75 82 100 100 100 100 77 70 68 52 53 71 91 88
43 34 81 77 100 100 92 100 88 62 44 32 26 30 46 87 69 62 67 79 85 68 75 89 80 72 79 77 79 94 95 98 74 76 83 92 86 60 70 75 75 100 98 93
46 38 100 100 100 100 68 100 100 67 54 39 30 27 41 85 72 69 66 64 92 90 100 100 100 100 89 80 66 65 69 63 60 65 65 66 68 60 74 95 58 83 100 99
51 58 76 100 100 100 66 100 100 72 66 53 34 31 28 45 79 91 77 64 72 60 76 81 70 74 75 75 98 86 88 93 100 95 86 98 97 100 96 76 64 62 75 89
63 68 99 100 100 98 63 100 100 84 82 58 39 31 31 34 50 74 87 86 74 74 70 61 58 59 68 83 95 94 84 80 77 77 74 76 97 83 64 66 100 77 90 84
61 58 100 100 100 95 74 100 100 92 91 64 53 36 31 40 41 42 73 98 94 85 78 77 70 69 74 76 75 78 74 69 63 57 59 65 63 57 70 100 100 100 99 89
48 54 92 100 100 91 76 100 100 100 95 71 66 41 36 32 34 38 36 66 82 82 81 78 76 71 82 83 93 100 90 80 71 59 76 99 100 96 77 95 80 74 66 65
49 50 71 93 78 51 56 100 100 100 97 73 72 49 39 33 31 42 41 34 60 72 97 100 89 88 78 77 69 77 84 74 68 89 100 98 83 98 88 75 72 69 58 62
50 56 55 59 100 100 64 87 100 100 100 75 77 56 43 36 34 35 45 49 34 36 61 74 77 88 96 84 69 64 63 75 79 63 67 77 80 78 68 66 61 63 61 52
53 56 50 71 100 100 89 50 97 100 100 79 77 61 48 39 37 33 39 41 50 37 40 42 61 67 87 88 77 65 63 65 68 72 75 82 87 74 65 48 45 45 43 44
70 56 50 83 100 100 100 60 62 100 100 75 90 68 56 46 40 37 37 38 43 50 50 37 36 72 56 53 64 56 69 70 67 56 76 57 47 42 51 52 43 40 51 71
64 57 52 91 100 100 100 60 84 100 100 90 93 84 60 51 42 45 41 39 42 46 47 45 40 42 59 83 80 70 46 42 36 40 41 46 50 49 46 52 63 74 73 73
75 55 57 90 100 100 100 100 96 100 100 89 79 92 70 57 44 49 45 40 41 41 44 44 50 58 50 41 35 36 38 40 43 47 52 52 47 49 53 60 62 62 68 83
66 58 67 77 100 100 100 100 100 100 100 100 95 94 76 59 51 47 46 43 49 51 48 50 49 51 61 70 64 52 43 42 40 39 39 40 43 49 55 58 72 82 86 91
61 63 82 62 98 100 100 100 100 100 100 100 92 72 88 60 57 51 51 45 60 57 53 63 62 54 51 52 54 58 73 85 87 80 65 57 53 56 60 76 84 90 98 91
53 63 85 79 97 100 100 100 100 100 100 100 100 76 100 71 59 68 48 57 68 79 78 73 74 72 63 62 57 52 56 62 71 80 86 89 94 100 97 92 84 74 75 77
67 63 82 76 100 81 100 100 100 100 100 100 87 83 100 75 77 76 50 64 79 87 99 100 100 90 84 78 83 84 66 65 61 67 77 75 76 77 74 68 72 71 83 79
71 73 84 96 100 99 100 86 97 100 100 100 100 100 100 80 87 78 53 55 70 76 93 100 100 100 100 95 83 88 89 77 75 73 64 62 67 68 70 73 72 80 88 93
86 80 84 90 100 100 100 92 100 100 100 100 98 83 95 100 83 81 64 65 82 88 85 100 100 98 100 100 95 85 78 95 96 86 83 73 70 78 77 74 78 96 91 80
96 78 100 88 100 100 94 100 100 100 100 100 100 100 100 95 81 91 96 61 65 83 90 92 99 100 100 100 100 100 100 97 88 82 82 81 81 85 78 91 86 78 78 79
76 79 100 100 100 98 94 95 100 100 100 100 100 100 100 100 96 100 92 67 73 77 96 97 100 100 100 100 100 96 94 69 92 96 100 93 78 98 97 99 92 81 68 72

GFSCGP_250_rhum_063.txt.gz
RH
98 88 69 53 32 24 48 100 100 100 70 36 30 24 43 63 97 100 100 100 68 64 78 77 95 83 72 80 82 72 67 78 90 100 100 100 100 100 100 100 100 100 100 100
100 96 78 61 38 21 58 85 100 100 85 40 32 24 39 43 61 100 100 99 85 60 76 85 90 78 85 81 57 42 48 62 73 87 98 100 100 100 100 100 100 99 98 100
100 96 81 61 44 23 28 46 100 100 96 42 37 26 24 41 48 83 96 96 100 66 100 78 70 55 60 55 48 44 33 33 37 45 73 71 78 83 78 77 87 95 90 95
100 98 89 73 50 30 25 41 100 100 100 59 41 27 26 36 55 57 61 62 77 78 75 98 100 96 66 80 76 54 55 44 36 32 33 37 48 65 65 85 100 99 93 98
100 100 96 79 56 37 28 65 100 100 100 90 40 35 30 30 52 63 66 82 93 100 86 100 95 88 100 100 100 100 78 69 90 78 85 72 73 65 69 84 78 82 99 100
100 100 100 84 56 35 28 62 100 100 100 99 49 42 34 27 30 63 52 73 83 100 100 89 100 100 55 90 100 100 100 100 100 100 100 100 100 100 97 85 97 98 89 86
100 97 100 85 59 37 27 49 100 99 100 100 69 40 36 29 26 46 56 52 86 96 100 72 98 95 100 100 100 91 88 82 97 92 82 92 94 100 99 100 79 73 65 49
100 98 100 83 59 36 28 37 100 100 77 100 90 45 46 37 30 27 50 56 61 64 65 62 66 95 98 82 73 72 73 88 56 61 67 75 74 67 64 63 58 47 59 67
100 100 100 77 66 40 35 53 100 100 83 100 96 52 52 41 32 30 30 51 67 74 72 74 80 81 81 62 76 55 59 58 60 59 58 53 46 48 51 47 56 62 92 99
100 100 100 91 59 44 47 33 83 100 74 100 100 65 62 47 38 29 33 33 39 52 65 72 64 62 59 61 63 62 60 57 50 49 57 54 49 45 51 50 64 73 100 99
100 100 100 92 57 59 58 39 70 71 73 100 100 99 67 55 45 33 30 39 38 37 34 48 63 72 59 54 56 54 40 54 73 65 58 53 80 100 90 98 100 100 100 100
100 100 100 100 67 55 55 42 57 100 64 100 100 100 69 65 50 38 34 44 48 36 40 50 56 67 84 78 69 43 87 100 96 97 100 100 98 96 77 100 100 100 100 96
100 100 100 98 81 69 61 58 78 55 53 100 100 100 90 65 61 45 38 34 37 39 42 36 41 41 54 58 61 68 100 99 100 99 100 100 100 100 100 82 100 100 80 90
92 100 100 96 92 77 62 50 73 50 47 72 100 100 98 62 67 52 43 37 35 34 38 38 34 31 33 51 56 60 100 100 100 100 100 90 86 98 98 87 79 88 93 76
94 98 100 95 88 89 62 50 58 42 75 58 100 100 100 68 67 63 49 41 40 31 33 39 41 33 30 27 42 40 65 98 100 93 100 93 70 73 75 74 68 57 52 57
90 79 87 93 78 72 60 48 66 48 90 100 75 73 100 82 71 78 61 43 47 38 34 36 49 52 39 31 27 22 30 45 57 60 48 45 52 49 45 43 49 48 44 42
97 90 84 78 78 75 54 47 55 81 97 100 100 80 94 98 82 94 70 46 44 40 38 33 37 50 58 76 58 55 49 47 43 42 38 41 41 39 38 40 42 44 46 46
89 83 82 77 97 80 52 47 50 93 85 100 100 72 90 100 92 87 88 61 49 42 37 43 35 38 60 68 56 51 46 41 40 39 38 36 38 39 39 40 42 45 48 53
63 50 60 77 81 98 62 60 60 99 99 100 100 100 89 100 100 100 91 79 57 52 40 41 40 45 43 51 55 56 56 51 52 53 50 49 48 53 58 60 62 66 71 74
60 51 57 69 59 74 68 64 69 96 89 100 100 100 100 67 92 100 83 92 75 58 48 43 46 45 54 59 52 49 50 52 53 50 61 68 75 68 70 68 60 66 73 66
48 44 35 62 65 68 65 66 91 91 100 100 100 100 81 60 100 100 92 78 95 67 51 49 50 59 59 84 98 100 82 67 68 62 58 57 65 71 71 68 70 75 72 72
37 47 27 40 56 65 66 66 76 99 100 100 84 97 69 73 100 100 91 86 100 78 63 61 53 62 72 86 96 100 100 100 94 97 79 66 66 66 63 66 74 77 59 58
19 21 24 26 49 69 79 68 99 99 100 100 100 100 58 84 100 100 100 100 100 93 86 75 77 58 71 88 96 99 100 98 100 100 100 99 98 85 75 56 78 74 78 88
20 24 25 37 61 79 65 69 95 100 100 100 100 76 75 95 75 62 100 100 91 80 93 81 92 83 66 75 81 98 97 90 100 100 100 82 85 73 69 70 80 90 85 89
22 27 30 42 62 79 68 87 93 100 100 100 100 100 100 75 71 77 98 90 83 100 100 100 87 90 91 73 87 83 84 100 100 100 99 87 72 80 90 85 98 93 97 94
25 29 38 54 68 76 90 85 98 100 100 100 91 84 81 54 80 100 96 91 94 85 93 100 100 86 84 83 64 70 83 98 100 96 90 92 98 99 100 99 84 81 83 78

GFSCGP_250_rhum_066.txt.gz
RH
67 79 64 91 100 89 72 48 37 24 35 54 95 42 28 25 38 84 100 92 92 61 79 61 40 66 87 80 76 69 58 65 64 100 100 100 100 100 100 100 100 100 100 100
71 93 71 100 99 96 80 66 42 31 45 34 70 66 33 32 26 48 58 75 84 88 65 70 37 62 84 88 99 100 99 90 81 100 100 100 100 100 100 100 100 100 100 100
74 100 99 100 100 94 92 76 45 33 46 39 69 86 48 32 26 42 53 62 77 71 77 70 52 48 49 68 69 61 52 47 41 57 81 96 98 100 100 100 100 100 100 100
52 100 100 100 100 95 99 73 39 34 38 44 36 64 77 31 30 29 53 62 65 71 72 60 65 86 65 58 58 57 60 47 53 56 52 68 84 89 95 100 100 100 100 98
99 99 100 100 100 96 100 76 52 31 35 37 28 58 92 38 37 34 38 55 68 83 78 72 78 95 81 49 80 89 100 93 65 83 90 77 71 84 85 88 82 82 83 80
76 100 100 100 100 100 98 87 61 36 33 31 37 40 95 72 36 32 34 40 52 68 92 67 90 96 95 67 63 88 100 100 100 100 94 86 87 95 97 94 91 83 72 80
100 100 100 100 100 100 100 95 72 40 33 37 30 43 83 87 33 34 31 30 43 59 88 58 78 92 100 98 56 76 99 100 100 93 84 97 87 95 97 95 94 97 96 89
60 100 100 100 99 100 100 87 76 48 34 30 32 48 76 92 38 37 35 32 34 41 59 86 100 80 82 99 94 67 65 66 88 65 100 98 95 91 76 64 70 65 63 54
63 85 100 100 97 100 100 100 82 55 38 33 38 45 71 100 55 41 38 32 32 42 44 54 52 61 84 97 94 93 70 70 52 50 52 64 58 43 44 44 45 46 46 49
68 57 100 100 95 100 100 100 94 62 43 38 50 43 60 97 96 41 42 37 34 35 38 58 66 62 70 72 70 76 76 70 68 64 61 56 53 53 68 62 69 79 96 91
87 62 78 97 100 100 100 100 100 76 52 56 41 47 44 67 100 63 44 42 37 32 36 42 45 59 54 51 56 51 51 50 74 93 98 100 100 100 99 85 86 100 100 100
100 97 100 100 100 100 90 91 86 70 62 46 39 46 54 64 100 87 51 49 43 36 37 43 40 40 46 47 50 51 61 78 100 99 69 65 100 100 100 78 100 100 96 100
100 79 64 99 100 99 95 100 100 91 84 48 39 63 50 53 100 100 65 54 48 39 34 30 36 40 39 45 56 56 83 100 100 100 100 98 100 100 100 100 99 100 100 100
100 100 100 100 100 100 98 100 100 90 69 74 42 84 47 41 81 100 98 58 58 44 41 36 30 36 37 34 38 49 86 92 100 100 99 100 100 100 100 100 100 100 93 100
100 100 100 100 100 100 100 100 100 100 88 67 49 80 56 49 48 100 100 73 68 53 44 37 34 30 32 36 33 28 66 87 100 100 89 100 100 98 100 100 100 100 100 100
82 92 100 100 100 100 100 90 92 78 77 88 47 63 64 52 39 71 100 100 73 66 48 42 35 35 30 30 33 32 41 73 81 100 100 100 100 100 100 100 100 100 100 100
72 85 78 91 100 100 81 81 99 99 86 84 56 51 85 49 50 78 100 100 96 74 54 50 42 37 37 33 32 29 44 48 70 92 95 93 100 100 100 100 98 79 59 55
86 79 69 73 92 92 89 95 95 88 82 78 63 56 83 59 46 79 97 74 100 100 71 61 54 43 39 42 41 34 31 29 34 43 53 61 78 73 63 47 37 38 44 51
55 79 46 76 82 92 94 100 99 98 96 88 73 56 66 84 37 84 91 88 100 100 100 72 65 62 44 40 41 44 44 43 45 45 44 42 40 40 41 43 46 50 51 46
33 48 61 59 55 90 100 100 100 99 96 92 75 59 52 92 45 69 95 99 68 52 100 100 74 82 63 48 43 43 48 53 53 50 51 50 46 41 42 46 47 43 42 44
20 26 32 48 60 47 76 100 100 99 100 100 88 66 64 100 54 93 100 100 100 54 68 99 77 100 92 72 57 54 52 58 71 65 64 64 66 60 57 52 51 57 56 55
15 21 29 36 41 47 56 74 90 94 88 100 100 100 74 100 73 72 100 100 100 71 58 68 63 100 100 100 88 72 51 65 74 80 81 78 91 99 100 100 91 85 72 73
14 28 34 31 70 52 61 48 70 72 85 86 100 98 74 87 100 69 63 64 100 85 75 82 76 84 94 73 100 100 85 74 83 94 81 75 78 82 86 94 86 76 78 96
17 28 28 47 93 70 47 50 72 61 92 99 100 97 87 76 100 100 88 88 90 59 67 85 84 78 94 100 100 84 84 95 93 90 82 95 90 75 82 77 68 80 97 98
19 30 51 63 95 66 34 24 35 47 60 83 95 97 91 76 97 100 100 95 86 52 77 100 91 97 100 99 93 70 69 81 93 96 84 80 90 98 95 65 74 100 100 99
25 30 38 92 71 31 19 23 31 38 60 88 100 100 99 99 88 100 100 91 84 76 46 73 49 90 100 100 84 78 74 73 64 72 89 73 65 85 77 79 100 100 100 100

GFSCGP_250_rhum_069.txt.gz
RH
64 70 88 66 73 57 100 100 100 84 58 38 33 26 57 79 46 26 21 39 55 93 100 72 52 44 45 55 51 54 61 82 75 97 100 100 100 100 100 100 100 100 100 99
78 97 67 57 89 73 90 94 100 90 60 44 36 30 45 52 30 31 25 29 46 55 63 55 55 54 39 51 51 67 72 83 93 100 100 100 100 100 100 100 100 100 100 100
96 98 63 47 98 100 100 99 100 94 66 48 38 33 44 52 34 45 28 24 45 57 59 64 57 58 47 52 68 62 62 74 78 93 100 100 100 100 100 100 100 100 100 100
62 85 66 62 85 71 98 88 100 87 86 62 45 36 30 63 44 39 34 26 32 56 50 80 69 69 60 40 50 67 68 53 50 76 75 85 82 79 86 73 81 82 100 100
79 84 64 55 100 96 100 68 100 96 94 84 50 35 29 63 50 37 37 27 28 44 54 69 65 83 98 78 70 64 66 61 51 40 37 40 45 51 55 74 84 92 100 92
96 100 91 82 64 48 84 66 86 99 99 99 52 37 32 37 87 54 37 29 28 34 52 54 61 78 98 86 76 82 75 62 56 45 52 44 49 75 65 72 82 89 86 88
100 100 94 80 84 80 100 100 91 100 85 100 78 42 34 32 90 59 36 33 30 28 42 56 48 52 70 90 83 59 67 82 90 91 98 100 95 85 80 85 83 71 82 88
98 100 100 100 82 70 65 52 100 100 74 95 98 50 34 35 58 70 54 34 31 35 35 41 62 71 63 71 86 80 64 65 82 100 90 61 58 49 51 63 68 65 60 58
100 100 100 93 82 78 59 82 100 100 94 81 97 59 41 36 57 62 77 44 35 35 37 34 33 57 59 84 77 100 100 96 60 59 62 76 63 52 52 55 58 67 80 76
100 100 100 100 75 58 61 62 79 94 100 97 100 79 51 39 41 47 85 72 51 45 38 32 34 36 44 59 65 91 90 90 95 80 70 72 70 64 65 68 75 99 77 85
100 96 99 95 91 94 86 85 97 99 91 100 94 80 65 45 36 52 73 88 65 49 43 39 32 31 35 50 60 63 76 83 81 77 77 98 100 100 100 100 100 100 96 99
100 100 100 100 100 100 95 82 74 79 97 100 87 100 72 62 39 39 64 84 80 54 50 42 40 30 27 31 60 81 88 85 69 72 99 100 100 100 100 100 100 100 100 90
86 85 83 90 90 98 97 100 100 100 100 100 100 100 75 58 45 40 59 92 86 66 55 48 41 34 31 29 33 58 82 100 100 82 90 86 67 76 100 100 100 100 100 81
86 86 77 83 100 100 100 100 100 100 100 100 100 98 82 79 54 48 48 52 85 84 58 64 45 38 32 31 31 36 53 92 100 95 74 68 46 74 93 100 100 100 100 97
99 96 92 100 100 100 100 100 100 100 100 100 100 99 94 70 68 54 57 71 62 62 78 73 62 44 38 35 32 30 35 45 83 100 100 91 54 57 96 97 100 100 79 75
89 94 100 100 100 100 100 100 100 100 100 100 100 100 100 96 67 56 54 76 73 63 100 84 76 64 47 39 38 34 32 40 36 86 96 100 100 91 72 96 100 100 100 100
71 74 82 94 98 100 94 82 100 100 100 100 100 100 100 96 67 58 55 61 96 97 80 100 97 87 56 45 44 39 38 33 39 41 44 82 100 100 100 100 100 100 100 100
48 55 61 65 84 92 91 94 100 100 100 100 100 100 100 99 86 68 61 59 72 74 72 98 100 100 92 55 59 56 38 39 40 40 66 93 100 100 95 96 92 89 89 93
35 44 48 44 60 61 68 81 90 100 100 100 100 100 100 100 91 74 59 61 64 63 78 81 100 100 100 99 71 75 67 53 40 42 58 60 48 44 41 39 38 38 40 42
26 30 38 46 32 46 53 84 100 98 72 100 100 94 92 92 77 76 84 62 63 58 48 66 90 89 99 100 96 93 92 79 71 63 47 38 34 38 42 49 49 47 42 40
20 22 26 35 28 30 57 76 95 86 84 100 90 86 98 100 100 100 91 70 62 67 52 76 92 72 58 63 83 100 100 100 100 100 82 65 62 54 50 57 57 56 57 62
16 17 24 27 24 40 41 62 78 81 81 99 100 96 91 90 98 87 89 82 69 93 68 41 97 100 90 71 47 64 97 100 100 100 100 87 84 76 70 75 67 66 73 69
20 18 16 17 28 39 37 37 49 57 70 81 94 91 100 100 100 94 79 76 93 94 89 54 57 85 82 65 56 39 51 78 79 78 76 78 69 62 52 53 62 66 72 69
20 20 15 13 21 32 27 37 41 40 38 53 68 76 85 97 100 98 100 100 100 99 100 72 63 81 87 85 93 63 51 61 76 83 91 94 89 63 55 62 66 66 75 73
26 17 14 12 16 21 33 34 46 36 25 31 36 49 59 77 96 98 93 100 100 99 96 100 90 99 85 95 96 81 58 66 76 57 65 90 93 84 78 83 85 73 76 75
26 16 14 18 17 14 29 53 45 39 32 33 35 37 54 66 76 86 100 99 100 100 97 91 100 100 100 100 100 98 79 70 66 48 49 69 96 100 100 95 92 77 83 80

GFSCGP_250_rhum_072.txt.gz
RH
100 71 100 99 80 73 73 67 59 66 74 99 75 46 31 33 32 37 66 56 28 22 25 45 52 54 48 44 44 46 80 99 94 96 94 100 100 100 100 100 100 99 100 100
100 79 100 100 96 86 79 58 85 95 84 100 92 68 57 37 33 30 45 67 33 24 24 43 51 61 57 53 41 34 38 75 91 81 80 87 99 100 88 99 100 100 100 100
99 88 100 100 99 100 92 55 65 90 67 100 90 93 75 42 32 34 46 77 39 26 26 48 57 61 67 46 43 59 70 65 91 92 86 80 75 83 100 100 100 100 100 100
86 96 100 100 100 95 88 62 57 73 79 95 95 98 88 53 36 34 39 65 53 28 24 46 63 86 93 64 46 52 74 75 70 88 92 87 70 78 90 93 100 100 100 100
100 100 100 100 100 90 100 68 46 46 70 88 61 99 86 88 44 33 35 54 76 31 27 38 50 76 100 100 96 63 62 64 69 61 71 73 84 100 100 96 98 100 100 100
99 100 100 100 100 100 92 66 58 58 52 88 86 100 87 84 50 35 39 62 75 36 32 29 45 57 67 100 100 96 76 68 66 66 64 66 84 91 89 94 96 98 100 99
73 82 97 100 100 100 98 90 69 70 60 93 57 100 93 100 63 39 40 57 50 59 33 31 35 53 60 81 93 99 100 88 92 74 62 63 63 74 82 82 81 81 80 89
69 54 55 94 100 100 90 80 42 80 62 49 58 100 100 100 86 47 39 57 46 72 50 33 32 34 43 57 59 76 71 83 98 100 96 86 91 95 87 86 83 77 83 88
80 100 100 100 100 100 100 91 77 70 65 62 100 100 100 100 100 56 42 52 58 67 77 36 34 34 37 50 59 63 61 58 71 69 95 100 100 92 67 78 71 61 54 50
72 68 92 96 84 68 71 86 90 74 75 80 78 100 100 98 100 71 47 44 53 64 93 50 32 37 35 35 47 63 69 68 79 64 65 78 67 63 87 64 60 73 70 63
100 100 100 100 100 100 100 100 100 100 82 67 78 97 100 99 100 98 58 50 44 52 71 82 35 33 37 34 32 42 63 74 92 94 67 75 85 80 71 74 69 74 98 100
100 100 100 100 100 100 100 100 100 92 93 78 87 100 100 100 100 100 72 65 52 45 77 90 73 28 34 35 36 33 40 62 81 85 97 91 81 78 70 70 75 84 97 91
100 100 100 100 100 100 100 100 100 99 93 70 82 100 100 100 100 100 90 69 63 59 58 81 98 42 29 39 36 35 36 39 60 72 74 76 77 66 65 88 90 92 87 75
100 91 96 100 100 100 100 100 100 100 100 93 73 100 100 100 100 89 92 83 71 56 59 66 100 62 41 41 44 35 35 38 46 70 84 62 49 58 67 83 91 88 92 71
86 95 95 82 90 100 90 93 90 91 93 74 97 83 100 100 65 85 100 95 91 62 56 72 100 98 54 40 56 45 42 33 36 44 66 79 75 55 58 56 56 64 71 62
69 72 81 88 81 80 91 84 72 88 93 78 81 100 100 100 100 100 100 100 100 84 58 68 92 100 93 49 50 65 47 44 36 35 39 57 90 93 66 51 63 64 52 60
100 98 94 92 94 95 100 94 83 86 87 92 91 100 100 100 100 100 100 100 100 99 65 85 95 100 100 84 73 75 65 58 52 49 35 36 40 61 90 94 91 90 92 98
69 84 88 89 100 100 100 100 100 100 90 100 100 100 100 94 100 100 100 100 100 100 81 67 87 100 100 100 100 96 98 78 71 64 60 47 43 57 70 75 81 81 74 56
35 37 39 42 57 66 80 100 100 98 85 93 96 100 100 100 100 83 88 100 100 99 100 83 71 73 89 100 73 100 100 100 100 97 81 68 64 63 54 47 45 42 42 42
30 31 33 32 30 36 58 81 79 80 88 98 79 95 100 100 100 100 100 87 100 100 98 96 68 71 70 91 89 84 100 100 100 100 99 92 79 79 81 73 62 57 55 52
26 25 26 26 30 32 50 61 50 47 72 70 65 67 87 93 98 100 100 100 96 74 91 89 75 78 70 82 87 75 73 88 87 81 100 100 100 100 100 96 76 68 69 59
22 22 20 22 24 32 36 38 36 28 43 69 69 66 70 82 100 99 100 100 100 92 96 90 89 59 62 72 82 79 70 74 64 77 61 54 72 99 96 92 97 99 98 87
19 18 18 18 22 23 30 30 33 31 34 44 56 70 68 75 96 100 100 100 100 93 92 94 76 75 67 93 98 90 71 60 86 74 61 50 39 45 42 48 70 78 77 81
23 19 14 13 16 16 17 23 31 27 27 36 46 58 77 82 92 93 100 100 99 100 100 90 88 72 79 100 100 100 86 73 59 48 83 62 60 58 54 52 60 72 54 54
24 19 17 16 17 13 16 18 23 23 22 27 42 59 60 73 80 93 83 95 100 98 100 100 100 86 100 100 91 100 100 96 78 68 71 72 78 93 74 65 67 71 67 62
29 24 21 22 18 20 24 15 16 22 24 23 31 47 49 46 46 56 79 98 97 100 98 100 100 100 100 100 100 100 100 100 96 94 100 100 97 94 96 82 74 83 96 98

GFSCGP_250_rhum_075.txt.gz
RH
94 100 99 100 98 64 81 89 84 44 41 84 86 99 90 92 62 44 29 42 45 42 35 23 25 45 51 51 58 51 58 88 88 100 100 100 100 100 100 100 100 100 100 72
79 100 100 100 99 80 84 100 92 58 54 73 67 100 68 89 83 72 32 36 45 59 57 27 25 35 46 49 48 46 39 53 77 86 99 100 100 100 100 100 100 79 100 99
93 98 100 100 94 88 83 100 96 54 64 59 54 86 89 77 100 84 56 32 38 75 82 34 26 29 43 46 51 50 41 53 53 69 85 92 100 100 100 100 100 100 100 100
84 84 100 100 100 100 87 100 80 56 73 51 43 95 60 93 100 82 63 37 35 74 81 44 26 28 42 63 59 43 45 60 65 61 76 87 90 93 100 100 100 100 100 100
98 100 100 100 100 99 58 69 100 100 69 67 56 48 99 75 100 68 92 54 38 54 74 62 32 28 41 73 82 56 61 71 80 78 85 84 76 92 96 95 99 96 100 95
100 100 100 100 100 80 74 100 100 100 49 71 77 50 100 62 92 82 100 64 41 44 57 86 46 32 30 51 77 81 83 79 76 71 71 71 74 98 100 100 100 100 98 93
100 100 100 100 99 81 94 100 100 94 69 87 79 57 100 60 96 93 97 95 46 48 60 64 70 38 30 38 58 73 94 89 97 100 91 80 70 75 82 97 100 100 100 100
100 100 100 100 93 100 100 100 73 77 91 65 71 84 87 79 87 100 100 100 61 46 62 48 83 53 33 32 35 57 65 74 82 100 100 100 100 100 98 100 100 100 100 100
100 100 91 84 88 96 96 84 84 48 43 42 64 100 100 92 72 100 79 100 88 48 46 61 44 96 54 33 31 32 39 57 85 81 90 100 100 100 100 100 100 100 100 100
100 87 82 63 62 71 69 58 71 52 39 42 82 92 100 100 89 100 84 91 100 63 45 51 53 65 89 41 31 32 31 38 55 59 70 88 92 100 100 100 99 92 84 83
91 75 94 100 93 100 89 63 55 76 83 93 68 55 100 100 99 100 100 100 100 100 59 55 58 56 94 71 41 36 32 33 41 57 64 94 78 64 90 100 100 81 78 78
100 98 54 58 48 62 51 74 89 59 60 94 98 100 100 100 100 100 100 94 86 100 70 56 62 58 88 86 49 40 34 34 35 56 64 66 85 89 75 60 62 60 60 71
94 100 100 100 100 100 100 100 100 100 100 100 100 100 100 100 100 77 77 86 74 78 64 74 66 64 66 72 74 50 43 35 35 37 50 63 65 78 87 94 86 78 69 72
96 92 100 100 100 100 100 100 100 100 99 100 100 100 100 100 100 89 61 89 89 70 79 95 91 67 58 66 99 56 49 46 41 37 38 39 54 69 89 78 78 88 99 100
77 97 76 72 97 96 95 100 100 100 100 100 100 100 100 100 100 100 79 83 100 86 91 100 100 80 64 76 95 91 58 41 53 46 44 36 35 42 51 57 56 63 71 90
100 100 70 54 91 100 100 90 100 100 100 100 100 100 100 100 100 100 100 87 96 100 95 100 100 86 79 97 100 100 100 58 53 59 48 50 45 38 43 54 60 54 74 64
91 95 100 100 92 89 96 99 77 73 88 91 85 99 100 100 100 100 98 100 100 96 100 100 100 100 68 87 88 100 90 98 93 85 82 63 46 49 53 44 48 61 80 73
92 92 80 79 77 72 97 98 89 78 76 76 70 67 96 99 100 92 96 100 100 67 97 100 100 100 100 73 78 90 100 100 88 94 96 98 83 64 56 57 57 61 54 53
76 89 92 90 90 90 90 94 87 86 93 81 80 78 78 88 94 99 100 100 100 100 100 97 92 99 100 78 72 93 82 98 100 100 80 97 100 100 81 72 70 67 72 74
52 64 76 79 89 99 100 100 100 94 100 100 91 86 93 89 83 91 100 100 100 100 100 100 94 96 100 100 87 77 83 83 77 74 100 84 89 100 100 100 97 88 77 76
37 40 36 34 34 45 60 53 62 79 88 86 96 89 81 78 70 90 88 100 100 100 100 100 98 93 87 95 98 89 86 99 98 78 91 100 98 78 94 100 100 100 100 100
30 28 28 27 29 32 32 30 36 36 40 46 47 54 55 70 82 98 100 90 100 100 100 100 100 100 98 100 100 100 93 85 95 74 75 100 92 100 91 88 91 81 71 76
24 22 23 25 26 26 27 28 30 34 36 37 36 37 60 59 69 83 97 89 100 96 100 100 100 100 100 100 100 100 99 94 100 100 92 88 93 100 100 99 86 98 82 79
19 20 23 24 24 23 22 23 22 26 30 30 34 35 38 46 49 65 89 93 90 94 95 93 100 100 100 100 100 100 100 100 100 100 100 100 100 100 100 100 92 81 71 63
18 17 17 17 18 18 18 16 18 19 23 27 26 26 30 38 42 48 57 73 82 88 94 99 100 95 100 100 100 100 100 96 100 96 100 100 100 100 100 100 100 100 100 100
25 25 22 20 23 21 17 12 12 13 16 21 25 22 24 28 34 40 52 58 57 71 82 89 99 89 86 100 100 100 100 100 100 100 100 100 100 100 100 100 100 100 100 100

GFSCGP_250_rhum_078.txt.gz
RH
100 100 98 100 100 96 56 99 88 70 33 43 56 74 76 53 72 45 54 65 31 32 38 49 37 24 24 42 42 54 69 53 71 96 91 100 100 100 100 72 88 100 92 97
100 100 100 100 100 100 81 100 98 71 40 44 62 93 66 56 72 43 76 64 42 38 36 64 56 30 23 32 46 50 56 55 50 92 90 99 100 100 100 100 64 92 100 100
100 100 100 100 100 100 100 100 100 94 49 51 79 89 67 46 53 36 96 50 42 44 36 54 72 46 25 30 45 59 65 55 49 59 96 92 100 100 100 100 100 96 83 100
100 96 100 100 100 100 97 96 100 96 48 58 98 90 72 49 52 47 69 54 70 49 37 39 85 74 32 25 43 53 63 72 67 46 81 95 94 100 100 100 100 100 100 100
99 100 100 100 100 100 100 71 100 96 76 98 86 70 82 65 74 58 42 49 99 72 44 38 66 88 49 28 31 56 63 80 100 79 73 90 98 90 100 100 100 100 100 100
100 100 100 100 100 100 100 63 100 100 91 100 100 70 99 85 83 65 39 59 100 67 46 40 45 77 69 45 29 36 52 92 76 79 85 77 74 96 100 100 100 100 100 100
100 100 100 100 100 100 100 88 56 100 92 100 100 83 100 99 88 73 43 43 100 99 49 45 36 45 82 66 42 30 37 54 94 66 68 75 79 73 68 70 91 100 100 100
100 100 100 95 100 100 100 100 79 68 58 100 100 82 100 100 96 78 70 48 74 84 75 53 40 40 47 89 57 34 30 36 68 69 78 90 78 74 74 72 78 92 96 100
100 100 100 100 100 100 100 100 97 74 61 54 67 66 100 100 93 93 100 54 51 49 94 91 40 41 38 50 93 46 33 30 36 57 80 77 90 100 81 83 88 100 100 100
100 100 100 100 96 100 100 100 97 75 63 69 100 90 98 100 97 74 87 86 92 78 58 100 88 32 45 50 62 94 45 31 29 33 57 84 77 97 100 94 92 98 100 100
100 100 96 100 100 100 100 100 98 96 88 78 96 76 63 100 84 68 88 100 74 83 62 47 86 79 38 47 58 74 83 41 32 29 33 51 65 72 82 100 100 100 100 100
100 100 100 100 100 100 100 100 97 78 66 87 76 64 62 100 100 81 100 100 97 70 59 52 48 92 91 57 50 66 74 74 43 35 31 32 43 56 69 74 73 86 100 100
100 100 100 100 100 100 99 87 67 56 47 58 43 65 98 87 78 98 74 63 100 83 74 65 67 61 100 74 56 49 71 82 64 44 37 31 31 38 58 77 89 90 83 93
99 100 100 100 100 100 96 88 98 100 86 44 45 74 54 51 96 100 100 100 100 100 98 75 70 81 81 73 70 53 66 73 99 66 47 42 40 33 31 38 54 70 93 94
100 100 96 100 100 100 100 100 99 82 64 59 47 60 78 95 100 100 100 100 100 100 89 71 63 87 57 80 100 100 44 76 88 100 77 57 54 48 39 33 31 38 70 86
100 100 99 100 100 100 100 100 100 100 100 100 100 100 100 100 100 100 100 100 100 100 100 100 78 65 85 63 60 100 83 46 86 94 100 100 94 74 68 52 38 37 36 50
99 100 98 79 80 77 73 89 100 84 79 96 100 100 100 100 100 100 100 100 100 100 100 100 66 60 75 97 82 72 100 68 52 95 85 99 98 91 100 94 74 46 40 43
93 91 77 74 77 66 78 90 91 87 91 81 73 68 83 100 100 100 100 98 99 100 100 100 85 72 100 100 100 92 90 68 94 73 94 98 100 100 96 82 94 99 66 47
95 100 100 84 66 66 68 69 80 71 72 71 62 56 72 65 84 100 96 67 88 90 87 100 92 80 58 90 100 100 71 67 67 95 71 100 99 100 100 100 100 94 100 100
79 76 84 82 77 78 99 91 90 100 100 95 90 75 59 59 62 67 72 71 76 73 73 84 95 79 100 100 100 100 100 78 86 100 76 62 94 89 100 100 100 100 100 99
84 87 93 94 96 96 81 72 74 83 86 88 87 86 85 84 78 77 76 72 83 94 100 100 100 88 100 100 100 100 100 98 100 100 100 61 71 83 100 91 96 100 100 100
64 73 85 93 90 93 84 82 79 81 86 87 90 84 77 73 78 84 95 94 99 100 100 100 100 100 100 100 100 100 98 95 100 100 100 94 99 86 76 84 95 100 100 100
48 49 50 49 44 45 45 46 55 74 85 88 94 93 92 95 88 73 79 98 100 98 94 97 100 91 91 100 100 100 100 100 100 100 100 100 100 100 100 100 94 76 94 100
34 33 35 35 35 34 30 32 33 33 36 38 40 40 37 36 35 36 34 40 54 76 95 94 85 91 90 100 98 100 100 100 100 100 100 100 100 100 100 100 100 100 100 86
30 30 29 28 27 25 23 26 25 25 27 29 29 29 28 28 29 30 30 30 35 40 46 66 83 81 89 94 90 95 99 100 100 100 100 100 100 100 100 100 100 100 100 100
26 26 27 28 25 22 19 19 20 18 20 22 22 22 21 21 24 26 26 27 28 29 36 44 53 66 82 79 75 83 93 97 100 100 100 100 100 100 100 100 100 100 94 88

GFSCGP_250_rhum_081.txt.gz
RH
26 29 28 33 71 100 100 100 100 100 100 100 82 47 50 37 31 31 47 72 52 62 37 40 36 46 39 25 24 27 35 39 38 70 100 74 100 100 98 99 100 100 100 100
25 30 30 48 100 100 100 100 100 100 100 100 86 60 80 52 32 34 38 54 46 74 36 38 39 44 42 27 24 33 38 39 39 60 66 100 67 100 100 100 100 100 100 100
26 40 58 88 100 100 100 100 100 100 100 100 92 59 97 74 32 41 42 47 45 58 69 44 42 38 42 33 24 35 50 49 47 52 58 87 90 100 100 100 100 100 100 100
44 69 100 100 100 100 100 100 100 100 100 100 100 75 93 79 39 43 51 56 39 35 86 59 39 41 52 41 29 29 51 63 55 50 49 84 100 100 100 100 100 100 86 91
96 98 100 100 100 100 100 100 100 100 100 82 100 85 100 74 40 39 56 56 40 35 50 69 36 35 45 53 47 30 38 49 52 44 45 68 100 100 100 100 100 100 100 100
100 100 100 100 100 100 100 100 100 100 100 61 100 100 100 98 50 45 64 68 47 34 40 100 36 33 40 47 51 49 30 43 67 59 52 47 100 100 100 100 100 100 100 100
100 100 100 100 100 100 100 100 100 100 100 86 100 100 100 100 91 95 78 79 56 49 54 65 41 46 28 32 55 59 40 29 35 54 54 46 47 92 100 100 100 100 100 100
100 100 100 100 100 100 100 100 100 100 100 98 100 100 100 100 100 100 100 71 49 65 48 31 32 89 75 36 42 55 63 51 32 28 48 49 53 46 54 93 100 100 100 100
100 100 100 100 100 100 100 100 100 100 100 100 78 100 100 100 100 100 100 67 40 59 99 56 31 63 100 73 43 45 66 66 40 30 28 36 50 61 66 64 70 78 80 92
100 100 95 100 92 96 100 100 100 100 100 85 74 62 100 99 100 100 100 81 44 34 58 68 42 48 41 40 70 48 40 70 66 40 31 28 30 46 49 70 74 60 61 63
100 100 92 70 56 82 100 100 100 100 100 100 79 96 97 82 85 100 100 75 47 38 51 100 47 45 62 41 49 68 44 45 67 71 42 35 28 31 44 58 80 97 90 67
82 100 100 100 100 87 100 100 100 100 100 100 100 100 100 92 89 100 100 100 82 43 44 95 39 60 82 44 47 49 60 36 46 72 64 44 38 30 29 39 53 64 100 100
93 100 100 90 98 100 100 100 100 100 100 100 100 100 100 100 100 100 100 100 77 52 32 24 52 69 92 53 54 40 65 52 40 54 85 65 47 42 40 32 30 43 55 71
100 81 97 100 100 100 100 94 100 100 100 100 100 96 93 86 80 100 100 100 90 56 35 32 57 73 100 74 73 47 40 43 78 75 54 91 82 58 50 48 42 30 30 53
100 100 90 100 91 83 100 100 86 94 100 100 100 94 87 79 81 78 84 99 98 55 44 96 86 66 62 80 67 48 43 46 66 100 77 44 79 100 82 60 59 60 47 35
100 100 100 100 100 93 84 100 100 100 100 100 100 100 97 92 72 72 66 81 59 91 100 100 100 71 99 100 97 97 69 54 48 50 100 100 49 64 100 100 100 86 100 91
100 100 100 100 100 100 100 100 100 100 100 100 100 94 87 85 78 74 71 80 99 100 100 100 100 100 93 84 80 79 76 68 52 50 89 87 99 98 77 92 80 66 77 91
100 100 100 100 100 100 100 100 100 100 100 100 100 100 100 100 100 100 100 100 100 100 100 100 100 100 100 100 100 94 69 68 60 65 94 98 100 94 89 98 89 100 100 97
96 100 100 100 100 100 82 85 100 100 100 100 100 100 98 100 100 100 100 100 100 100 100 100 100 100 100 100 94 79 82 81 66 98 100 91 100 71 77 100 100 89 97 85
100 100 92 99 100 100 99 100 100 100 95 94 96 89 89 100 100 97 100 91 84 84 86 82 95 95 90 89 92 86 71 91 66 74 100 91 90 63 99 100 100 100 87 83
97 98 100 90 73 93 100 100 100 100 79 64 61 65 62 64 68 79 85 80 75 82 76 71 88 96 86 67 71 66 67 89 83 63 79 100 100 100 98 91 100 100 100 100
98 100 100 100 96 86 76 71 86 85 83 80 74 67 68 59 56 56 56 52 52 59 71 75 85 80 72 78 79 89 95 94 98 98 74 66 73 79 98 89 97 100 100 100
84 95 100 100 99 88 90 94 90 90 92 96 93 89 90 88 84 77 78 68 62 62 67 68 62 73 75 93 100 100 99 100 100 100 100 100 97 68 53 65 78 100 100 100
70 68 86 85 98 95 92 89 81 76 75 73 73 70 66 68 65 60 56 61 64 62 65 68 68 66 73 74 82 86 99 100 100 100 88 100 100 100 94 65 56 58 87 94
45 74 87 92 90 78 77 79 82 79 70 63 57 50 46 46 47 47 46 45 46 46 44 43 45 45 45 53 56 61 66 78 98 100 100 100 100 100 100 100 94 74 69 64
24 30 42 47 53 55 45 50 43 41 39 32 29 29 28 27 27 28 28 28 27 27 28 28 29 31 31 30 32 35 39 48 70 90 100 100 100 100 100 100 100 100 100 100

GFSCGP_250_rhum_084.txt.gz
RH
41 28 19 20 21 26 34 30 39 38 39 39 80 100 86 96 100 66 38 28 33 40 36 52 45 43 31 31 30 22 17 19 26 39 86 97 100 85 100 100 100 100 100 100
19 14 20 21 23 26 30 37 38 38 47 75 100 100 100 100 100 66 35 31 35 43 32 48 44 49 32 35 33 23 20 23 25 33 68 92 100 83 91 100 100 100 100 100
14 16 18 23 24 25 40 42 52 72 100 92 100 100 100 100 100 76 40 33 32 42 39 27 40 43 30 32 35 26 23 28 29 35 45 78 100 100 86 100 100 100 100 100
12 15 19 23 33 46 46 85 100 100 100 69 89 100 100 100 100 76 42 38 36 40 48 31 26 39 32 31 35 36 25 28 36 39 43 63 83 100 87 100 100 100 100 100
16 20 21 24 70 85 82 100 100 100 100 82 91 100 100 100 100 86 57 46 49 44 47 39 26 82 54 25 29 32 35 27 35 44 44 51 67 89 100 100 100 100 100 100
38 34 42 46 62 68 100 100 100 100 100 64 100 100 100 100 100 89 67 61 61 54 54 42 28 87 22 29 52 35 31 33 30 37 46 47 49 54 100 100 100 100 100 100
64 97 100 92 99 100 100 100 100 100 96 72 100 100 100 100 100 92 78 74 82 89 66 47 39 29 24 53 100 50 39 32 33 28 31 40 44 42 84 100 100 100 100 100
100 96 100 100 99 100 100 100 100 100 100 96 100 100 100 100 100 94 85 98 100 100 99 64 33 54 32 29 97 53 43 40 33 37 30 28 41 39 49 95 100 100 100 100
98 100 100 100 100 100 100 100 100 100 100 100 100 100 91 100 100 100 95 93 100 100 100 99 46 68 47 32 45 28 31 40 39 34 35 33 30 32 43 50 98 100 100 100
97 100 100 100 100 100 98 100 100 100 100 100 100 97 90 100 100 100 100 100 100 100 98 98 73 39 45 35 34 45 35 39 33 41 36 36 36 30 29 48 43 65 95 100
100 100 100 100 100 100 100 100 100 100 100 100 100 100 100 100 100 100 100 100 100 95 98 79 54 42 78 67 35 65 65 41 36 41 38 36 36 37 30 29 38 52 55 54
98 100 100 100 100 100 100 100 100 100 100 100 100 100 100 100 97 81 100 80 100 100 91 62 47 63 73 62 31 42 74 50 44 39 35 41 52 44 38 38 38 31 44 67
96 100 100 100 100 98 100 100 97 100 100 100 100 100 100 100 99 67 78 100 100 100 83 68 60 59 51 32 26 34 76 80 37 40 35 38 84 85 58 46 41 41 34 30
100 100 100 100 100 93 100 100 94 90 100 100 100 100 100 100 100 92 87 97 100 100 98 79 57 53 53 31 26 41 54 39 47 66 44 43 54 100 81 68 56 51 50 45
100 100 100 100 100 100 100 100 94 83 98 100 100 100 100 100 100 100 99 91 86 86 84 90 92 72 72 48 35 38 61 91 100 59 46 43 39 54 98 100 72 99 100 95
100 100 100 82 100 100 100 100 100 100 98 90 90 100 100 100 85 100 100 100 100 100 100 98 100 100 88 51 100 100 100 45 64 82 68 55 52 48 41 91 99 70 82 82
100 100 100 99 64 99 100 100 99 93 100 100 100 99 91 77 78 98 100 100 100 99 92 91 97 83 94 74 95 100 100 67 84 99 100 99 72 61 50 41 74 100 100 81
99 100 100 100 100 79 100 100 100 100 100 83 100 100 100 100 100 100 100 100 98 97 95 88 78 65 58 56 99 88 64 98 85 100 100 98 81 62 51 52 55 100 100 88
92 100 94 100 100 100 79 82 99 100 100 68 67 100 100 100 100 100 100 100 100 98 84 80 86 96 100 100 100 100 100 100 100 100 100 100 76 66 58 54 57 68 95 88
92 86 87 99 100 100 100 100 89 100 100 100 100 100 100 100 100 86 94 100 100 100 100 100 100 100 100 100 100 100 100 100 99 82 84 89 90 75 57 51 51 60 53 83
94 84 80 84 97 100 100 100 100 100 100 100 100 100 100 100 100 100 100 100 100 100 100 100 100 100 100 100 100 100 95 82 69 60 60 71 81 76 65 70 61 70 75 85
82 99 91 78 73 90 82 94 96 100 100 100 100 100 100 100 100 100 100 100 88 100 100 100 100 100 100 100 100 98 92 73 69 73 70 63 75 70 74 82 83 64 67 75
99 99 100 100 94 82 81 91 98 92 100 100 100 100 100 99 83 72 61 61 53 74 76 73 75 69 58 71 74 71 74 63 66 76 96 86 75 93 87 97 97 99 83 62
79 92 100 100 100 100 100 89 88 81 82 88 94 92 80 64 68 56 50 62 58 59 62 60 56 56 61 58 55 53 70 82 86 75 72 77 77 80 81 100 100 100 100 100
69 90 98 100 100 100 99 92 90 85 85 76 72 70 70 80 86 77 78 80 82 85 81 76 68 63 65 68 64 56 56 55 53 58 61 68 74 74 78 84 97 100 100 100
23 53 96 99 99 99 90 94 88 82 93 91 83 79 74 73 69 65 64 64 64 65 74 65 60 54 46 42 39 39 38 41 45 47 47 42 46 50 53 57 61 87 100 96

GFSCGP_250_rhum_087.txt.gz
RH
91 76 76 67 51 39 32 37 30 23 32 26 27 32 39 37 36 100 100 100 100 80 44 30 30 27 26 26 25 22 21 19 18 18 21 24 69 98 98 66 72 58 66 80
73 63 60 47 41 28 29 27 21 23 38 33 29 30 36 50 76 100 100 100 100 81 36 35 34 29 21 24 23 24 27 23 21 24 25 23 34 83 100 82 97 74 70 100
76 90 74 35 26 33 25 20 22 22 84 23 27 29 88 100 71 94 100 100 100 77 38 37 36 34 21 37 25 24 27 27 23 25 33 32 30 65 100 94 66 86 96 100
94 66 55 33 28 23 18 18 21 22 30 34 30 40 100 100 98 86 100 100 100 84 42 45 36 35 25 51 70 27 28 30 27 25 41 43 41 59 98 100 82 86 95 100
57 51 46 36 28 16 17 18 21 29 39 41 34 33 100 100 100 100 100 100 100 84 45 45 34 38 33 54 20 28 41 27 32 30 29 48 51 54 88 100 96 100 100 100
56 43 44 32 20 15 20 21 34 34 46 29 53 48 100 100 100 95 99 100 100 91 67 45 40 46 45 34 24 37 91 31 30 32 30 29 45 49 59 99 100 100 100 100
65 49 42 24 19 18 26 38 41 39 39 48 62 46 100 100 88 74 79 100 100 100 78 54 53 62 67 42 35 23 60 22 29 28 33 31 29 43 53 72 100 100 100 100
52 56 39 22 24 42 56 59 83 78 92 76 79 44 100 100 100 78 66 93 100 100 100 74 97 99 93 48 39 36 28 28 25 30 27 33 32 30 38 48 67 100 100 100
53 44 26 43 43 81 79 89 100 100 98 79 75 76 100 100 100 100 84 77 97 100 100 100 100 100 100 70 58 43 32 28 24 33 30 28 30 35 28 31 40 56 100 100
46 35 33 82 98 100 100 100 100 100 100 100 97 96 100 100 100 100 100 100 99 88 100 100 100 100 100 88 76 44 43 34 28 24 26 31 31 28 38 29 29 36 65 100
42 36 51 94 100 100 100 100 100 100 100 99 100 100 100 100 100 100 97 100 100 90 88 100 100 100 100 93 75 54 96 48 33 33 23 25 27 32 39 47 32 30 36 49
37 81 75 100 97 100 100 100 100 100 100 100 100 100 100 100 100 100 100 100 100 100 100 100 100 100 100 97 65 51 70 47 36 26 37 32 24 28 40 100 68 41 34 33
49 100 86 99 100 100 100 100 100 100 100 100 100 100 100 100 98 100 100 100 100 100 100 100 99 99 99 86 52 54 51 49 35 26 45 32 40 30 28 38 80 51 53 39
67 99 93 100 100 100 100 100 100 100 100 100 100 100 100 100 100 100 70 60 82 100 100 98 78 74 77 61 63 65 76 63 34 27 28 78 70 43 33 34 31 48 58 58
88 96 100 100 100 100 100 100 100 100 100 100 100 100 100 100 100 100 100 97 54 81 100 99 71 64 64 66 79 98 86 68 52 42 53 92 57 42 40 43 37 39 46 37
97 100 100 100 100 100 93 100 100 100 100 100 100 100 100 100 100 100 100 70 64 63 55 55 91 80 83 87 78 66 62 82 68 94 100 100 99 48 71 76 55 40 61 51
94 98 97 100 100 100 100 100 100 100 100 100 100 100 100 100 100 100 100 100 100 95 78 86 100 100 100 100 100 100 100 100 88 87 63 100 95 52 64 83 91 82 85 60
95 98 100 100 100 100 100 100 100 98 99 100 100 100 95 93 100 97 100 100 94 86 80 68 62 100 100 100 82 88 90 86 74 73 61 83 85 71 99 100 100 100 84 67
93 94 99 100 87 100 99 100 99 79 100 89 78 90 85 97 100 100 100 93 72 67 69 78 100 89 100 96 94 100 100 98 74 66 60 64 98 99 98 100 100 100 91 80
80 82 91 100 97 94 100 100 100 100 100 90 100 100 100 100 100 100 100 73 100 100 100 100 100 100 100 100 100 100 76 58 41 44 70 88 100 100 100 98 100 100 100 82
54 70 86 100 100 100 100 100 100 100 100 100 90 97 100 100 100 100 100 96 80 100 100 100 100 97 94 96 86 88 96 100 100 100 100 100 100 100 100 100 88 78 89 95
38 74 84 99 100 100 100 100 88 94 92 100 100 100 100 98 100 100 96 88 85 100 100 100 100 100 100 100 100 100 100 100 100 100 100 100 100 100 89 79 80 83 77 71
35 59 95 100 99 100 100 100 100 82 95 100 100 100 100 100 98 98 61 54 58 96 100 100 100 100 100 100 100 100 100 100 100 100 100 97 84 77 75 58 55 55 73 69
28 41 95 98 100 100 99 100 100 100 100 100 100 100 100 100 100 100 100 100 100 100 100 100 100 100 100 100 100 100 100 98 89 76 80 88 79 74 74 55 65 85 92 90
24 26 47 99 100 100 100 100 100 100 97 100 100 100 100 100 100 100 100 100 100 100 100 100 100 100 76 83 77 64 55 42 46 64 70 62 58 54 55 62 72 71 64 67
26 26 31 84 100 100 100 100 91 78 76 85 93 100 98 99 100 100 97 78 59 75 89 95 97 88 89 93 65 74 90 86 82 68 61 56 55 56 47 44 44 42 44 49

GFSCGP_250_rhum_090.txt.gz
RH
68 65 58 54 55 54 63 52 46 66 78 59 35 26 34 42 24 28 39 36 54 100 99 100 94 59 37 31 26 20 22 21 20 22 19 17 19 18 67 66 82 100 100 100
66 78 62 55 60 60 63 53 67 61 48 32 33 33 32 28 23 31 38 41 87 100 100 100 86 56 35 35 25 28 51 28 19 23 22 19 23 23 30 82 56 67 94 100
70 91 84 66 58 55 52 48 48 37 31 37 29 24 21 29 25 34 42 73 95 100 100 100 86 49 37 38 32 28 53 22 20 23 24 23 32 31 27 50 80 55 59 74
74 75 84 74 66 52 49 49 41 32 36 33 17 20 20 39 36 37 49 95 100 100 100 100 91 54 39 40 37 43 25 26 37 23 25 24 27 37 34 30 52 67 61 58
100 95 72 71 63 58 61 47 38 38 37 22 16 16 25 40 50 48 93 97 100 100 100 100 96 56 45 40 41 35 25 28 46 21 22 28 26 31 42 36 38 64 74 65
94 96 85 70 64 68 56 56 40 36 28 18 15 21 26 85 100 90 79 100 100 100 100 100 98 70 57 40 44 44 34 27 27 20 22 26 32 30 33 44 45 47 77 79
95 85 85 78 76 74 67 52 42 32 16 18 17 33 37 100 100 83 78 93 100 100 100 100 100 81 63 44 51 51 37 39 34 24 20 23 27 33 34 35 53 56 65 74
96 88 78 66 68 73 74 63 39 29 18 20 19 64 55 100 100 100 57 85 100 100 100 100 100 99 71 61 81 73 43 48 44 32 26 20 21 26 35 32 30 46 53 75
90 86 79 65 61 72 72 66 36 22 25 29 30 98 100 100 100 100 56 63 88 100 100 100 100 100 96 81 100 100 73 58 50 41 38 30 21 20 23 31 33 28 36 49
88 89 75 69 68 73 58 44 29 35 60 66 72 85 100 100 100 100 70 43 55 94 100 100 100 100 100 100 100 100 100 85 68 66 51 42 32 21 21 22 32 35 33 34
88 85 68 67 67 53 45 45 39 90 77 98 87 62 100 100 100 100 93 64 52 73 100 100 100 100 100 100 100 100 100 95 88 68 73 53 37 27 25 25 30 49 46 36
97 93 75 66 55 51 71 99 81 98 100 100 99 94 100 100 100 100 100 88 59 66 99 100 100 100 91 100 100 100 100 100 86 81 70 60 52 30 28 35 28 28 29 33
90 81 62 42 50 65 100 100 100 100 100 100 96 100 100 100 100 100 100 100 90 78 91 100 100 100 100 97 100 100 100 100 80 85 78 69 50 33 31 41 39 25 25 33
55 65 50 50 56 92 100 100 100 100 99 95 97 100 100 100 100 100 100 100 100 100 68 85 95 94 100 100 100 100 100 100 97 94 71 72 59 37 33 82 76 35 29 38
49 52 55 57 66 100 100 100 100 100 100 98 89 100 100 100 100 100 100 100 100 100 100 93 66 50 93 100 100 100 100 100 100 100 100 98 72 57 57 74 89 92 42 47
46 52 66 74 67 100 100 100 100 100 100 100 100 100 100 100 100 100 100 100 100 99 100 100 100 100 94 81 92 99 96 89 94 100 100 100 100 81 72 100 100 100 79 59
46 61 67 100 82 99 95 100 100 100 100 100 91 100 100 100 100 100 100 100 100 47 49 60 91 63 52 77 66 73 96 100 100 100 100 98 100 100 94 85 78 89 73 94
55 57 70 100 81 100 90 100 100 100 100 95 95 92 100 100 100 100 100 100 95 91 92 100 89 79 80 78 96 100 100 100 100 100 99 96 100 100 100 100 100 100 99 98
56 51 74 100 86 100 94 100 100 100 100 100 100 100 100 100 100 100 100 100 100 99 97 99 99 97 62 50 54 52 53 87 100 100 100 100 100 100 76 72 58 61 84 100
56 52 63 98 100 92 94 87 96 100 100 100 100 98 100 100 100 93 74 88 100 100 100 100 100 100 96 79 73 77 66 61 84 100 100 100 91 88 99 84 80 74 52 100
47 46 53 97 94 100 82 82 100 100 100 100 100 100 100 100 100 100 100 100 100 97 82 76 97 100 98 96 93 94 97 100 96 82 80 98 99 99 74 58 61 89 100 100
38 44 48 80 82 100 98 78 77 99 100 100 100 100 100 100 100 100 100 100 100 100 67 93 100 100 100 91 55 71 100 100 100 79 80 70 62 66 97 100 100 100 100 100
35 46 47 61 91 100 100 81 74 84 100 100 100 100 96 76 90 100 98 78 62 96 100 100 100 100 100 100 99 86 80 97 95 87 87 63 98 100 100 100 100 100 100 100
26 26 38 41 91 100 100 100 89 70 96 100 98 82 71 73 78 93 98 96 96 92 94 100 100 100 100 97 88 79 98 100 100 100 98 100 100 100 100 100 99 98 90 74
26 25 25 34 45 99 100 100 100 96 70 83 99 90 85 100 100 100 98 98 83 83 90 79 80 99 100 95 89 73 96 75 69 91 100 100 100 100 100 100 100 100 100 100
24 24 23 28 39 71 100 100 100 100 100 95 68 68 72 86 100 92 89 94 80 82 83 74 72 68 62 76 96 100 100 100 100 100 100 100 100 100 100 97 94 100 86 68

GFSCGP_250_rhum_093.txt.gz
RH
91 100 100 100 72 84 70 63 49 38 43 61 49 35 27 44 65 48 45 39 40 47 36 46 68 68 80 80 69 32 29 27 42 29 19 16 18 18 16 16 66 100 100 100
53 43 59 66 70 67 64 62 44 53 58 46 37 29 30 46 66 51 39 38 36 46 34 55 93 72 97 89 59 32 32 28 39 22 23 16 20 18 24 18 19 89 100 100
67 59 46 54 60 48 38 47 53 59 90 45 45 31 44 48 46 47 39 34 33 37 43 95 99 79 100 95 69 33 34 33 33 23 28 16 19 22 21 30 20 30 92 100
70 58 62 45 46 48 65 68 49 79 82 59 36 28 45 53 53 42 31 36 32 42 64 100 100 95 100 100 67 34 40 39 26 25 29 20 18 22 23 25 34 24 41 77
100 100 100 100 92 72 86 74 66 68 74 54 40 40 62 60 37 31 41 40 38 41 100 100 100 79 100 100 57 38 42 39 29 29 29 22 20 19 26 25 26 39 31 30
100 100 100 100 92 74 63 82 78 68 63 41 67 46 64 37 31 34 54 44 35 51 94 100 100 71 100 99 62 44 45 42 33 34 37 26 23 21 20 26 28 26 42 42
95 92 85 84 78 70 66 84 72 68 57 51 58 45 62 25 33 52 53 43 40 42 62 100 100 75 100 100 72 54 47 45 38 39 42 34 33 28 24 21 22 27 24 42
98 98 90 80 75 77 88 80 88 72 57 59 60 50 65 21 60 74 61 40 36 38 77 100 100 81 100 100 77 73 50 50 53 49 52 43 42 37 28 22 20 24 28 24
99 86 78 83 85 81 81 79 83 78 62 61 61 41 36 34 88 65 55 41 63 80 82 100 100 84 100 100 99 86 62 70 86 74 76 60 50 48 36 27 23 32 38 31
96 82 86 85 84 81 81 86 93 76 60 56 52 34 64 74 100 89 58 46 92 100 100 100 100 98 100 100 100 92 77 78 100 100 94 75 69 58 46 38 28 26 26 31
99 97 93 89 87 85 83 85 85 68 52 53 38 53 98 100 100 100 59 75 94 94 100 100 100 100 100 100 100 100 100 100 100 100 100 100 69 60 57 50 34 27 32 28
100 100 97 95 98 84 84 85 88 63 48 48 66 65 100 100 100 100 87 62 82 85 88 100 100 85 83 93 100 100 100 100 100 100 100 100 88 72 55 59 40 33 35 38
100 100 97 99 96 88 84 85 84 58 48 39 70 99 100 100 100 100 100 89 54 63 64 72 100 100 53 47 64 98 100 100 100 100 100 100 82 79 63 65 49 40 41 53
100 100 99 96 90 82 91 88 62 46 50 78 100 100 100 100 100 100 100 93 71 45 59 78 100 100 94 79 77 100 100 100 100 100 100 100 74 74 96 96 71 49 49 49
100 98 94 91 78 69 65 62 48 53 48 68 100 100 100 100 100 100 100 100 82 64 56 72 99 100 100 100 100 100 100 100 100 100 100 100 85 86 88 85 94 70 66 90
83 82 90 94 75 54 57 56 53 70 67 93 100 100 100 100 100 100 100 100 100 100 100 65 64 97 100 100 100 100 86 100 100 92 72 80 87 100 97 94 100 100 100 86
65 75 92 84 58 55 58 49 73 100 93 99 100 100 100 100 100 100 100 100 100 100 100 100 80 64 77 90 78 66 78 100 95 91 92 94 94 100 100 100 99 98 76 62
64 66 61 66 56 56 49 64 90 100 100 99 100 100 100 100 100 100 100 100 99 100 100 100 100 100 75 63 61 94 97 90 91 100 100 100 100 100 100 100 100 100 98 98
49 48 56 50 48 73 55 71 100 100 100 100 100 100 100 100 100 100 100 100 100 100 97 82 97 100 100 100 100 100 96 82 88 80 64 71 100 100 100 100 100 100 100 100
40 45 44 48 49 81 56 70 100 100 100 100 100 100 100 100 100 100 100 100 100 100 100 100 80 47 75 82 100 100 100 96 100 95 76 98 94 94 100 100 100 100 100 100
40 40 52 54 52 89 67 62 85 98 99 100 100 100 100 100 100 100 100 100 100 87 80 67 73 53 42 44 49 88 66 77 80 82 81 94 99 97 94 100 100 100 100 100
33 49 68 52 56 93 89 56 60 99 100 100 100 100 100 96 100 100 100 100 100 100 100 100 99 95 86 66 61 72 94 100 100 96 61 72 80 88 100 100 100 100 100 100
33 54 68 52 60 74 82 63 48 91 100 100 100 100 100 95 100 100 100 94 100 100 100 100 100 100 100 100 100 100 98 88 100 100 100 98 92 57 54 70 100 100 84 61
33 39 44 42 47 56 63 69 41 57 100 100 100 100 100 100 96 100 100 100 100 100 92 87 87 80 96 100 100 100 90 88 83 74 60 72 93 86 69 69 59 54 55 96
32 27 25 32 40 50 52 64 66 50 67 97 98 100 100 100 100 94 96 100 100 100 100 100 100 100 100 100 100 75 64 51 47 69 83 90 95 88 80 70 58 61 71 74
27 22 22 26 37 48 51 54 77 87 48 62 89 93 95 93 95 98 87 98 100 100 100 100 100 100 100 100 100 100 100 100 96 86 83 84 71 91 78 64 62 70 86 100

GFSCGP_250_rhum_096.txt.gz
RH
100 100 100 100 100 100 100 100 100 100 90 100 100 49 47 59 56 44 40 39 45 45 53 54 66 52 46 47 40 54 100 61 33 29 28 24 24 16 20 20 17 79 100 100
100 99 100 100 100 100 100 100 100 100 100 100 100 50 44 50 42 38 46 50 48 48 49 63 47 44 47 43 41 74 100 55 32 31 30 26 26 16 18 23 22 35 100 100
78 97 98 95 95 99 100 100 100 88 88 58 56 47 44 40 39 66 85 70 57 57 68 60 34 42 42 41 53 93 96 47 36 30 29 29 28 18 17 22 31 19 95 100
57 72 94 90 74 79 85 80 80 75 72 53 34 35 41 46 62 84 97 72 56 64 56 41 29 38 44 41 66 100 89 48 37 30 29 30 29 24 19 17 24 32 23 100
66 67 73 78 74 59 58 66 49 49 42 45 53 40 39 59 62 99 84 60 50 56 47 29 33 47 35 42 86 100 85 48 38 31 31 34 34 31 26 22 18 24 34 26
100 99 89 85 76 73 73 64 53 47 47 54 100 55 49 62 72 98 78 51 58 44 27 28 37 39 27 74 100 100 84 51 37 37 35 38 40 36 35 26 19 20 25 29
100 100 100 100 100 94 74 65 82 78 79 78 77 59 70 63 93 81 57 43 42 22 21 28 53 35 27 52 100 100 87 54 40 39 39 43 48 39 40 35 24 21 26 26
100 100 100 100 100 100 100 100 100 100 99 74 67 67 53 84 91 68 52 39 24 20 29 42 62 35 31 42 98 100 90 56 48 42 43 46 60 48 42 41 34 26 23 28
99 100 100 100 100 100 100 100 95 79 72 66 70 75 55 77 78 51 40 26 22 27 36 58 97 68 45 40 93 100 90 60 58 48 49 72 79 65 48 44 42 36 26 25
98 98 94 89 92 89 88 85 86 78 71 63 65 70 73 83 55 50 30 30 35 43 60 70 90 100 70 55 60 100 100 73 64 62 66 96 99 77 62 43 38 44 32 29
98 95 98 96 82 82 91 94 86 71 69 62 64 73 88 68 58 37 52 58 80 91 92 91 99 95 70 60 78 100 99 85 70 75 81 100 100 100 89 54 41 40 42 33
100 100 100 98 100 94 84 83 71 70 71 64 67 83 90 60 55 30 100 94 100 100 100 100 95 88 88 52 66 100 100 99 99 100 100 100 100 100 100 76 53 47 48 44
100 100 100 99 100 93 89 88 75 67 74 74 64 89 73 53 75 75 100 100 100 100 100 100 100 100 91 64 50 100 100 100 100 100 100 100 100 100 100 100 80 61 75 66
100 100 96 97 97 96 90 82 73 73 74 78 71 81 63 61 100 95 100 100 100 100 100 100 100 100 87 65 54 95 100 100 100 100 100 100 100 100 100 100 100 69 90 91
100 99 90 87 90 95 86 74 64 69 75 71 70 64 56 94 100 100 100 100 100 100 100 100 100 100 100 82 65 81 100 100 100 100 100 98 100 87 86 100 100 88 86 88
89 91 93 91 92 97 96 68 68 65 69 66 60 56 77 100 100 100 100 100 100 100 100 100 100 98 90 97 89 92 100 100 100 100 100 100 80 46 43 65 94 80 79 86
69 85 91 97 93 88 74 74 75 70 61 52 63 86 100 100 100 100 100 100 100 100 100 100 100 100 91 96 91 75 94 98 83 91 93 82 87 100 99 84 86 83 64 61
70 80 76 86 76 81 74 69 67 66 50 51 82 100 100 100 100 100 100 100 100 100 96 98 96 88 100 100 100 100 100 94 85 93 84 86 95 100 100 89 77 60 65 83
47 50 54 57 56 72 59 65 75 60 51 56 96 100 100 100 100 100 100 100 100 100 100 100 97 99 100 100 100 100 100 100 100 100 100 100 100 100 100 100 100 100 100 100
31 36 43 52 63 78 70 72 71 63 50 63 97 100 100 100 100 100 100 100 100 100 100 100 100 100 100 100 100 100 99 98 80 92 100 100 100 89 100 100 100 94 100 100
30 37 46 48 58 77 64 60 62 51 51 77 97 100 100 100 100 100 100 100 100 100 89 100 100 100 100 100 100 99 77 85 95 100 100 100 100 100 100 98 90 88 94 100
30 38 37 39 52 74 50 44 48 52 57 92 100 100 100 100 100 100 100 100 100 100 100 89 75 94 93 100 100 100 100 84 99 100 100 100 100 100 100 100 100 98 86 72
32 36 35 32 34 56 41 35 46 54 69 90 100 100 100 100 100 100 100 100 100 100 100 100 94 91 71 74 62 78 100 100 100 97 79 100 92 98 93 99 100 100 100 100
36 35 35 40 42 41 28 39 46 61 65 87 100 100 100 100 100 100 100 100 100 100 100 100 100 100 100 98 100 98 95 70 57 49 47 52 67 80 80 82 100 100 99 94
40 40 39 35 35 30 29 45 57 62 66 83 96 100 100 100 100 99 100 100 100 100 100 100 100 100 100 100 100 100 100 97 100 97 95 96 94 91 87 82 89 75 69 85
35 35 33 31 31 30 36 44 58 55 79 69 99 100 98 100 100 100 81 74 100 100 100 100 100 100 100 100 100 100 100 100 100 100 100 100 100 90 80 82 96 69 61 53

GFSCGP_250_rhum_099.txt.gz
RH
60 74 90 100 100 100 90 85 82 90 98 84 85 79 75 70 70 74 96 100 64 52 57 55 40 39 61 67 50 44 47 40 46 78 80 32 29 26 22 19 21 16 58 100
63 55 82 96 97 100 100 100 100 100 94 74 94 93 88 75 82 100 100 99 76 73 65 50 42 38 67 65 52 43 46 38 48 87 57 31 31 27 25 21 23 24 25 100
75 85 80 79 94 88 91 88 98 98 99 100 95 100 98 76 99 100 100 100 82 62 48 46 44 40 69 70 50 37 43 34 55 94 38 33 29 27 26 22 21 28 26 98
66 65 74 72 78 89 76 85 91 95 100 98 92 90 100 99 99 100 100 81 54 44 54 46 45 74 72 55 35 32 36 37 77 93 36 34 29 30 31 28 20 24 33 36
99 90 83 82 78 79 72 71 78 87 96 93 99 86 84 91 90 80 62 59 50 78 61 45 47 74 62 51 29 38 33 45 95 81 36 35 29 34 35 33 22 18 25 33
98 97 96 93 97 83 69 63 53 55 76 91 99 85 75 77 57 59 51 46 62 75 56 49 52 57 62 47 37 37 39 89 100 80 36 36 33 34 37 35 29 21 18 25
97 99 98 88 91 99 94 83 65 61 80 80 91 84 64 53 51 47 60 82 63 63 63 54 61 58 40 40 33 38 42 98 99 85 36 39 37 37 37 36 28 25 22 20
82 95 96 95 99 97 99 98 95 89 77 72 68 61 51 41 42 56 97 97 62 63 60 45 50 36 42 30 32 43 70 100 100 86 39 38 40 43 45 39 34 29 31 23
88 90 97 97 98 99 97 100 100 91 74 60 55 51 67 69 91 99 81 65 63 66 52 43 44 44 26 30 37 52 93 99 100 82 40 37 40 46 64 58 44 37 39 37
85 95 100 100 100 100 100 99 99 90 84 81 80 92 100 89 80 74 68 68 67 54 41 48 37 26 24 40 42 55 93 98 100 93 46 41 39 52 83 77 71 46 42 44
100 98 100 100 100 100 100 100 100 100 94 99 100 100 94 75 70 75 73 77 56 45 50 42 28 26 34 40 60 64 100 97 100 100 58 48 46 61 96 99 91 68 46 42
100 99 99 96 100 100 100 95 98 89 90 81 78 78 76 68 70 71 78 75 50 49 47 40 52 46 36 50 63 82 87 92 100 100 87 64 53 61 86 100 100 100 72 43
100 100 100 98 100 100 99 90 86 77 69 63 66 79 73 78 77 78 80 64 56 64 75 100 83 53 48 70 83 95 86 93 100 100 100 88 71 68 80 100 100 100 100 85
100 100 100 100 100 100 100 86 79 70 79 69 58 74 73 83 85 82 83 63 88 98 99 100 96 78 69 90 100 100 90 87 99 100 100 100 100 100 100 100 100 100 100 100
100 100 100 96 100 100 92 86 81 81 76 74 63 74 74 82 88 74 84 90 100 100 94 100 100 86 80 80 100 100 95 96 98 100 100 100 100 100 100 100 100 100 98 100
87 100 96 100 100 100 100 86 89 83 75 80 74 67 79 81 85 76 77 100 100 100 100 100 100 100 100 100 98 99 100 98 100 100 100 100 100 98 95 91 97 100 92 81
67 99 100 93 99 100 98 90 86 83 74 74 82 85 78 80 79 71 85 100 100 100 100 100 100 100 100 100 100 100 100 100 100 100 100 100 100 100 52 52 66 97 77 80
38 62 84 92 99 100 99 92 92 89 75 84 86 90 81 71 67 76 100 100 100 100 100 100 100 100 100 100 100 100 100 95 97 100 100 100 100 97 80 75 95 85 57 60
38 45 55 68 79 94 98 86 84 86 73 65 85 87 69 83 94 100 100 100 100 100 100 100 100 100 100 100 100 100 99 100 100 93 100 77 91 97 100 100 100 92 84 85
30 35 42 49 52 65 71 80 76 71 57 62 77 76 75 100 100 100 100 100 100 100 100 100 100 100 100 100 100 100 100 93 97 99 100 93 100 100 100 100 100 100 100 100
28 31 34 41 54 57 62 69 70 71 52 62 71 69 100 100 100 100 100 100 100 100 100 100 100 100 100 100 100 100 100 100 100 100 92 100 100 100 100 100 100 100 100 100
33 32 31 36 44 49 45 49 52 53 54 54 69 69 100 100 100 100 100 100 100 88 100 100 100 100 100 91 100 100 95 100 100 100 100 100 100 100 100 100 100 100 100 100
38 35 34 34 36 34 32 37 45 52 52 46 62 73 100 100 100 100 100 100 100 100 81 100 100 100 100 100 100 100 100 100 98 100 96 84 88 91 100 100 100 100 100 100
38 35 33 33 36 35 36 42 46 47 52 53 56 68 100 100 100 100 100 100 100 100 100 92 76 98 100 100 100 100 100 100 100 100 100 100 88 90 100 100 100 100 100 100
35 36 33 32 36 33 32 34 37 36 39 48 47 59 98 100 100 100 100 100 100 100 100 100 96 78 68 87 89 97 100 100 100 100 100 100 94 84 85 96 100 100 100 99
34 35 34 31 32 34 32 29 29 31 36 40 40 55 82 100 100 100 96 100 100 100 100 100 93 89 100 98 83 61 62 85 100 92 86 75 62 63 90 94 92 88 88 78

GFSCGP_250_rhum_102.txt.gz
RH
32 36 36 39 48 60 93 89 99 73 89 100 100 100 95 100 100 100 100 100 95 84 87 78 70 75 81 49 56 69 52 43 40 62 51 51 41 69 40 26 24 19 14 17
26 28 36 39 42 49 75 87 76 85 68 81 100 100 100 100 100 100 100 100 100 92 69 70 65 62 55 84 81 56 49 42 68 64 50 52 42 79 35 28 25 23 16 17
25 29 38 39 41 45 60 78 96 97 83 82 79 93 92 98 97 96 97 83 89 97 100 100 100 100 100 99 70 53 47 42 68 63 48 54 44 82 30 30 27 26 18 18
18 23 34 42 42 45 51 66 87 99 98 93 99 91 83 90 85 80 77 86 96 99 100 92 91 90 87 85 54 56 50 48 66 60 50 49 46 65 30 29 31 26 19 19
22 25 35 43 58 61 58 62 81 96 100 98 100 100 100 100 97 95 87 95 100 100 100 100 85 84 80 60 58 59 49 46 62 58 46 45 60 46 30 30 34 27 19 20
21 32 41 47 63 80 79 77 83 93 87 96 97 85 77 87 94 86 82 94 98 96 75 71 67 66 62 50 57 51 45 57 55 52 45 53 78 35 31 31 35 33 21 19
44 46 66 73 73 83 92 95 86 88 85 98 97 84 77 71 79 75 79 89 93 85 79 76 70 57 56 58 62 42 41 52 44 49 46 84 83 34 32 32 35 35 27 21
56 79 94 100 98 91 97 97 94 88 94 98 97 80 73 75 70 70 74 72 80 94 87 71 57 48 69 55 52 41 43 38 49 44 55 92 65 38 33 33 35 32 33 28
80 82 90 97 98 98 99 100 100 100 96 92 100 100 100 88 84 74 64 67 74 77 74 70 59 78 76 47 43 41 38 43 41 41 90 100 61 42 36 37 41 38 35 36
92 86 92 100 100 100 98 99 98 97 100 100 96 93 88 90 90 91 88 78 66 56 51 58 83 79 48 38 34 36 40 36 34 53 100 100 74 48 41 39 52 59 47 42
94 100 100 100 100 100 100 100 100 99 98 98 94 87 86 86 78 70 66 66 74 85 83 75 59 46 34 31 33 38 30 32 39 92 100 100 90 50 50 42 46 74 72 62
100 100 100 100 100 100 100 100 100 100 98 98 99 89 88 84 83 80 90 88 99 87 67 59 56 46 37 38 37 28 28 43 54 100 100 99 96 59 54 46 42 62 93 87
100 100 100 100 100 99 98 100 100 100 100 100 100 100 99 99 93 88 88 86 87 75 65 61 56 48 43 39 32 36 42 53 83 100 100 100 100 73 52 54 53 75 93 83
100 100 100 100 99 99 100 100 100 100 100 100 95 95 94 79 73 77 80 80 74 72 67 63 55 48 43 37 47 54 52 60 99 100 100 100 100 98 72 64 62 70 92 96
100 100 100 100 100 98 100 100 100 100 100 100 93 87 70 76 73 75 81 82 83 72 60 60 88 62 59 72 58 78 60 60 93 100 100 100 100 100 100 98 98 97 100 100
100 100 100 100 100 99 96 98 98 100 100 96 79 77 76 82 75 73 78 78 87 61 88 88 75 99 78 92 79 91 87 83 89 100 100 100 100 100 100 100 100 100 100 100
69 80 90 100 100 96 89 80 80 76 70 67 68 79 100 95 80 72 71 81 75 78 100 100 100 93 86 95 90 97 96 100 98 100 100 100 100 100 100 100 100 100 100 100
59 60 80 92 98 91 98 98 97 91 93 92 97 99 93 89 88 74 73 78 71 86 100 99 100 71 100 95 90 100 97 99 100 100 100 100 100 100 100 100 100 76 69 94
31 50 89 100 100 95 95 98 98 91 94 93 92 95 98 98 86 77 81 76 77 94 100 100 100 100 94 100 100 100 100 100 100 100 100 100 100 100 100 100 90 74 64 52
29 36 54 88 98 100 100 98 100 95 99 92 92 96 96 97 87 80 78 75 88 94 100 98 100 100 100 100 100 100 100 100 100 99 88 98 100 100 100 100 100 100 93 87
35 35 42 54 62 80 90 98 98 91 90 87 87 86 92 97 88 85 70 97 100 97 99 100 100 93 100 100 100 100 100 100 100 100 100 100 100 100 100 100 100 100 100 100
37 42 44 49 46 47 52 62 68 60 55 63 73 77 79 92 94 96 95 100 100 100 100 100 96 100 92 100 100 100 100 100 100 100 100 100 100 100 95 100 100 100 100 100
36 35 39 41 41 33 34 36 43 46 45 50 60 75 70 79 98 99 100 100 100 100 100 100 100 100 100 100 100 100 100 100 100 100 100 100 100 100 100 100 100 100 100 100
33 34 35 36 35 33 33 35 38 40 45 49 50 59 62 66 99 99 100 100 100 100 100 100 100 100 100 100 100 100 100 100 100 100 100 100 100 100 100 100 100 100 100 100
32 34 34 34 33 29 30 30 32 34 34 36 38 42 52 65 86 95 100 99 100 100 100 100 96 100 100 100 100 100 100 100 100 100 96 100 100 100 100 100 98 100 100 100
35 35 34 34 34 32 30 31 29 28 29 34 39 44 50 58 74 88 100 100 100 100 100 100 99 82 89 100 100 100 100 100 97 100 100 100 100 98 80 98 100 78 97 97

GFSCGP_250_rhum_105.txt.gz
RH
22 18 17 33 49 81 99 81 64 54 45 60 71 49 66 99 70 91 100 100 100 100 100 100 100 100 99 83 77 86 69 95 78 47 60 66 50 43 47 54 50 66 42 20
14 11 24 32 39 63 71 66 75 66 51 47 70 75 70 96 94 100 100 100 100 100 96 94 94 91 93 99 100 82 91 75 52 72 96 69 53 43 48 56 50 74 38 22
8 16 23 25 30 34 46 68 68 69 61 43 54 80 94 92 100 99 100 100 100 100 99 90 87 97 100 97 90 100 100 100 100 82 72 66 54 42 44 52 48 74 30 26
8 11 15 18 21 28 32 44 49 59 62 52 50 58 92 76 88 100 100 100 100 100 100 100 100 100 89 77 77 67 67 67 70 68 72 58 49 42 46 47 46 70 27 30
9 11 11 13 19 26 33 39 43 50 50 54 52 50 76 90 89 83 87 99 100 100 100 90 88 89 88 85 84 94 66 79 77 66 57 56 50 42 46 45 46 51 27 32
7 11 14 15 15 20 31 34 40 47 50 45 50 51 64 87 88 91 83 78 84 89 86 79 81 96 85 88 95 89 66 65 57 66 59 52 51 42 46 40 60 30 30 37
7 11 18 20 19 24 32 41 42 48 47 51 56 58 73 74 90 100 99 100 100 95 96 99 95 97 97 83 76 71 73 64 67 64 51 53 50 44 46 40 68 29 33 37
9 13 20 24 32 48 47 62 96 83 70 79 69 80 89 64 80 98 100 81 84 90 90 95 86 77 84 80 79 75 77 74 69 62 51 54 46 49 44 47 64 30 37 38
9 13 23 37 50 59 66 74 95 100 100 97 100 100 83 85 73 80 100 100 100 100 85 79 78 79 80 82 77 67 63 54 64 61 56 56 46 53 44 70 53 32 39 39
11 20 30 45 75 93 91 100 100 98 89 95 100 100 100 96 96 100 100 90 99 98 87 82 80 80 84 83 68 60 60 55 58 48 52 49 48 53 46 95 44 32 40 41
20 32 64 71 82 99 100 100 100 100 100 100 100 100 100 100 98 98 100 100 99 99 99 92 88 86 91 85 80 68 57 54 59 45 48 51 50 48 60 99 38 32 40 47
33 90 100 98 98 100 100 100 100 100 100 100 100 100 100 99 93 93 95 100 99 97 90 78 72 76 74 68 72 79 53 49 44 47 53 48 46 53 96 94 40 36 40 53
86 100 100 100 100 100 100 100 100 100 100 100 100 100 100 94 94 93 94 89 81 74 74 78 82 83 74 65 63 47 45 44 44 48 44 43 50 100 100 100 54 40 40 42
100 100 100 100 100 100 100 100 100 100 100 100 100 98 92 96 93 82 76 88 100 100 100 100 92 69 52 48 52 49 48 46 41 43 43 51 86 100 100 100 85 50 42 41
100 100 100 100 99 100 100 100 100 100 100 100 100 100 100 93 95 99 100 100 98 87 78 77 62 54 58 54 57 52 48 41 42 55 57 75 100 100 100 100 100 75 59 59
100 100 100 100 100 100 100 100 100 100 100 100 100 100 100 100 100 94 80 83 74 72 76 72 62 61 60 66 76 72 86 68 72 64 82 100 100 100 100 100 100 99 81 80
98 100 100 100 100 98 100 100 100 96 100 100 100 100 100 100 97 90 78 72 77 72 76 69 58 99 100 90 99 100 100 96 77 77 96 100 100 100 100 100 100 100 100 100
97 100 100 100 100 98 100 95 92 91 95 100 100 100 100 100 92 86 79 63 67 72 70 66 94 100 100 100 99 87 100 100 99 95 100 100 100 100 100 100 100 100 100 100
79 99 100 100 99 100 100 99 94 87 87 90 97 97 93 94 83 68 67 64 65 66 81 93 100 100 100 100 78 72 100 100 100 100 100 100 100 100 100 100 100 100 100 100
46 67 96 100 93 94 96 100 100 100 99 92 95 96 89 85 88 87 76 72 61 58 74 100 99 100 100 90 67 95 93 100 100 100 96 100 100 100 100 100 100 100 100 100
30 36 52 92 99 99 99 100 100 100 100 100 100 100 100 100 94 86 92 84 61 58 84 100 100 100 100 100 100 96 100 92 95 95 97 100 100 100 100 100 100 100 100 100
36 37 37 40 70 97 95 99 100 100 100 99 95 92 96 98 97 100 100 87 64 63 100 100 100 85 100 100 99 100 100 95 78 100 99 87 91 89 89 90 94 100 99 100
37 36 35 36 40 44 61 84 90 95 97 97 96 93 93 95 99 100 100 94 67 71 100 100 100 99 100 100 100 100 100 100 76 100 100 100 100 100 89 94 100 100 100 100
36 42 41 36 36 38 40 43 50 58 63 68 74 78 78 70 72 82 99 98 70 80 69 96 96 98 97 100 94 100 100 100 100 84 75 100 93 83 100 100 100 100 100 100
34 38 38 36 33 33 36 39 44 47 47 43 43 47 51 51 52 59 87 100 76 73 72 79 90 96 100 100 92 100 83 100 100 100 100 100 100 98 100 100 100 100 100 100
26 24 28 30 32 32 32 34 35 36 34 34 34 36 39 41 44 49 64 85 84 71 89 80 74 92 90 92 100 100 99 84 87 74 100 100 100 100 100 100 100 100 100 100

GFSCGP_250_rhum_108.txt.gz
RH
10 9 8 11 15 17 24 29 42 42 92 100 97 93 79 58 64 69 60 53 44 45 56 100 100 100 100 100 100 100 100 100 100 99 68 68 62 51 90 82 43 49 47 47
6 6 11 13 14 16 18 24 29 32 63 95 89 88 86 68 54 61 73 67 69 77 47 66 81 96 100 100 100 100 100 100 100 88 84 75 78 100 77 46 46 47 51 49
5 7 8 8 10 12 15 18 24 31 47 92 86 84 79 73 66 70 70 73 61 91 78 72 85 89 97 100 95 97 97 98 100 95 78 68 68 51 69 56 47 47 51 52
4 4 6 7 8 11 16 20 24 38 46 54 57 83 86 87 79 67 55 62 73 57 94 99 100 100 98 96 100 98 99 99 100 100 80 62 58 89 78 53 48 48 50 52
6 5 5 5 9 11 13 23 28 35 39 49 48 51 99 97 86 76 59 50 72 78 75 100 100 100 100 100 100 100 100 100 100 99 88 73 70 84 57 54 54 52 50 51
5 6 5 6 8 11 16 17 22 29 40 40 52 50 84 100 98 87 74 61 59 91 81 86 100 100 100 100 100 100 99 82 73 90 95 81 75 66 68 62 63 56 52 56
6 8 8 7 7 12 15 17 19 25 32 40 53 55 86 97 95 75 79 76 67 67 89 98 100 96 100 97 92 87 79 72 76 79 79 68 70 70 72 66 57 60 52 57
8 8 9 11 10 14 22 22 22 27 38 48 49 55 54 68 90 83 73 73 69 69 69 89 98 100 100 98 98 89 80 70 84 82 76 69 72 73 63 60 57 72 52 57
8 9 10 10 10 14 19 22 26 27 37 48 56 55 52 55 60 56 64 70 68 77 98 80 93 100 100 100 100 100 100 92 91 82 77 68 60 71 57 54 52 77 58 60
9 11 11 9 12 19 26 39 47 60 96 80 87 100 100 100 98 81 91 98 68 67 66 74 96 100 100 100 100 98 99 92 74 76 70 71 61 61 65 65 64 59 72 62
12 13 13 12 19 31 42 58 85 100 100 100 100 100 100 100 100 100 100 63 63 71 88 95 100 100 100 100 100 100 96 84 81 87 67 69 58 66 66 78 57 64 67 76
12 16 18 28 37 51 53 91 100 100 100 100 100 100 100 100 100 100 82 79 76 82 84 95 98 100 100 100 100 100 92 88 73 71 62 51 79 85 83 67 61 67 61 100
17 16 23 36 66 81 92 100 100 100 100 100 100 100 100 100 100 100 86 65 82 92 89 95 98 96 98 92 92 89 81 82 67 60 58 58 63 69 59 73 63 54 65 100
26 34 66 98 100 97 100 100 100 100 100 100 100 100 100 100 100 100 99 97 100 100 100 98 92 88 96 96 90 74 59 58 65 55 51 49 51 59 62 83 71 61 97 98
35 78 100 100 100 100 100 100 100 100 100 100 100 100 100 100 100 100 100 100 100 100 99 93 84 77 77 76 68 63 56 49 50 51 49 51 54 60 66 80 99 100 100 96
56 100 100 100 100 100 100 100 100 100 100 100 100 100 100 100 100 100 100 100 96 90 83 96 100 92 75 56 48 55 63 63 56 56 53 50 54 72 77 100 100 100 100 98
97 100 100 100 100 100 100 96 100 100 100 100 100 100 100 100 96 100 100 100 100 100 100 100 83 64 59 57 64 98 87 83 78 72 68 56 72 79 100 100 100 100 100 100
97 100 100 100 100 100 97 92 100 100 100 100 100 100 100 99 100 100 100 100 100 100 91 77 74 64 65 84 98 98 94 100 93 91 90 91 94 100 100 100 100 100 100 100
80 100 100 100 100 100 96 100 100 100 100 100 100 94 100 100 100 100 100 100 100 95 81 74 70 67 94 100 100 100 97 100 100 100 100 100 100 100 100 100 100 100 100 100
86 97 100 100 100 100 100 97 98 100 96 100 99 84 90 100 100 100 100 100 100 96 88 73 64 70 100 100 100 100 100 96 72 100 100 100 100 100 100 100 100 100 92 99
70 97 100 100 100 100 100 96 96 92 100 99 100 100 98 97 100 98 96 97 90 79 73 58 62 71 100 100 100 100 100 99 100 100 99 100 98 100 100 100 100 100 100 100
41 50 74 88 100 100 100 100 97 97 98 97 97 100 98 99 100 100 99 94 89 79 63 59 60 64 100 100 100 100 99 94 100 100 100 94 95 100 100 100 94 100 100 100
35 35 37 49 80 90 100 100 100 100 100 99 99 98 100 100 100 99 96 87 86 78 71 64 56 75 100 100 99 100 100 90 100 100 100 97 99 100 95 100 100 100 100 100
32 34 35 33 37 63 91 99 100 100 100 100 100 99 95 94 94 96 98 97 92 84 85 66 57 96 100 100 97 100 100 100 98 82 100 94 84 99 100 100 100 100 100 100
28 34 35 34 33 37 47 67 90 99 99 98 99 99 100 98 94 95 99 99 95 90 96 74 57 97 100 100 100 100 100 100 100 100 100 100 98 82 100 100 100 100 100 99
22 26 33 31 30 31 34 37 40 41 42 49 57 64 74 80 81 84 84 79 75 72 72 75 56 74 99 100 100 95 100 100 100 100 100 97 84 58 100 100 100 100 100 87

GFSCGP_250_rhum_111.txt.gz
RH
10 8 10 12 10 10 10 9 10 11 17 25 22 24 69 100 97 58 64 73 49 48 45 57 48 52 77 97 98 81 79 70 100 100 100 100 78 100 100 100 71 71 58 42
8 7 10 10 7 7 8 8 8 11 14 16 20 18 36 60 82 78 79 81 75 56 58 54 58 50 61 70 86 100 100 96 100 100 63 73 99 100 100 94 86 74 54 40
5 6 5 6 6 6 8 8 9 11 16 16 16 20 34 52 62 65 72 81 87 83 66 62 58 51 53 55 56 76 89 100 100 100 100 93 98 99 93 95 88 77 54 57
4 5 4 4 5 5 6 8 12 13 18 19 19 19 26 46 42 54 99 100 100 75 69 57 52 58 59 70 79 57 57 74 94 100 100 96 98 100 100 94 78 73 71 68
4 4 4 4 5 4 5 6 9 11 12 17 24 20 25 36 43 56 91 100 90 65 61 63 72 85 66 63 99 100 100 100 100 100 100 100 100 98 97 84 70 75 67 58
3 3 4 5 6 6 6 5 7 9 11 12 26 24 29 30 43 63 67 100 100 100 80 76 70 76 84 74 75 100 100 100 100 100 100 100 100 100 92 73 70 75 63 59
4 4 4 5 6 7 5 5 8 11 10 18 25 22 50 36 49 51 54 78 100 100 99 88 77 68 65 81 75 88 97 100 100 100 100 100 96 95 75 69 76 76 72 68
4 4 5 6 6 6 6 13 15 18 20 27 28 25 47 51 49 46 49 54 97 100 100 96 92 85 73 70 82 98 84 93 77 92 100 100 86 68 78 92 100 91 77 71
4 5 6 7 8 10 8 12 12 18 22 21 24 38 44 56 59 73 60 51 57 82 100 100 100 95 86 76 70 81 75 70 75 78 100 100 90 100 94 88 88 90 90 88
6 8 8 9 11 13 14 11 19 22 25 32 39 50 56 61 66 73 75 64 63 76 96 100 100 96 91 93 80 72 92 81 79 73 84 93 83 71 56 76 99 91 96 68
6 8 10 12 15 15 18 25 35 38 71 86 82 90 74 100 100 84 78 72 75 71 84 81 76 96 98 90 74 76 88 100 100 99 73 86 80 80 66 73 100 100 100 81
9 9 14 17 15 17 22 32 46 94 92 100 100 100 100 100 100 100 100 100 62 62 60 59 64 75 77 87 74 86 99 100 100 97 74 80 72 64 67 86 100 100 100 78
11 15 18 20 21 23 29 50 94 100 100 100 100 100 100 100 100 100 100 99 100 89 77 60 64 74 71 63 63 76 87 92 94 90 81 80 73 64 62 85 100 100 100 79
24 26 23 31 38 56 98 100 100 100 100 100 100 100 100 100 100 100 100 100 91 93 100 100 96 67 70 73 86 85 92 93 86 90 92 76 71 63 70 87 97 100 95 99
31 33 40 50 72 99 100 100 100 100 100 100 100 100 100 100 100 100 100 100 89 82 71 78 78 74 73 70 78 85 88 86 98 96 82 67 64 72 64 72 91 72 80 100
37 56 70 86 99 100 100 100 91 100 100 100 100 100 100 100 98 98 89 83 93 96 98 100 100 100 98 99 100 100 99 94 80 67 73 77 78 69 50 81 75 97 83 99
44 38 70 100 99 100 100 88 100 100 100 100 100 100 100 100 100 93 100 100 100 100 100 100 100 98 95 96 100 93 94 89 75 65 57 62 70 62 76 91 96 87 94 96
54 88 87 100 100 99 92 100 100 100 100 100 100 100 100 100 100 100 100 100 100 100 100 98 89 97 100 100 95 88 63 69 83 90 98 86 74 58 77 97 100 100 100 100
64 93 100 100 100 93 84 98 98 100 100 100 100 100 100 100 100 100 100 100 100 100 100 100 94 100 100 100 69 62 71 100 91 93 100 94 82 70 99 100 100 100 86 100
74 83 100 84 86 92 76 95 100 100 100 100 100 100 100 100 100 100 100 99 100 100 100 100 100 100 100 72 71 71 94 99 91 100 100 100 91 96 100 100 100 100 100 98
95 100 100 100 74 70 91 95 99 98 98 100 100 100 100 98 99 100 93 99 100 100 100 100 100 100 86 69 70 73 100 100 100 100 100 100 100 96 100 100 100 100 100 98
68 99 98 96 96 96 90 95 88 96 99 97 94 96 96 97 100 100 99 93 100 100 100 100 100 88 76 67 67 76 100 100 100 100 100 100 100 100 100 100 100 100 100 100
48 54 90 99 98 89 94 96 89 91 92 93 91 95 93 90 89 91 100 93 93 98 100 99 90 80 69 66 64 68 100 100 100 100 100 95 100 100 100 100 100 100 100 100
38 38 50 62 68 85 99 100 98 99 94 96 99 93 89 87 85 91 100 100 99 96 95 92 89 82 70 62 60 59 100 100 100 100 100 100 80 100 100 100 100 100 100 100
29 35 36 37 48 58 66 83 100 99 95 95 96 96 96 96 94 85 87 90 98 99 98 98 96 91 77 66 62 64 65 100 100 87 81 100 87 100 94 100 96 100 100 100
22 27 29 32 34 38 42 49 63 83 100 100 100 100 100 99 96 93 93 91 92 92 88 87 84 82 79 65 58 60 62 69 100 100 68 100 100 89 99 99 98 98 100 100

GFSCGP_250_rhum_114.txt.gz
RH
36 34 27 20 17 10 8 8 8 9 14 11 10 9 12 12 16 19 24 35 70 78 99 83 62 48 44 60 50 44 50 98 100 100 100 100 60 98 100 100 100 99 87 97
26 15 16 9 7 6 6 6 7 8 12 10 10 8 11 13 12 14 20 25 50 84 76 85 81 59 47 43 43 45 46 75 100 100 100 100 75 83 95 61 87 85 97 79
12 11 6 6 6 6 5 5 7 8 10 9 9 9 11 12 15 20 26 26 49 96 96 69 66 65 55 40 39 48 53 58 91 100 100 100 100 100 100 100 99 80 88 100
7 5 4 3 4 4 4 5 6 7 7 8 7 8 11 14 14 17 30 38 48 80 81 80 92 84 68 55 53 60 60 58 71 73 88 88 65 64 82 95 84 94 100 100
4 4 3 3 3 3 4 4 4 5 5 5 6 8 16 16 17 15 28 38 48 59 97 97 81 84 84 77 80 66 66 62 63 72 91 89 70 50 57 98 100 100 100 100
3 3 3 3 3 3 4 4 5 6 6 6 8 11 22 18 24 19 21 29 46 51 58 77 84 83 100 100 100 82 69 62 65 75 94 100 100 100 97 100 100 100 100 96
3 3 3 3 4 4 4 6 6 6 7 9 10 14 24 24 27 23 27 26 51 71 80 94 100 100 96 98 91 86 80 89 70 64 95 100 100 100 94 100 98 99 98 82
4 4 3 4 5 5 6 6 8 10 12 12 15 24 22 29 58 36 36 29 33 51 75 92 92 95 96 96 91 85 93 97 97 90 78 93 100 100 100 98 100 86 84 87
4 4 4 5 6 7 7 8 11 9 12 16 21 23 23 23 98 100 95 45 47 60 72 76 70 96 100 90 96 90 90 83 69 77 96 93 93 100 99 95 90 100 98 76
4 5 6 6 7 8 10 9 10 14 16 16 24 19 19 23 31 90 65 46 37 46 52 54 65 79 100 100 100 100 100 97 96 83 68 76 89 100 82 74 98 87 68 97
7 8 8 9 10 12 12 13 18 20 25 29 44 38 46 44 42 48 69 54 49 50 59 63 73 77 90 100 100 100 100 100 100 92 90 76 67 73 71 65 71 100 99 100
9 10 12 13 14 15 17 20 29 30 39 66 100 83 80 72 76 74 100 73 52 55 60 64 78 84 98 98 100 100 100 100 93 89 85 67 60 67 71 71 89 100 100 100
14 11 14 14 20 18 31 45 38 53 86 100 100 100 100 100 100 100 100 100 100 78 62 63 73 82 96 100 100 100 99 100 96 93 87 64 60 62 64 84 94 100 100 75
26 18 17 17 18 33 43 55 72 96 100 100 100 100 100 100 100 100 100 99 100 100 97 80 58 56 67 83 90 90 85 77 82 83 64 61 64 65 66 84 94 98 84 80
34 26 22 26 48 81 82 89 99 100 100 100 100 100 100 100 100 100 100 100 100 100 100 100 93 65 66 76 76 72 80 72 69 56 60 66 58 60 67 71 66 62 80 100
35 27 24 41 92 100 100 93 100 100 100 100 100 100 100 100 100 100 100 100 100 100 80 100 100 100 100 100 98 100 85 67 75 78 68 66 65 67 65 65 75 82 94 100
35 31 37 66 77 78 100 100 100 100 100 100 100 99 100 100 100 100 98 95 95 100 100 100 94 82 74 94 100 100 100 95 83 83 94 90 86 79 78 86 89 84 91 84
38 37 36 68 95 89 98 100 97 100 100 100 100 100 100 98 99 100 100 97 100 100 100 100 94 87 82 79 80 66 86 95 94 92 94 100 90 94 89 81 80 76 82 94
33 46 42 54 86 66 71 79 92 100 100 100 100 100 100 100 98 88 95 100 100 100 96 90 85 68 65 71 74 95 100 100 100 100 99 94 77 87 83 97 88 73 82 98
37 58 64 47 52 69 69 81 89 100 100 100 100 100 100 100 100 100 100 100 99 82 82 70 93 100 98 83 100 99 100 100 100 79 65 85 100 92 100 100 89 98 97 100
38 47 75 77 62 55 73 78 90 100 99 100 99 100 100 100 100 100 100 86 69 91 97 93 95 100 96 93 83 98 100 100 96 76 80 100 100 100 100 100 100 98 100 100
45 50 66 71 77 74 69 87 100 98 100 100 100 95 90 99 100 100 99 99 100 100 100 100 100 100 100 97 92 100 100 100 100 77 93 100 100 100 100 100 100 98 100 100
49 51 71 82 82 87 86 86 99 100 100 100 100 100 95 95 95 97 98 96 99 93 92 100 95 99 93 82 81 100 99 94 74 74 78 99 96 100 88 99 100 100 100 100
41 51 53 66 65 62 68 79 87 95 93 98 98 98 94 94 92 89 89 87 87 91 92 82 92 93 99 96 80 87 88 88 73 70 74 97 100 100 98 100 85 99 100 100
34 39 40 48 66 78 76 72 74 84 86 88 87 83 85 85 85 83 82 83 81 77 78 86 93 93 92 94 98 92 81 74 67 66 75 79 100 100 100 99 100 98 100 86
24 28 37 49 47 51 59 67 78 86 90 90 91 93 90 83 82 84 81 78 78 78 78 77 77 80 92 97 93 86 79 70 67 62 60 68 80 100 100 100 100 95 90 100

GFSCGP_250_rhum_117.txt.gz
RH
37 38 32 42 39 31 24 19 18 16 17 19 14 13 14 15 14 15 16 17 18 17 20 23 34 100 99 69 58 50 48 47 49 45 49 69 80 60 83 94 94 100 89 63
27 29 38 32 27 24 20 11 9 8 10 9 8 9 10 9 9 13 14 16 16 17 20 22 29 58 71 65 72 54 46 51 61 52 56 60 100 70 57 61 82 95 84 82
32 33 28 27 21 17 8 8 7 5 6 5 5 4 6 7 8 11 12 14 16 18 20 24 24 23 50 70 80 66 47 50 74 66 59 62 93 85 80 100 100 100 99 93
31 27 24 16 10 6 7 5 4 4 4 4 4 4 6 9 8 11 13 12 12 13 16 22 23 25 43 60 79 73 58 56 66 65 67 76 78 65 44 55 82 100 91 65
26 21 9 7 5 4 3 3 3 3 3 3 4 5 7 8 9 11 12 12 13 14 15 19 24 31 36 49 87 92 74 62 67 69 75 74 79 94 93 61 96 100 99 77
17 8 6 4 3 3 3 3 3 3 3 4 3 5 6 8 10 14 16 15 14 15 16 19 26 38 41 79 100 100 85 72 72 63 67 69 74 85 100 100 92 98 86 81
11 7 5 4 3 3 3 3 4 4 4 4 5 7 7 7 11 15 18 18 17 18 19 23 28 41 57 100 100 100 100 84 80 64 70 78 99 96 86 100 100 100 92 93
10 7 4 4 4 3 4 4 4 4 4 5 7 8 8 10 14 21 19 22 20 22 22 25 35 47 67 100 100 100 100 100 85 75 66 78 100 100 100 100 100 95 92 82
7 5 4 4 4 5 5 5 5 6 6 6 8 10 12 16 34 75 41 38 33 33 31 32 38 45 55 99 100 100 100 100 99 92 84 72 77 96 100 97 100 100 100 100
7 5 6 6 6 7 7 8 8 7 7 9 8 12 15 24 67 100 99 73 44 41 48 48 40 48 58 84 100 100 100 100 100 100 100 100 82 64 78 73 84 92 95 95
6 8 8 8 9 9 9 9 9 11 9 10 10 15 27 32 42 100 100 100 100 61 61 50 53 53 55 65 92 99 100 100 95 100 100 100 100 96 81 73 65 68 73 74
8 12 12 12 13 14 13 12 12 13 13 16 18 17 30 42 75 100 100 100 65 57 54 37 37 40 52 66 80 96 100 100 100 100 100 100 100 100 100 100 79 80 75 74
14 15 18 16 16 15 16 19 21 23 23 26 31 30 66 100 100 100 100 99 94 100 68 61 46 44 49 63 77 80 90 85 92 100 100 100 100 97 100 100 100 96 74 70
15 14 20 19 18 20 22 27 33 32 36 48 43 61 64 89 100 100 100 100 100 98 95 87 75 67 59 68 74 70 74 84 89 94 100 100 100 95 97 91 82 79 83 78
18 21 26 29 26 37 36 36 34 39 58 55 73 80 89 88 95 100 100 98 100 100 100 100 87 63 65 69 74 83 84 82 82 81 87 89 94 87 78 69 75 69 87 100
27 35 33 36 38 76 78 85 83 81 75 67 85 85 92 98 100 100 100 100 100 100 100 100 100 100 99 83 78 79 83 98 100 100 92 79 80 68 71 68 67 60 59 74
22 38 38 43 68 98 100 100 100 100 91 86 90 97 95 100 100 100 100 100 100 100 100 100 100 100 96 84 85 85 97 99 89 77 84 76 78 65 60 57 62 61 59 59
23 47 38 40 73 87 100 99 100 100 98 84 97 99 87 100 100 100 95 100 100 100 100 100 100 99 100 100 100 98 100 99 90 80 75 81 87 88 93 82 64 63 65 61
29 48 41 56 66 84 94 95 97 100 99 99 97 98 100 76 92 99 100 100 100 100 93 93 92 100 100 89 80 90 82 72 72 78 82 80 81 86 98 100 96 80 72 66
27 45 42 58 77 75 73 90 97 86 99 100 93 93 100 97 97 97 92 100 100 100 100 93 100 100 100 98 95 73 74 83 90 99 94 100 100 100 97 90 82 80 68 62
33 32 37 64 72 69 70 63 82 90 88 97 100 100 100 100 98 90 90 87 100 100 80 100 100 98 91 87 73 81 80 98 95 98 100 100 100 87 91 75 71 82 76 100
34 50 42 46 72 73 63 77 61 79 89 94 98 97 99 94 99 98 95 85 87 93 100 98 79 78 95 94 77 70 60 68 72 75 100 100 100 99 76 82 94 96 100 91
32 39 56 43 65 86 96 73 81 87 97 100 100 100 99 95 98 100 99 100 95 77 87 96 85 89 73 67 61 72 76 72 67 86 100 100 100 100 94 84 100 100 100 98
31 36 45 57 51 58 73 90 97 87 91 100 98 100 100 94 94 93 99 93 85 90 91 94 98 90 78 71 77 76 72 93 88 92 100 100 100 100 100 98 83 98 99 77
29 43 43 48 56 61 54 60 67 84 89 90 99 98 96 92 89 92 96 94 98 94 88 86 85 83 84 81 82 81 80 98 96 92 99 79 90 89 84 74 76 84 96 97
28 30 42 52 50 58 61 63 63 72 79 74 72 77 81 86 87 86 87 87 85 83 84 85 84 83 78 76 77 79 85 87 81 82 77 76 68 64 64 75 82 74 87 100

GFSCGP_250_rhum_120.txt.gz
RH
54 57 53 43 40 37 34 35 29 27 32 31 26 23 23 23 27 20 28 34 40 41 60 56 17 18 18 20 20 35 63 93 81 59 48 46 48 46 60 73 63 69 72 91
67 79 68 62 66 50 45 31 26 22 22 17 17 14 15 14 15 15 16 22 33 38 42 46 22 18 19 18 20 30 42 79 89 61 58 53 51 47 50 59 59 100 85 67
78 66 53 48 51 36 26 22 21 15 12 9 8 8 8 8 9 10 12 14 16 19 20 22 18 18 15 14 19 28 34 93 96 72 65 55 54 56 54 58 57 70 70 79
48 48 46 46 35 28 21 16 10 8 6 5 4 4 5 4 5 5 6 7 9 12 15 16 14 15 11 15 21 28 38 100 100 85 76 62 62 55 52 66 60 62 83 100
45 43 40 33 21 18 14 9 6 6 5 4 3 3 3 3 3 4 5 6 7 8 10 11 12 12 13 18 22 30 38 100 100 94 84 73 63 64 57 59 52 87 71 80
42 38 27 17 13 8 6 5 4 3 3 3 3 3 3 3 3 4 4 6 8 9 9 9 9 11 14 17 22 34 38 88 100 100 100 77 68 64 64 57 63 80 100 94
37 29 17 11 7 5 4 3 3 3 3 3 3 4 4 3 4 4 5 6 7 9 10 10 10 12 16 18 25 35 40 69 100 100 100 86 77 77 72 76 62 80 76 86
38 23 13 9 6 4 4 4 3 4 4 4 4 5 5 6 7 7 9 10 11 11 12 13 13 16 18 20 26 40 47 58 100 100 100 100 86 82 82 84 75 90 89 70
27 17 14 9 6 4 5 5 4 5 5 5 6 5 6 9 9 9 13 20 22 18 18 18 17 17 19 21 25 30 38 54 100 100 100 100 92 82 84 90 78 100 99 78
23 19 13 8 6 5 6 6 6 6 6 6 7 8 8 10 11 12 14 36 34 30 30 26 24 24 24 26 33 38 49 66 95 100 100 100 98 91 93 92 90 100 100 100
19 18 11 8 7 8 9 10 10 10 9 9 7 9 9 11 18 40 56 94 100 46 52 39 33 31 34 40 40 43 59 81 100 100 100 100 100 100 100 92 87 86 97 83
24 15 10 8 10 14 13 14 14 12 14 15 13 19 22 19 21 43 37 63 93 99 65 56 48 40 47 46 53 60 78 73 66 100 100 100 100 100 100 100 100 96 81 86
21 12 10 11 14 17 22 18 13 13 14 16 17 25 34 50 39 48 47 77 100 100 68 100 58 100 64 49 55 61 77 91 96 100 100 100 100 100 100 100 100 100 97 89
17 12 12 18 27 28 25 20 17 16 18 20 23 34 70 77 71 82 77 97 100 100 84 73 72 40 35 37 40 52 67 78 97 100 100 100 100 100 100 100 100 100 100 92
14 13 15 33 41 36 31 27 22 24 24 24 32 66 91 98 90 91 100 100 100 100 100 100 100 100 94 51 48 51 57 62 73 90 100 100 100 100 100 100 100 100 100 100
15 16 26 44 46 48 46 31 36 34 40 45 42 72 99 100 100 100 100 100 100 100 100 92 92 97 100 93 68 48 50 50 53 78 85 91 98 99 100 98 100 100 100 100
17 19 39 67 70 65 70 46 56 53 58 81 55 62 100 100 100 100 100 100 100 100 99 97 78 100 100 99 84 80 77 67 60 60 70 79 82 87 89 84 89 93 97 96
17 24 48 87 83 96 98 85 93 78 78 84 71 77 100 100 100 100 100 100 100 100 100 100 98 100 100 100 100 100 100 97 82 69 64 67 69 70 74 77 77 76 75 72
18 28 48 81 69 86 91 95 77 93 79 86 89 88 83 100 100 100 100 100 100 100 100 100 98 100 100 100 100 100 100 100 100 100 90 78 73 76 78 81 73 66 64 65
19 27 46 81 91 58 65 78 89 73 51 66 93 95 93 100 99 98 100 100 100 100 100 100 100 100 100 100 100 100 100 100 100 99 94 99 99 98 99 95 97 99 100 99
22 22 37 71 99 86 71 71 73 77 62 61 64 80 77 79 90 91 96 96 98 99 100 95 100 98 95 94 78 97 93 77 72 80 82 83 75 70 69 74 83 91 93 82
24 21 27 57 88 100 85 82 74 74 70 66 62 72 81 90 88 79 80 77 85 99 100 96 100 99 98 71 82 92 98 82 93 75 67 63 60 82 87 92 98 99 97 93
24 25 24 44 69 92 100 87 86 79 78 76 70 76 82 87 100 97 91 82 80 90 93 97 98 98 100 100 93 96 77 79 95 83 84 78 69 70 83 97 92 100 100 100
24 25 26 29 48 70 82 100 87 81 79 85 83 80 82 90 88 83 88 98 95 100 98 91 89 82 80 89 80 70 87 90 77 65 89 80 66 59 65 72 74 99 100 100
24 26 28 30 32 50 84 88 97 98 92 91 87 94 90 88 89 88 85 80 84 78 80 79 74 72 72 64 64 66 67 66 66 65 62 61 59 57 56 57 64 80 95 100
24 26 26 31 33 33 44 75 96 97 99 100 100 100 100 98 96 94 89 82 80 80 77 76 74 75 77 82 84 79 77 73 72 76 76 71 74 78 73 68 71 74 90 85

GFSCGP_250_rhum_123.txt.gz
RH
57 59 49 43 40 39 39 39 43 50 60 32 28 26 28 34 34 31 36 30 35 37 40 50 54 43 43 44 40 41 38 35 39 38 39 44 53 75 100 72 88 69 68 62
58 68 56 44 51 51 46 52 57 51 48 38 32 20 21 22 24 20 12 18 23 27 36 34 39 51 29 30 32 31 36 39 30 31 37 38 50 70 97 68 78 72 84 66
52 53 46 43 46 46 46 43 38 33 32 25 16 12 11 12 9 12 11 10 11 12 19 25 31 37 33 20 21 22 30 26 24 32 34 52 44 62 98 81 84 70 64 63
55 52 43 43 48 43 42 37 27 18 14 12 9 8 8 8 8 8 9 9 10 10 12 14 18 26 26 16 16 16 18 20 23 30 44 44 36 65 100 87 73 60 71 59
57 54 42 44 46 45 32 18 16 13 9 7 6 6 6 5 4 4 4 4 4 5 6 9 14 17 18 15 13 15 15 19 27 34 45 41 33 40 97 94 78 61 74 65
52 45 45 53 45 27 17 15 11 8 7 6 5 4 3 3 3 3 3 3 3 3 4 6 9 14 17 14 13 13 20 25 25 26 33 28 34 36 89 94 85 67 53 51
46 49 56 47 31 18 14 9 8 6 4 3 3 3 3 3 3 3 3 3 3 3 4 4 6 9 11 12 15 16 20 22 21 29 34 34 36 43 89 94 98 67 53 49
50 55 49 47 25 14 10 8 5 4 4 4 4 4 5 5 5 4 4 4 4 4 4 5 6 8 10 10 12 16 18 22 27 29 28 37 44 62 96 91 94 72 68 69
51 50 48 30 18 15 11 6 6 6 6 6 6 6 6 5 5 6 6 6 6 6 6 7 9 9 10 12 14 17 21 22 44 34 55 98 65 73 100 97 92 82 72 72
51 58 44 24 16 16 8 7 8 8 9 10 10 8 7 8 8 8 8 10 11 12 11 13 15 16 15 17 19 20 20 20 34 60 93 61 94 100 100 98 100 87 93 77
59 50 32 24 22 11 9 9 11 11 11 12 15 13 11 10 10 12 16 17 27 25 31 26 26 24 29 26 20 21 23 28 38 93 100 85 100 100 100 100 92 100 100 92
52 43 27 27 14 11 10 13 14 14 14 16 19 16 12 12 14 12 22 25 36 31 92 98 52 42 43 35 31 29 41 56 45 96 91 100 100 100 100 100 100 100 100 98
47 35 28 23 12 13 13 18 17 17 18 17 18 18 16 17 24 29 37 36 62 63 90 75 98 100 100 51 36 31 37 38 43 59 58 64 72 98 100 100 100 100 100 100
40 33 31 16 15 17 17 24 22 22 21 19 23 25 31 37 31 47 72 82 98 78 100 100 99 100 92 82 46 35 37 42 64 60 50 47 48 54 82 100 100 100 100 100
34 36 28 17 20 23 28 33 31 29 26 32 39 42 59 60 68 77 85 100 97 100 100 73 94 98 92 98 63 54 43 50 55 58 58 52 54 63 67 79 100 100 100 100
35 36 22 20 25 39 46 41 37 39 38 33 54 61 80 81 94 100 100 100 100 100 100 100 100 100 100 100 64 77 72 60 67 66 66 68 62 70 78 92 96 100 100 100
38 35 22 23 27 50 48 64 65 59 60 51 45 93 93 94 95 100 100 100 100 100 100 100 100 97 98 97 74 77 84 79 65 60 72 74 87 94 95 91 94 92 100 100
40 31 25 26 31 48 57 56 86 87 92 69 68 75 100 97 100 100 100 100 100 100 100 100 100 100 100 100 100 100 100 100 86 63 55 54 57 65 74 85 90 88 83 88
40 29 26 29 32 47 71 68 93 96 92 98 80 72 98 100 100 100 100 100 100 100 100 100 100 100 100 95 100 100 100 99 100 100 88 68 53 49 50 59 72 83 85 84
41 29 26 29 39 56 81 83 81 87 98 83 98 91 83 100 100 100 100 100 98 100 100 100 100 100 100 98 100 100 100 100 100 100 99 93 84 64 61 56 56 60 63 67
40 27 25 28 42 55 81 86 75 87 80 89 82 92 94 83 99 100 100 100 100 100 100 100 98 100 86 100 100 100 100 100 100 100 100 100 100 100 99 99 98 95 99 97
38 24 22 29 34 57 68 88 96 88 87 86 86 100 99 93 92 99 100 100 100 100 100 100 98 100 100 97 82 82 100 100 100 100 100 100 100 100 99 99 100 100 100 100
31 23 22 25 32 44 62 74 95 100 96 87 83 79 83 100 100 98 92 99 100 100 100 100 100 93 100 100 100 94 81 73 73 96 92 91 87 90 82 76 72 71 74 78
23 21 22 22 28 43 54 70 92 100 99 100 90 84 77 76 82 92 94 97 98 98 90 94 90 90 91 83 99 100 100 95 95 80 77 64 65 70 68 62 55 55 57 58
20 20 21 22 24 31 46 74 77 95 99 98 94 90 82 77 72 73 78 81 79 79 77 81 80 81 91 84 78 78 77 64 64 64 63 66 77 69 67 72 73 74 73 71
20 20 20 22 25 27 33 53 89 94 100 98 94 92 95 98 99 94 84 82 79 83 82 84 82 75 72 71 67 65 64 64 71 71 62 60 62 56 62 64 65 64 58 58

GFSCGP_250_rhum_126.txt.gz
RH
50 48 44 44 45 46 46 43 43 46 42 40 40 32 28 26 24 22 23 32 35 38 71 100 100 100 100 100 100 100 100 98 97 78 64 53 57 62 49 52 35 36 65 79
44 47 50 45 43 45 45 45 48 47 41 38 32 26 26 25 19 17 20 22 26 30 39 45 71 97 100 100 100 90 84 86 77 57 48 48 67 53 50 44 42 36 46 84
52 49 50 51 49 53 56 54 56 49 38 31 22 22 21 20 15 15 14 12 12 15 20 23 24 33 51 65 92 79 83 72 58 47 45 50 52 43 52 45 40 39 41 80
57 58 57 53 59 64 62 56 48 34 27 24 21 19 12 11 8 8 10 10 9 9 10 11 13 18 27 40 49 59 68 74 47 41 33 32 50 70 41 58 42 36 38 59
60 61 66 68 79 66 49 48 36 28 24 20 14 12 10 8 8 6 5 5 5 5 5 8 10 12 16 22 29 35 26 39 36 31 34 74 100 100 93 58 58 46 35 41
65 66 64 75 60 49 50 39 28 25 21 14 10 7 6 6 5 4 4 3 3 3 3 4 5 8 13 17 20 27 21 27 26 29 43 92 100 100 100 81 79 42 44 39
64 66 69 70 51 53 48 31 26 21 14 10 7 6 5 4 4 5 4 4 3 3 2 3 3 4 6 10 17 20 21 22 23 22 51 56 99 100 100 50 46 32 32 41
60 64 74 62 54 53 40 27 23 14 10 8 6 6 6 6 6 6 6 4 4 3 3 3 3 3 4 5 8 14 18 19 20 20 26 33 33 65 59 32 30 39 36 29
68 77 66 56 52 47 35 25 21 15 9 8 8 8 9 9 8 9 7 6 5 5 4 4 4 4 4 4 6 8 12 18 24 25 29 35 39 29 26 23 29 40 44 32
82 80 58 50 52 41 29 22 20 13 8 10 10 11 12 10 10 10 9 8 8 7 6 6 6 5 5 5 6 7 10 17 25 39 36 26 21 25 28 39 49 49 37 36
80 63 50 55 56 46 31 23 21 10 11 13 14 17 14 15 14 13 11 10 9 9 10 10 14 11 10 9 9 10 13 17 27 34 42 26 32 42 40 40 55 53 79 64
74 56 54 67 48 38 27 23 15 11 13 16 18 20 22 27 26 18 13 12 12 13 19 35 50 28 40 24 18 17 16 17 22 26 32 26 37 39 58 54 72 90 100 100
64 54 67 71 48 33 26 21 12 14 17 20 22 28 47 45 32 24 25 26 34 41 40 79 62 99 92 90 42 32 29 32 27 25 24 26 37 66 100 100 100 96 100 100
65 57 82 57 38 32 29 16 13 17 20 29 38 52 56 54 37 38 39 40 54 66 62 100 99 100 100 100 100 78 65 51 60 100 100 100 100 100 100 100 100 100 100 100
63 64 65 46 33 35 26 15 17 26 32 38 46 45 64 59 50 58 77 73 68 93 97 100 100 100 100 100 100 100 99 91 100 100 100 100 100 100 100 100 100 98 100 100
76 69 57 42 36 38 20 20 22 36 41 49 60 64 69 76 71 78 93 100 96 98 100 99 99 100 100 100 100 100 100 100 100 100 91 100 100 100 100 100 78 95 100 82
72 57 48 42 42 31 23 23 26 43 58 61 76 77 90 98 94 100 100 96 91 94 100 100 93 100 100 100 100 100 92 94 90 78 77 100 96 91 78 86 84 55 68 80
63 50 45 51 45 27 27 26 37 57 80 80 76 82 86 98 92 100 97 99 99 97 100 100 100 100 100 100 100 100 97 90 88 93 89 88 90 96 86 83 88 79 74 70
65 50 48 51 46 27 26 31 50 52 69 84 91 85 95 91 100 100 100 100 92 100 100 100 100 100 100 100 100 100 100 100 98 99 87 71 65 62 59 56 53 52 53 53
68 52 51 49 43 27 29 38 53 74 82 88 90 78 87 97 100 100 100 96 100 100 100 100 100 100 100 100 100 100 96 92 86 82 99 89 87 86 70 58 58 57 56 56
56 49 58 52 41 28 30 44 48 68 87 84 85 90 92 90 97 94 94 99 93 100 100 100 99 100 100 100 100 100 100 100 100 100 100 100 100 100 100 99 86 68 57 56
51 51 56 49 36 28 30 37 54 66 73 82 84 85 85 89 96 99 98 97 99 97 100 100 96 96 100 100 100 100 100 100 100 99 100 100 100 100 100 100 100 100 100 99
49 54 52 41 30 26 29 40 50 67 75 80 74 72 80 96 100 96 100 98 97 99 97 92 99 89 81 89 83 82 75 91 90 84 88 82 93 92 100 100 100 100 100 100
52 52 46 31 24 25 26 34 44 58 78 81 84 83 80 79 82 98 100 100 98 99 100 99 99 100 100 95 88 92 91 92 92 87 80 96 72 66 65 73 73 80 74 76
54 50 34 23 20 23 26 29 39 58 70 88 87 85 86 86 74 75 88 91 93 99 100 100 96 97 100 98 100 100 94 85 85 95 79 76 79 72 70 64 63 68 65 63
51 36 25 20 19 20 24 28 32 45 70 91 99 99 92 90 81 76 76 77 74 78 78 80 83 79 80 89 100 98 97 99 98 99 96 90 77 76 79 74 70 70 55 63

GFSCGP_250_rhum_129.txt.gz
RH
88 82 70 63 52 50 46 42 40 36 34 34 35 39 36 30 22 20 20 19 21 22 27 33 40 52 51 53 77 79 98 94 73 78 67 88 87 100 100 100 100 78 62 51
56 64 58 54 47 40 37 39 40 37 38 36 34 32 29 26 20 18 22 21 20 19 21 28 30 30 36 40 42 84 82 89 92 85 75 76 100 100 100 100 92 85 71 56
56 47 59 66 40 41 51 49 47 50 47 39 29 30 29 28 21 23 23 20 18 17 16 16 18 22 24 34 40 44 91 99 85 100 100 93 81 67 65 75 88 80 53 41
100 92 65 73 73 69 57 47 44 46 44 39 32 29 30 30 23 19 16 14 12 10 10 12 14 14 15 19 29 44 41 52 75 80 77 97 77 78 84 70 65 70 68 71
64 69 61 56 54 52 48 43 50 49 47 44 39 30 26 22 16 12 10 8 7 6 5 5 7 8 9 11 19 25 47 41 32 59 92 71 68 100 100 100 82 100 100 100
73 73 60 53 58 58 49 56 57 52 48 36 32 29 21 16 11 9 7 6 5 4 4 3 4 4 5 7 10 19 26 46 33 30 45 50 49 64 65 85 100 100 100 100
89 86 70 68 74 56 61 61 56 50 37 34 26 20 15 13 9 8 6 5 5 4 4 3 2 3 3 4 5 9 16 28 41 21 32 28 44 56 72 100 100 100 100 100
89 68 74 82 77 64 66 59 60 49 38 31 22 16 14 9 9 7 8 8 6 4 5 4 3 3 3 3 4 6 8 15 24 27 23 31 49 55 69 100 100 100 100 100
81 80 72 84 71 72 65 65 57 45 36 27 18 16 11 10 10 10 12 11 8 8 8 7 5 4 3 3 3 4 6 9 15 22 23 24 30 46 70 98 100 100 100 100
99 94 86 80 76 67 70 64 53 42 31 23 19 14 12 14 12 12 16 18 14 14 8 9 8 6 5 4 4 4 4 7 11 15 20 21 15 33 68 89 100 100 100 100
99 94 83 91 72 74 68 60 48 32 26 25 19 12 16 14 21 19 29 23 20 15 11 10 11 7 6 6 5 5 5 5 8 14 18 21 26 52 98 60 96 91 98 99
100 100 86 75 78 76 64 54 39 27 24 24 14 17 17 18 35 39 52 41 29 24 15 11 16 13 9 10 7 6 6 6 8 12 22 28 26 33 54 64 71 56 56 68
100 100 85 77 77 68 59 48 31 23 27 18 17 19 18 32 44 63 63 63 49 33 23 34 37 55 23 20 18 12 10 9 10 12 16 24 32 37 43 36 26 30 31 32
96 91 86 76 75 58 69 48 30 25 28 16 20 21 19 56 58 77 70 54 65 53 45 73 57 100 100 83 74 29 22 17 17 15 17 20 28 22 18 19 26 30 33 37
100 81 88 99 69 81 55 39 27 29 23 18 25 25 33 66 77 80 76 68 78 65 75 88 86 100 100 96 100 99 72 55 38 62 90 100 93 79 54 50 57 38 43 44
85 94 99 89 95 69 48 38 33 32 22 23 37 37 57 74 87 85 82 92 95 87 100 83 100 100 100 100 100 100 100 90 100 100 100 100 100 100 98 100 100 100 100 100
100 100 92 90 89 58 43 39 41 30 23 31 38 61 74 87 89 89 100 98 87 100 99 92 100 100 100 100 100 100 91 100 100 100 100 100 100 100 100 100 98 100 100 100
100 100 79 76 76 53 43 46 46 32 26 34 42 59 66 72 91 99 100 100 100 100 100 100 100 96 100 100 100 100 100 98 100 100 100 100 100 100 100 100 100 95 96 100
100 87 72 71 64 50 48 51 49 32 29 36 50 68 77 88 99 99 99 100 100 100 100 100 100 100 88 98 100 100 97 100 100 100 100 100 100 100 97 92 96 90 100 100
96 82 71 68 56 52 55 54 46 34 37 39 50 70 76 85 92 84 96 100 98 98 92 100 100 100 100 100 100 100 100 100 100 100 100 93 100 97 91 93 91 95 89 90
88 70 70 65 53 54 60 56 47 31 39 52 54 63 68 78 87 94 92 96 98 91 95 100 95 99 100 92 89 100 100 100 98 100 95 93 88 95 87 84 86 96 100 98
75 70 67 67 50 55 60 54 45 32 30 56 68 72 72 74 78 94 92 100 99 94 98 90 93 98 100 100 92 92 100 100 100 100 100 99 100 99 99 100 87 80 82 87
71 65 65 51 47 55 58 49 38 32 29 34 66 83 83 80 79 90 98 99 100 100 97 97 100 100 100 100 82 100 100 100 99 97 100 100 100 98 99 93 99 92 84 93
67 63 56 44 48 56 50 40 33 28 29 37 48 66 81 85 86 81 85 95 100 100 100 100 99 94 100 100 100 90 76 81 93 100 100 98 97 80 80 93 77 73 72 63
66 61 49 43 49 46 34 28 26 26 27 29 52 68 80 81 77 72 62 71 82 89 99 100 100 100 99 97 88 96 100 100 96 84 84 84 71 77 84 76 75 82 84 79
67 57 45 50 41 29 25 23 22 23 25 28 34 56 80 91 94 90 80 74 64 64 68 72 81 95 100 100 100 99 99 99 100 100 100 98 98 98 94 90 83 80 66 67

GFSCGP_250_rhum_132.txt.gz
RH
100 100 100 100 100 100 99 89 72 56 45 47 47 50 39 31 29 28 32 28 26 23 24 24 24 24 30 37 29 27 29 25 43 80 77 79 55 66 85 100 100 100 85 82
53 59 84 98 97 85 75 74 51 41 47 50 37 37 35 32 30 29 24 21 19 20 22 23 22 21 20 23 32 31 31 39 30 39 45 82 79 55 62 69 100 100 85 58
45 55 65 78 85 84 75 60 43 42 40 37 36 42 44 30 25 24 22 24 27 25 22 19 18 18 18 17 20 25 28 29 38 30 40 43 46 36 69 98 96 92 70 86
56 63 51 64 64 68 68 62 67 66 63 58 52 36 34 28 27 25 25 28 22 19 15 13 12 12 11 11 11 15 24 30 25 25 26 37 40 31 67 100 87 74 63 47
85 79 67 55 62 67 67 66 57 50 47 43 40 36 28 28 24 27 32 24 18 14 10 8 7 6 6 6 7 8 11 18 24 21 20 26 34 34 45 66 65 50 84 76
100 89 84 73 64 68 71 68 64 58 48 46 40 30 28 28 26 32 24 19 13 10 7 6 5 4 4 4 4 4 6 8 14 19 14 18 27 24 36 70 95 98 100 100
100 100 99 90 84 76 70 67 70 55 44 44 47 33 28 28 32 28 19 13 10 8 6 6 6 4 3 3 3 3 3 4 7 12 12 14 20 20 23 73 99 100 92 97
100 93 83 94 82 60 58 63 54 42 52 49 52 40 33 38 31 23 16 12 8 9 9 9 8 5 4 4 3 2 2 3 4 8 9 12 15 16 22 94 100 100 86 100
100 100 100 100 100 100 71 70 59 52 56 58 54 47 37 31 27 19 14 9 10 11 9 9 11 9 5 4 4 3 3 3 3 5 8 10 14 13 27 93 97 100 100 100
98 100 100 100 100 97 99 78 72 66 66 61 59 38 37 28 22 17 12 11 14 15 24 20 22 14 8 6 4 4 3 3 4 5 7 11 14 14 18 47 100 100 100 100
100 100 100 100 100 98 97 96 90 69 69 61 54 40 32 24 19 13 12 16 22 57 40 45 44 16 12 7 5 4 4 4 4 5 8 13 15 14 22 30 62 100 100 100
100 100 100 100 100 100 100 90 82 73 70 60 43 35 25 23 16 14 16 19 53 100 81 58 45 27 12 8 7 6 6 7 44 6 7 11 18 21 11 39 47 77 100 100
100 100 100 100 100 100 92 82 77 72 62 50 35 33 26 22 14 18 24 28 85 100 100 66 49 50 30 17 13 8 10 11 8 7 6 10 15 20 21 30 27 54 100 100
88 100 100 98 91 86 93 81 87 71 56 38 40 32 28 17 19 23 31 34 74 100 100 84 74 56 38 45 35 33 14 21 12 8 9 10 14 22 25 23 35 35 64 94
100 100 100 93 96 100 85 95 81 69 50 40 35 36 21 19 25 31 38 62 72 100 100 88 56 58 74 82 60 87 49 54 27 17 11 10 14 15 25 33 42 70 68 74
100 100 100 100 100 97 94 73 85 77 55 41 32 34 20 24 29 37 55 77 90 100 100 99 74 68 92 81 88 92 90 79 64 40 54 35 52 18 19 22 29 41 63 70
100 100 100 100 100 92 100 100 82 66 51 37 36 29 23 31 41 58 80 89 91 92 100 99 100 86 95 89 100 97 95 94 85 76 100 100 100 100 72 44 38 40 45 50
100 100 100 96 87 100 100 87 69 57 46 37 42 31 24 45 59 79 85 99 94 93 97 100 100 97 96 96 100 100 90 98 100 100 100 100 100 99 87 89 81 72 48 56
100 100 92 99 100 100 92 74 64 53 43 46 46 36 29 41 62 75 94 99 100 100 99 100 100 100 100 97 100 100 100 84 84 100 100 100 99 100 100 100 100 100 79 81
100 100 86 100 100 96 79 70 63 56 42 52 50 38 33 47 49 69 73 83 90 100 100 100 100 100 99 97 98 100 100 100 100 86 94 100 100 100 96 93 91 94 99 83
99 86 100 100 100 76 61 61 59 53 44 52 52 42 37 43 55 72 75 88 86 81 100 100 100 100 100 100 99 99 100 100 96 100 100 97 98 91 86 87 94 94 88 82
82 100 100 100 89 65 54 57 54 47 41 51 50 42 37 44 55 51 74 86 93 86 93 98 100 100 100 100 100 98 100 100 100 100 100 100 100 100 92 82 82 80 84 89
100 100 100 100 85 54 53 55 49 44 44 48 47 39 34 45 65 69 66 85 87 99 100 99 100 100 100 100 100 100 100 100 94 100 100 95 94 93 87 81 78 76 76 73
100 100 100 66 54 59 53 48 44 42 46 45 39 33 29 35 56 77 89 79 72 88 91 99 100 94 91 98 98 98 100 100 100 85 89 98 96 98 96 100 100 97 91 95
100 96 56 64 58 53 47 48 43 41 38 33 28 27 27 29 46 71 83 90 88 80 75 85 92 99 100 97 91 90 90 96 97 100 100 92 86 92 92 99 95 92 79 78
77 66 80 65 52 49 46 46 38 29 24 24 23 23 25 29 38 53 68 68 71 76 74 71 66 73 85 90 93 90 94 82 83 85 96 96 93 100 99 73 65 65 61 64

GFSCGP_250_rhum_135.txt.gz
RH
78 67 66 37 32 32 39 62 96 100 100 100 100 100 100 100 100 96 83 75 56 40 35 30 28 26 25 24 24 25 26 26 29 26 25 23 23 22 23 22 53 98 100 100
92 90 88 58 54 46 35 39 48 71 80 84 86 83 67 60 58 49 35 31 28 26 25 24 24 25 22 21 20 20 22 22 23 24 20 21 24 25 21 17 24 96 100 100
84 80 78 98 88 81 61 41 37 42 52 58 52 57 53 49 44 41 36 30 26 24 23 23 21 19 17 17 17 16 16 19 19 22 21 18 18 22 22 24 16 28 75 91
83 96 93 73 88 100 70 75 61 50 44 48 48 50 46 38 38 37 31 26 24 23 24 20 18 16 15 14 13 12 11 12 14 14 16 15 14 18 21 22 24 18 23 50
88 96 100 84 94 100 100 96 89 70 59 45 58 45 39 45 45 39 36 35 27 22 22 18 16 16 13 9 7 6 6 6 8 10 12 13 11 13 21 18 20 20 20 58
100 99 80 80 84 98 100 100 81 88 89 88 84 60 50 37 36 32 30 28 26 23 18 18 15 10 7 6 5 4 4 4 4 5 7 9 10 13 16 17 17 18 39 62
89 92 86 90 81 86 100 100 100 82 72 73 68 60 49 44 32 31 30 27 25 19 18 14 10 8 7 6 5 4 4 3 3 3 4 5 7 11 13 16 15 16 54 89
83 100 100 91 86 87 100 100 100 100 71 62 57 50 41 39 30 27 24 28 24 21 16 13 9 9 7 6 6 4 4 4 3 2 3 4 4 8 11 15 14 15 46 96
63 84 95 87 74 100 100 100 100 97 86 73 78 47 48 47 45 36 33 32 25 17 14 11 12 9 9 10 7 7 6 4 3 3 2 2 3 5 9 14 17 18 62 100
76 88 80 65 71 100 100 100 100 100 94 99 87 63 67 69 60 43 38 28 20 16 13 16 14 27 25 14 10 7 6 5 4 3 2 2 3 5 8 11 16 18 91 100
70 55 63 64 96 100 100 100 100 92 79 100 92 88 73 56 48 41 34 26 18 16 22 21 23 45 31 23 18 9 7 6 5 4 3 3 4 5 8 12 18 41 91 100
51 48 76 72 100 100 100 100 99 100 100 92 100 82 68 58 48 38 30 23 20 18 28 30 60 51 49 37 19 12 7 6 5 4 4 3 6 10 10 14 31 63 93 100
41 47 68 96 99 100 100 100 100 100 100 100 97 70 73 60 42 33 24 24 16 26 74 91 65 73 58 46 33 20 12 12 13 16 25 7 6 8 11 15 33 53 89 100
76 92 100 97 100 100 100 100 100 100 100 95 75 86 75 49 38 27 26 20 18 37 74 72 89 94 80 55 43 23 25 24 22 29 46 38 11 11 12 14 18 26 93 100
100 100 100 100 100 100 100 100 100 100 89 90 95 79 57 42 35 29 27 19 24 44 80 97 92 96 85 73 60 42 40 42 31 14 11 18 22 11 14 16 23 38 84 100
100 100 100 100 100 100 100 98 94 90 100 94 97 69 46 39 35 35 23 29 40 64 88 98 96 90 92 86 90 100 100 97 68 28 14 10 16 14 17 20 26 28 61 87
100 100 100 100 97 93 96 87 99 100 100 100 90 54 45 40 42 38 26 38 45 62 83 90 98 92 94 90 75 77 82 100 96 74 72 46 30 22 17 21 32 31 27 41
100 100 98 93 95 99 100 100 100 100 100 99 56 51 48 38 45 38 26 46 59 91 75 91 100 96 88 99 99 66 76 99 100 97 84 100 100 94 50 35 34 37 35 28
100 82 83 99 100 100 100 100 100 100 100 74 59 49 50 41 43 44 30 45 67 96 93 99 94 99 100 100 100 98 74 100 100 100 100 100 100 100 78 65 52 31 32 42
97 100 94 100 100 100 100 97 100 100 100 68 54 47 48 42 41 47 34 43 69 89 76 99 100 98 100 100 100 100 87 92 98 100 100 100 100 99 100 90 100 68 61 59
96 100 100 100 100 100 92 100 100 99 78 57 51 47 45 38 44 50 36 40 61 74 88 96 100 100 100 100 100 100 100 100 85 79 91 97 92 90 78 88 96 78 61 56
94 100 100 100 100 78 100 100 100 82 58 51 49 48 38 38 47 54 45 36 54 78 88 90 100 100 100 100 100 100 100 100 100 100 98 75 76 78 77 75 68 67 76 82
100 100 100 100 76 94 100 100 81 59 54 49 48 42 39 41 48 52 47 38 40 58 85 96 100 96 96 98 100 100 100 100 100 100 100 100 100 99 73 67 61 58 60 57
100 100 95 86 76 100 100 74 56 55 47 47 43 40 41 40 42 45 43 36 47 55 63 70 90 100 100 100 100 100 100 100 100 100 100 95 97 100 100 100 100 100 100 99
100 100 95 79 100 79 56 63 51 43 46 45 38 36 35 32 31 34 35 35 42 64 81 71 66 79 91 98 98 99 99 100 99 99 99 100 100 100 100 100 99 89 88 85
95 94 91 78 58 62 72 56 44 43 46 38 32 23 22 22 22 25 29 32 37 52 74 80 72 70 70 72 83 88 88 90 93 91 81 80 86 89 89 86 79 73 65 62

GFSCGP_250_rhum_138.txt.gz
RH
78 98 100 89 79 80 68 63 61 60 37 34 37 40 55 75 86 90 100 100 100 100 100 100 98 95 86 77 73 79 84 69 48 35 33 28 25 24 24 21 20 18 22 100
100 100 100 100 96 91 95 94 82 75 57 61 45 35 36 35 43 57 73 85 90 94 96 93 86 80 79 65 42 32 26 23 20 19 20 20 19 19 21 21 20 18 18 47
88 83 97 100 100 100 98 90 85 79 92 87 62 46 40 38 35 36 35 37 40 42 42 40 38 35 30 24 20 20 18 17 17 17 16 16 16 16 16 20 20 17 18 22
100 99 87 77 80 84 91 92 74 83 85 78 75 60 56 50 51 47 35 35 33 29 24 24 24 23 22 19 19 16 16 15 13 12 12 13 14 14 14 14 17 15 16 21
100 100 100 81 74 85 97 98 98 97 89 70 68 88 57 71 90 72 70 47 35 30 27 28 25 22 20 19 17 16 14 13 12 10 8 8 9 10 10 11 13 13 14 18
100 100 100 100 99 91 95 95 100 85 79 88 98 85 60 70 97 93 70 52 38 33 33 28 23 19 18 16 15 14 13 9 7 6 5 5 5 5 6 7 10 12 13 13
96 100 100 94 84 99 99 93 84 78 99 98 78 84 78 81 90 99 73 54 34 31 26 23 18 18 17 15 12 9 7 6 6 5 4 4 3 3 4 4 6 9 12 13
76 80 94 94 80 98 98 90 91 96 84 88 90 83 96 81 69 68 60 38 28 27 23 21 23 20 16 12 9 7 7 6 6 5 4 3 3 2 3 4 4 6 11 14
74 61 71 79 85 79 84 83 96 73 78 95 88 99 89 80 90 78 56 39 32 31 33 28 24 18 14 10 9 8 10 12 7 6 6 4 3 3 3 3 4 6 10 14
80 75 81 75 78 74 78 85 69 68 97 99 91 100 100 99 84 66 50 42 44 40 40 29 24 18 13 12 12 18 17 15 15 9 7 4 3 3 3 3 3 6 11 14
78 63 74 70 67 56 54 51 65 95 100 99 99 100 100 92 76 71 70 49 50 42 34 25 22 17 23 20 31 32 32 28 27 9 10 6 3 3 3 4 4 7 11 15
42 43 40 32 31 33 43 79 94 89 100 100 100 100 99 100 79 86 60 64 49 39 29 25 19 19 35 69 44 53 47 36 24 17 16 10 4 4 3 4 5 8 12 20
22 18 21 26 28 36 63 85 93 100 100 100 96 100 100 100 100 77 82 58 45 33 26 23 18 35 50 68 65 68 48 57 55 34 21 8 4 5 8 6 7 11 16 23
22 26 32 37 35 44 51 94 100 100 95 100 100 100 100 100 95 92 71 53 36 30 28 21 33 53 56 81 86 69 61 67 56 39 38 41 16 45 26 14 10 14 19 25
26 26 46 65 74 88 100 100 89 100 100 100 100 100 100 98 92 80 64 45 35 31 24 23 63 60 68 85 100 97 78 79 84 70 45 42 50 15 37 28 12 15 20 24
30 42 89 100 100 93 98 100 100 100 100 100 91 100 96 96 100 77 49 42 34 36 24 34 67 78 71 96 100 100 86 83 84 57 63 41 25 32 12 12 17 17 21 22
47 85 87 100 89 100 100 100 100 100 87 92 99 97 100 100 91 51 43 43 39 43 25 43 79 89 78 85 88 98 100 86 87 64 62 66 33 34 22 13 13 18 20 24
94 98 100 100 93 100 100 99 92 95 98 98 100 100 100 99 59 46 40 43 40 48 29 38 77 81 84 86 94 96 88 87 96 95 71 64 67 52 40 31 15 15 19 25
94 100 100 100 100 100 86 86 84 83 99 100 100 100 91 73 51 44 40 41 38 50 37 37 58 78 89 97 96 100 93 91 94 100 100 85 86 65 58 50 22 18 23 31
96 98 94 99 78 79 92 85 100 100 97 100 100 100 88 54 49 46 43 39 38 51 49 41 56 71 92 92 98 100 100 99 93 98 100 98 100 100 89 66 57 42 32 26
99 100 82 79 89 91 86 100 100 100 100 100 100 100 67 55 48 44 42 39 38 49 57 44 61 73 82 94 98 96 95 99 100 85 99 100 100 91 94 94 76 66 63 53
86 86 89 98 100 100 100 100 100 100 100 100 100 92 50 48 48 43 40 39 41 42 55 48 47 68 90 96 99 98 99 92 98 100 98 89 100 99 96 87 74 67 52 49
86 89 100 100 99 100 100 100 98 91 79 84 75 49 51 50 44 42 38 38 41 42 48 51 47 62 75 96 99 98 100 100 100 94 91 90 85 86 87 83 76 77 71 64
92 91 92 100 98 100 100 97 83 61 62 60 57 54 52 46 40 36 34 34 37 38 44 47 44 52 72 85 97 98 99 98 100 95 91 94 94 90 85 84 74 64 53 52
89 100 100 99 96 84 91 76 63 77 70 56 52 49 47 39 33 27 24 24 27 31 35 40 41 40 50 66 79 92 94 91 95 96 94 89 91 91 78 64 68 69 67 59
100 92 87 84 85 83 78 97 75 66 50 50 44 48 37 29 22 17 16 18 20 23 27 34 38 44 49 56 61 69 79 86 87 85 82 82 80 77 69 61 60 62 58 52

GFSCGP_250_rhum_141.txt.gz
RH
81 79 82 77 66 75 99 93 97 95 87 75 73 65 53 48 53 54 45 46 41 40 42 56 68 80 89 90 88 86 79 83 84 80 80 71 58 51 38 57 58 53 44 29
98 100 100 84 83 73 69 94 92 100 100 100 90 67 57 55 55 59 52 50 52 50 46 40 39 43 52 63 74 75 69 58 50 47 59 55 53 60 67 60 56 46 29 24
96 96 100 100 100 75 80 85 97 77 69 63 65 57 59 68 74 62 56 55 50 46 42 35 37 35 31 30 33 41 48 48 44 36 36 36 36 36 30 25 19 20 19 16
88 95 92 94 94 99 79 94 97 99 98 99 92 59 58 66 69 64 68 64 49 47 42 40 31 29 29 28 25 22 21 19 18 17 16 16 16 16 16 16 15 15 16 15
76 84 96 74 96 100 97 100 93 88 98 88 73 76 79 84 76 72 70 73 64 58 60 42 34 32 26 24 22 23 20 20 18 15 12 12 11 11 11 12 13 13 12 13
75 78 80 100 97 89 98 100 100 99 96 74 80 84 63 80 78 85 87 68 68 64 61 50 43 39 28 25 24 22 19 17 14 14 15 14 12 10 9 9 8 9 8 8
100 93 89 83 80 92 86 95 93 86 79 87 98 86 82 80 87 83 75 74 63 79 64 50 50 40 33 28 23 18 16 16 16 14 11 8 7 6 5 4 5 4 4 5
90 89 100 99 98 98 86 88 99 88 85 97 84 74 89 96 94 78 82 84 92 79 55 44 40 38 30 26 22 20 17 15 11 10 8 8 8 6 4 5 4 3 3 4
88 83 100 93 100 94 96 83 98 87 86 90 91 86 84 85 81 81 82 88 79 64 47 42 39 31 27 30 24 19 15 12 12 10 12 10 7 5 5 4 3 3 3 3
92 94 100 100 96 97 97 100 94 81 80 85 68 79 85 75 77 85 85 82 73 54 49 42 40 37 35 27 21 17 15 15 15 14 30 41 16 10 4 3 3 3 3 3
84 77 90 76 82 92 91 83 66 87 74 75 68 77 70 84 94 89 96 80 73 68 56 46 49 42 31 23 21 18 16 25 25 21 53 47 24 13 6 3 3 3 3 3
53 37 36 37 41 36 37 49 56 48 50 56 57 67 85 100 99 98 100 96 98 73 59 59 49 35 29 24 22 18 31 30 41 30 47 66 68 44 19 4 4 3 4 4
23 16 18 21 22 26 27 34 38 38 44 39 45 73 98 97 100 98 100 100 82 86 74 57 38 31 29 27 24 36 52 41 52 49 38 72 72 57 32 8 5 5 4 5
18 17 21 23 22 21 21 23 28 38 39 48 76 100 97 100 99 100 100 99 92 81 62 45 37 31 31 31 45 64 75 61 65 53 56 49 40 58 19 8 14 6 6 6
16 18 23 28 28 26 27 33 35 40 53 78 100 100 95 100 100 100 100 81 88 69 48 40 36 33 25 33 59 73 84 81 74 69 75 63 51 44 64 24 24 14 7 10
27 32 32 31 28 24 35 48 49 68 98 100 98 100 100 100 100 100 98 95 78 59 42 38 35 34 27 46 66 76 87 93 82 98 81 72 59 37 35 79 39 23 9 13
33 32 33 41 42 78 91 94 100 98 100 100 100 100 100 98 100 99 100 82 72 42 42 37 36 38 34 58 81 76 89 100 93 90 88 77 72 64 38 38 70 48 15 16
32 39 54 76 85 97 100 100 99 100 100 100 100 96 86 94 100 100 92 68 46 44 41 38 36 39 42 64 78 67 77 94 97 97 100 88 79 73 57 42 38 37 38 20
40 59 87 95 99 100 100 93 100 100 100 100 91 88 100 100 100 99 81 62 50 45 41 39 38 38 46 56 83 72 78 82 90 95 100 100 93 86 87 66 67 52 30 26
69 97 98 100 100 93 74 77 78 81 76 99 100 100 100 100 93 81 90 75 58 48 41 38 40 40 48 49 71 83 88 89 81 90 98 99 100 100 100 89 75 69 46 35
99 98 96 100 100 77 94 97 93 91 98 100 100 100 96 85 78 61 59 64 52 51 41 37 39 41 46 51 52 80 89 89 89 91 92 97 100 100 100 100 98 98 77 64
98 84 98 90 83 76 92 100 100 100 100 100 96 80 78 72 56 55 56 57 52 48 41 38 38 41 47 56 56 57 76 95 89 91 83 81 90 98 100 100 100 88 100 79
88 88 93 100 90 97 100 100 100 95 100 98 87 79 66 59 58 58 60 54 47 40 38 36 35 38 45 55 60 57 64 67 89 91 88 85 82 78 91 98 100 100 98 90
100 95 80 90 97 100 99 94 91 100 85 65 72 79 62 55 58 59 50 40 35 33 31 29 28 32 38 46 60 63 60 73 70 78 80 90 84 77 75 76 84 82 83 89
82 85 91 96 100 94 98 94 97 87 79 91 62 59 55 63 61 48 37 29 24 20 21 19 19 25 31 38 46 60 67 72 80 73 74 75 76 72 74 74 63 58 59 64
87 88 93 82 74 76 80 90 89 88 78 65 59 55 69 66 47 33 23 16 13 12 12 14 16 20 25 32 37 44 53 66 74 79 72 70 73 72 69 69 62 57 55 46